[[{"header":{"parameterUnit":"m.s-1","parameterCategory":1,"la1":30.6,"la2":29.2853,"lo1":-89.7004,"lo2":-87.6739,"dy":0.0162,"dx":0.0183,"nx":112,"ny":82,"refTime":"2026-04-24T00:00:00:Z","depth":0,"parameterNumber":2,"parameterNumberName":"U-component_of_WINDS"},"data":[0.0,0.0,0.0,0.0,0.0,0.0,0.0,0.0,0.0,0.0,0.0,0.0,0.0,0.0,0.0,0.0,0.0,0.0,0.0,0.0,0.0,0.0,0.0,0.0,0.0,0.0,0.0,0.0,0.0,0.0,0.0,0.0,0.0,0.0,0.0,0.0,0.0,0.0,0.0,0.0,0.0,0.0,0.0,0.0,0.0,0.0,0.0,0.0,0.0,0.0,0.0,0.0,0.0,0.0,0.0,0.0,0.0,0.0,0.0,0.0,0.0,0.0,0.0,0.0,0.0,0.0,0.0,0.0,0.0,0.0,0.0,0.0,0.0,0.0,0.0,0.0,0.0,0.0,0.0,0.0,0.0,0.0,0.0,0.0,0.0,0.0,0.0,0.0,0.0,0.0,-2.6962,-2.8027,-2.889,-2.8915,-2.7756,-2.6462,-2.4813,-2.2723,0.0,0.0,0.0,0.0,0.0,0.0,0.0,0.0,0.0,0.0,0.0,0.0,0.0,0.0,0.0,0.0,0.0,0.0,0.0,0.0,0.0,0.0,0.0,0.0,0.0,0.0,0.0,0.0,0.0,0.0,0.0,0.0,0.0,0.0,0.0,0.0,0.0,0.0,0.0,0.0,0.0,0.0,0.0,0.0,0.0,0.0,0.0,0.0,0.0,0.0,0.0,0.0,0.0,0.0,0.0,0.0,0.0,0.0,0.0,0.0,0.0,0.0,0.0,0.0,0.0,0.0,0.0,0.0,0.0,0.0,0.0,0.0,0.0,0.0,0.0,0.0,0.0,0.0,0.0,0.0,0.0,0.0,0.0,0.0,0.0,0.0,0.0,0.0,0.0,0.0,0.0,0.0,0.0,0.0,0.0,0.0,0.0,0.0,0.0,0.0,0.0,0.0,0.0,0.0,-2.6793,-2.9447,-2.9989,-2.9827,-2.8989,-2.7759,-2.6097,-2.396,0.0,0.0,0.0,0.0,0.0,0.0,0.0,0.0,0.0,0.0,0.0,0.0,0.0,0.0,0.0,0.0,0.0,0.0,0.0,0.0,0.0,0.0,0.0,0.0,0.0,0.0,0.0,0.0,0.0,0.0,0.0,0.0,0.0,0.0,0.0,0.0,0.0,0.0,0.0,0.0,0.0,0.0,0.0,0.0,0.0,0.0,0.0,0.0,0.0,0.0,0.0,0.0,0.0,0.0,0.0,0.0,0.0,0.0,0.0,0.0,0.0,0.0,0.0,0.0,0.0,0.0,0.0,0.0,0.0,0.0,0.0,0.0,0.0,0.0,0.0,0.0,0.0,0.0,0.0,0.0,0.0,0.0,0.0,0.0,0.0,0.0,0.0,0.0,0.0,0.0,0.0,0.0,0.0,0.0,0.0,0.0,0.0,0.0,0.0,0.0,0.0,0.0,0.0,-2.637,-2.7621,-2.9871,-3.0242,-2.9875,-2.8851,-2.7593,-2.5864,-2.3493,-2.2303,0.0,0.0,0.0,0.0,0.0,0.0,0.0,0.0,0.0,0.0,0.0,0.0,0.0,0.0,0.0,0.0,0.0,0.0,0.0,0.0,0.0,0.0,0.0,0.0,0.0,0.0,0.0,0.0,0.0,0.0,0.0,0.0,0.0,0.0,0.0,0.0,0.0,0.0,0.0,0.0,0.0,0.0,0.0,0.0,0.0,0.0,0.0,0.0,0.0,0.0,0.0,0.0,0.0,0.0,0.0,0.0,0.0,0.0,0.0,0.0,0.0,0.0,0.0,0.0,0.0,0.0,0.0,0.0,0.0,0.0,0.0,0.0,0.0,0.0,0.0,0.0,0.0,0.0,0.0,0.0,0.0,0.0,0.0,0.0,0.0,0.0,0.0,0.0,0.0,0.0,0.0,0.0,0.0,0.0,0.0,0.0,0.0,0.0,0.0,0.0,0.0,0.0,-2.7618,-2.8434,-2.9788,-2.9896,-2.9491,-2.8497,-2.6976,-2.5129,-2.3053,-2.1994,0.0,0.0,0.0,0.0,0.0,0.0,0.0,0.0,0.0,0.0,0.0,0.0,0.0,0.0,0.0,0.0,0.0,0.0,0.0,0.0,0.0,0.0,0.0,0.0,0.0,0.0,0.0,0.0,0.0,0.0,0.0,0.0,0.0,0.0,0.0,0.0,0.0,0.0,0.0,0.0,0.0,0.0,0.0,0.0,0.0,0.0,0.0,0.0,0.0,0.0,0.0,0.0,0.0,0.0,0.0,0.0,0.0,0.0,0.0,0.0,0.0,0.0,0.0,0.0,0.0,0.0,0.0,0.0,0.0,0.0,0.0,0.0,0.0,0.0,0.0,0.0,0.0,0.0,0.0,0.0,0.0,0.0,0.0,0.0,0.0,0.0,0.0,0.0,0.0,0.0,0.0,0.0,0.0,0.0,0.0,0.0,0.0,0.0,0.0,0.0,0.0,0.0,-2.7077,-2.8565,-2.9357,-2.8942,-2.8575,-2.852,-2.6176,-2.438,-2.358,-2.1814,0.0,0.0,0.0,0.0,0.0,0.0,0.0,0.0,0.0,0.0,0.0,0.0,0.0,0.0,0.0,0.0,0.0,0.0,0.0,0.0,0.0,0.0,0.0,0.0,0.0,0.0,0.0,0.0,0.0,0.0,0.0,0.0,0.0,0.0,0.0,0.0,0.0,0.0,0.0,0.0,0.0,0.0,0.0,0.0,0.0,0.0,0.0,0.0,0.0,0.0,0.0,0.0,0.0,0.0,0.0,0.0,0.0,0.0,0.0,0.0,0.0,0.0,0.0,0.0,0.0,0.0,0.0,0.0,0.0,0.0,0.0,0.0,0.0,0.0,0.0,0.0,0.0,0.0,0.0,0.0,0.0,0.0,0.0,0.0,0.0,0.0,0.0,0.0,0.0,0.0,0.0,0.0,0.0,0.0,0.0,0.0,0.0,0.0,0.0,0.0,0.0,0.0,-2.6614,-2.8062,0.0,-2.9203,-2.8746,-2.7938,-2.6587,-2.5011,-2.3173,0.0,0.0,0.0,0.0,0.0,0.0,0.0,0.0,0.0,0.0,0.0,0.0,0.0,0.0,0.0,0.0,0.0,0.0,0.0,0.0,0.0,0.0,0.0,0.0,0.0,0.0,0.0,0.0,0.0,0.0,0.0,0.0,0.0,0.0,0.0,0.0,0.0,0.0,0.0,0.0,0.0,0.0,0.0,0.0,0.0,0.0,0.0,0.0,0.0,0.0,0.0,0.0,0.0,0.0,0.0,0.0,0.0,0.0,0.0,0.0,0.0,0.0,0.0,0.0,0.0,0.0,0.0,0.0,0.0,0.0,0.0,0.0,0.0,0.0,0.0,0.0,0.0,0.0,0.0,0.0,0.0,0.0,0.0,0.0,0.0,0.0,0.0,0.0,0.0,0.0,0.0,0.0,0.0,0.0,0.0,0.0,0.0,0.0,0.0,0.0,0.0,0.0,-2.4567,-2.6228,-2.7708,0.0,-2.8834,-2.8389,-2.7287,-2.6404,-2.4994,-2.2843,0.0,0.0,0.0,0.0,0.0,0.0,0.0,0.0,0.0,0.0,0.0,0.0,0.0,0.0,0.0,0.0,0.0,0.0,0.0,0.0,0.0,0.0,0.0,0.0,0.0,0.0,0.0,0.0,0.0,0.0,0.0,0.0,0.0,0.0,0.0,0.0,0.0,0.0,0.0,0.0,0.0,0.0,0.0,0.0,0.0,0.0,0.0,0.0,0.0,0.0,0.0,0.0,0.0,0.0,0.0,0.0,0.0,0.0,0.0,0.0,0.0,0.0,0.0,0.0,0.0,0.0,0.0,0.0,0.0,0.0,0.0,0.0,0.0,0.0,0.0,0.0,0.0,0.0,0.0,0.0,0.0,0.0,0.0,0.0,0.0,0.0,0.0,0.0,0.0,0.0,0.0,0.0,0.0,0.0,0.0,0.0,0.0,0.0,0.0,0.0,0.0,0.0,-2.361,-2.5937,-2.7585,-2.7585,-2.7585,-2.7315,-2.6632,-2.5375,-2.4036,0.0,0.0,0.0,0.0,0.0,0.0,0.0,0.0,0.0,0.0,0.0,0.0,0.0,0.0,0.0,0.0,0.0,0.0,0.0,0.0,0.0,0.0,0.0,0.0,0.0,0.0,0.0,0.0,0.0,0.0,0.0,0.0,0.0,0.0,0.0,0.0,0.0,0.0,0.0,0.0,0.0,0.0,0.0,0.0,0.0,0.0,0.0,0.0,0.0,0.0,0.0,0.0,0.0,0.0,0.0,0.0,0.0,0.0,0.0,0.0,0.0,0.0,0.0,0.0,0.0,0.0,0.0,0.0,0.0,0.0,0.0,0.0,0.0,0.0,0.0,0.0,0.0,0.0,0.0,0.0,0.0,0.0,0.0,0.0,0.0,0.0,0.0,0.0,0.0,0.0,0.0,0.0,0.0,0.0,0.0,0.0,0.0,0.0,0.0,0.0,0.0,0.0,0.0,-2.361,-2.5937,-2.7585,-2.7585,-2.7585,-2.7136,-2.6004,-2.5083,-2.3857,-2.2134,0.0,0.0,0.0,0.0,0.0,0.0,0.0,0.0,0.0,0.0,0.0,0.0,0.0,0.0,0.0,0.0,0.0,0.0,0.0,0.0,0.0,0.0,0.0,0.0,0.0,0.0,0.0,0.0,0.0,0.0,0.0,0.0,0.0,0.0,0.0,0.0,0.0,0.0,0.0,0.0,0.0,0.0,0.0,0.0,0.0,0.0,0.0,0.0,0.0,0.0,0.0,0.0,0.0,0.0,0.0,0.0,0.0,0.0,0.0,0.0,0.0,0.0,0.0,0.0,0.0,0.0,0.0,0.0,0.0,0.0,0.0,0.0,0.0,0.0,0.0,0.0,0.0,0.0,0.0,0.0,0.0,0.0,0.0,0.0,0.0,0.0,0.0,0.0,0.0,0.0,0.0,0.0,0.0,0.0,0.0,0.0,0.0,0.0,0.0,0.0,0.0,0.0,-2.358,-2.5728,-2.7315,-2.7555,-2.7375,-2.6776,-2.5704,-2.4724,-2.3349,-2.1425,0.0,0.0,0.0,0.0,0.0,0.0,0.0,0.0,0.0,0.0,0.0,0.0,0.0,0.0,0.0,0.0,0.0,0.0,0.0,0.0,0.0,0.0,0.0,0.0,0.0,0.0,0.0,0.0,0.0,0.0,0.0,0.0,0.0,0.0,0.0,0.0,0.0,0.0,0.0,0.0,0.0,0.0,0.0,0.0,0.0,0.0,0.0,0.0,0.0,0.0,0.0,0.0,0.0,0.0,0.0,0.0,0.0,0.0,0.0,0.0,0.0,0.0,0.0,0.0,0.0,0.0,0.0,0.0,0.0,0.0,0.0,0.0,0.0,0.0,0.0,0.0,0.0,0.0,0.0,0.0,0.0,0.0,0.0,0.0,0.0,0.0,0.0,0.0,0.0,0.0,0.0,0.0,0.0,0.0,0.0,0.0,0.0,0.0,0.0,0.0,0.0,0.0,-2.352,-2.5345,-2.6811,-2.7435,-2.6956,-2.6303,-2.5561,-2.4358,-2.2802,-2.0897,0.0,0.0,0.0,0.0,0.0,0.0,0.0,0.0,0.0,0.0,0.0,0.0,0.0,0.0,0.0,0.0,0.0,0.0,0.0,0.0,0.0,0.0,0.0,0.0,0.0,0.0,0.0,0.0,0.0,0.0,0.0,0.0,0.0,0.0,0.0,0.0,0.0,0.0,0.0,0.0,0.0,0.0,0.0,0.0,0.0,0.0,0.0,0.0,0.0,0.0,0.0,0.0,0.0,0.0,0.0,0.0,0.0,0.0,0.0,0.0,-3.1461,-3.1055,0.0,0.0,0.0,0.0,0.0,0.0,0.0,0.0,0.0,0.0,0.0,0.0,0.0,0.0,0.0,0.0,0.0,0.0,0.0,0.0,0.0,0.0,0.0,0.0,0.0,0.0,0.0,0.0,0.0,0.0,0.0,0.0,0.0,0.0,0.0,0.0,0.0,0.0,0.0,0.0,-2.352,-2.5345,-2.6632,-2.6806,-2.6716,-2.6123,-2.4903,-2.4088,-2.2981,-2.1575,-2.0348,0.0,0.0,0.0,0.0,0.0,0.0,0.0,0.0,0.0,0.0,0.0,0.0,0.0,0.0,0.0,0.0,0.0,0.0,0.0,0.0,0.0,0.0,0.0,0.0,0.0,0.0,0.0,0.0,0.0,0.0,0.0,0.0,0.0,0.0,0.0,0.0,0.0,0.0,0.0,0.0,0.0,0.0,0.0,0.0,0.0,0.0,0.0,0.0,0.0,0.0,0.0,0.0,0.0,0.0,0.0,0.0,0.0,0.0,0.0,-3.251,-3.2138,0.0,0.0,0.0,0.0,0.0,0.0,0.0,0.0,0.0,0.0,0.0,0.0,0.0,0.0,0.0,0.0,0.0,0.0,0.0,0.0,0.0,0.0,0.0,0.0,0.0,0.0,0.0,0.0,0.0,0.0,0.0,0.0,0.0,0.0,0.0,0.0,0.0,0.0,0.0,0.0,-2.349,-2.4807,-2.5884,-2.6512,-2.6033,-2.5352,-2.4664,-2.3729,-2.2592,-2.1306,-2.0258,0.0,0.0,0.0,0.0,0.0,0.0,0.0,0.0,0.0,0.0,0.0,0.0,0.0,0.0,0.0,0.0,0.0,0.0,0.0,0.0,0.0,0.0,0.0,0.0,0.0,0.0,0.0,0.0,0.0,0.0,0.0,0.0,0.0,0.0,0.0,0.0,0.0,0.0,0.0,0.0,0.0,0.0,0.0,0.0,0.0,0.0,0.0,0.0,0.0,0.0,0.0,0.0,0.0,-3.4878,-3.5554,-3.6005,-3.5857,-3.5788,-3.5687,-3.3728,-3.3436,-3.4184,-3.25,0.0,0.0,0.0,0.0,0.0,0.0,0.0,0.0,0.0,0.0,0.0,0.0,0.0,0.0,0.0,0.0,0.0,0.0,0.0,0.0,0.0,0.0,-2.3881,-2.3792,-2.4088,-2.3968,-2.2325,0.0,0.0,0.0,0.0,0.0,0.0,0.0,0.0,0.0,0.0,0.0,-2.343,-2.4186,-2.5023,-2.6123,-2.5262,-2.4545,-2.4425,-2.346,-2.2313,-2.0957,-2.0258,-1.9091,0.0,0.0,0.0,0.0,0.0,0.0,0.0,0.0,0.0,0.0,0.0,0.0,0.0,0.0,0.0,0.0,0.0,0.0,0.0,0.0,0.0,0.0,0.0,0.0,0.0,0.0,0.0,0.0,0.0,0.0,0.0,0.0,-3.1461,-3.2949,0.0,0.0,0.0,0.0,0.0,0.0,0.0,0.0,0.0,0.0,0.0,0.0,0.0,-3.3829,-3.4991,-3.6434,-3.6874,-3.6389,-3.7753,-3.8125,-3.756,-3.6854,-3.6546,-3.6521,-3.5558,0.0,-3.3664,-3.4018,0.0,0.0,0.0,0.0,0.0,0.0,0.0,0.0,0.0,0.0,0.0,0.0,0.0,0.0,0.0,0.0,0.0,0.0,0.0,0.0,0.0,0.0,-2.5098,-2.4524,-2.3946,-2.3495,-2.322,-2.2413,-2.152,-2.0835,-2.0238,-1.9972,0.0,0.0,0.0,0.0,0.0,0.0,-2.343,-2.4186,-2.4664,-2.4844,-2.4724,-2.4365,-2.3789,-2.358,-2.2921,-2.1635,-2.0946,-2.0198,-1.9348,-1.7386,0.0,0.0,0.0,0.0,0.0,0.0,0.0,0.0,0.0,0.0,0.0,0.0,0.0,0.0,0.0,0.0,0.0,0.0,0.0,0.0,0.0,0.0,0.0,0.0,0.0,0.0,0.0,0.0,0.0,-3.1021,-3.251,-3.2747,-3.2496,-3.1718,0.0,0.0,0.0,0.0,0.0,0.0,0.0,0.0,0.0,-3.525,-3.5723,-3.6434,-3.7516,-3.8514,-3.8876,-3.8543,-3.9177,-3.9083,-3.8395,-3.8033,-3.7667,-3.7311,-3.6978,-3.6015,-3.4654,-3.4182,-3.2812,-3.0911,0.0,0.0,0.0,0.0,-2.8537,-2.8817,-2.9053,-2.8965,-2.8521,-2.751,0.0,0.0,0.0,0.0,0.0,0.0,0.0,-2.4148,-2.4926,-2.4984,-2.4896,-2.5008,-2.4743,-2.4312,-2.3555,-2.3012,-2.2361,-2.1392,-2.0734,-2.0196,-1.9758,-1.9749,0.0,0.0,0.0,-2.1527,-2.2409,-2.2781,-2.3096,-2.3493,-2.3206,-2.2838,-2.2552,-2.2523,-2.2151,-2.1248,-2.0611,-1.9789,-1.8779,-1.7757,-1.6972,0.0,0.0,0.0,0.0,0.0,0.0,0.0,0.0,0.0,0.0,0.0,0.0,0.0,0.0,0.0,0.0,0.0,0.0,0.0,0.0,0.0,0.0,0.0,0.0,0.0,0.0,0.0,0.0,-3.2307,-3.3491,-3.2936,-3.3207,-3.2733,0.0,0.0,0.0,0.0,0.0,0.0,-3.4506,-3.4723,-3.5574,-3.7278,-3.7485,-3.802,-3.892,-3.9385,-3.963,-3.963,-3.9569,-3.9171,-3.8531,-3.8323,-3.7977,-3.7469,-3.7135,-3.6343,-3.5245,-3.4415,-3.336,-3.2269,-3.1211,-3.0248,-2.9481,-2.9561,-2.9597,-2.9698,-3.0301,-3.0492,-3.0283,-2.8996,-2.8393,-2.7705,-2.5525,0.0,0.0,0.0,0.0,-2.4371,-2.541,-2.5131,-2.4668,-2.5023,-2.4964,-2.4547,-2.3529,-2.3206,-2.2797,-2.1801,-2.1135,-2.047,-1.9559,-1.962,0.0,0.0,0.0,-2.1001,-2.1627,-2.171,-2.1876,-2.237,-2.2011,-2.171,-2.171,-2.171,-2.1379,-2.0616,-2.0142,-1.9341,-1.8075,-1.7796,-1.711,-1.5847,0.0,0.0,0.0,0.0,0.0,0.0,0.0,0.0,0.0,0.0,0.0,0.0,0.0,0.0,0.0,0.0,0.0,0.0,0.0,0.0,0.0,0.0,0.0,0.0,0.0,0.0,0.0,0.0,0.0,-3.437,-3.5678,0.0,0.0,0.0,0.0,-3.3355,-3.4585,-3.6073,-3.7584,-3.6322,-3.6543,-3.8731,-3.7469,-3.7431,-3.8809,-3.8843,-3.8846,-3.8878,-3.885,-3.8499,-3.7825,-3.7057,-3.6692,-3.6569,-3.5245,-3.4628,-3.4599,-3.5246,-3.4297,-3.2496,-3.2406,-3.1596,-3.0426,-3.0458,-3.043,-3.043,-3.0492,-3.0492,-3.0582,-3.1122,-3.0492,-2.9382,-2.8577,-2.7342,0.0,0.0,-2.6554,-2.5931,-2.6128,-2.5605,-2.4939,-2.4469,-2.378,-2.3215,-2.313,-2.2703,-2.2226,-2.1695,-2.1064,-2.0631,-2.0671,0.0,-2.0004,-2.0621,-2.0753,-2.1001,-2.1627,-2.171,-2.171,-2.1738,-2.171,-2.171,-2.171,-2.171,-2.1213,-2.0025,-1.9915,-1.9363,-1.8147,-1.7141,-1.6784,-1.72,-1.5222,0.0,0.0,0.0,0.0,0.0,0.0,0.0,0.0,0.0,0.0,0.0,0.0,0.0,0.0,0.0,0.0,0.0,0.0,0.0,0.0,0.0,0.0,0.0,0.0,0.0,0.0,0.0,0.0,-3.6637,-3.7178,0.0,-3.534,-3.5893,-3.6332,-3.6299,-3.7662,-3.8715,-3.9163,-3.8751,-3.8625,-3.884,-3.8383,-3.8363,-3.8875,-3.8777,-3.8717,-3.8717,-3.8175,-3.7546,-3.6965,-3.6645,-3.6061,-3.5213,-3.4719,-3.4264,-3.3874,-3.4152,-3.3578,-3.2527,-3.2527,-3.1929,-3.1182,-3.1659,-3.1809,-3.1749,-3.1271,-3.1421,-3.1689,-3.1061,-3.0283,-2.9562,-2.9322,-2.8839,-2.8368,-2.802,-2.7398,-2.656,-2.5706,-2.494,-2.4259,-2.3671,-2.3305,-2.3095,-2.3095,-2.2945,-2.2682,-2.2155,-2.1291,-2.0553,-2.0214,-1.9979,-1.9773,-1.9666,-1.9952,-2.0238,-2.0445,-2.0496,-2.0496,-2.0496,-2.0496,-2.0496,-2.0496,-2.0496,-2.0158,-1.938,-1.9014,-1.8442,-1.7687,-1.69,-1.6411,-1.6258,-1.5177,-1.445,0.0,0.0,0.0,0.0,0.0,0.0,0.0,0.0,0.0,0.0,0.0,0.0,0.0,0.0,0.0,0.0,0.0,0.0,0.0,0.0,0.0,0.0,0.0,0.0,0.0,-3.5926,-3.7618,-3.7889,-3.8768,-3.8903,-3.7675,-3.8217,-3.8636,-3.8564,-3.9767,-4.0287,-3.9895,-3.9532,-3.9059,-3.8456,-3.7992,-3.787,-3.809,-3.8022,-3.7977,-3.7977,-3.7379,-3.6776,-3.6148,-3.6148,-3.5549,-3.4503,-3.4264,-3.3784,-3.3155,-3.2916,-3.2587,-3.2228,-3.2916,-3.2766,-3.2258,-3.2946,-3.3036,-3.2736,-3.2079,-3.2108,-3.2318,-3.1182,-3.0582,-3.0253,-3.0253,-2.986,-2.9261,-2.868,-2.7784,-2.6694,-2.5579,-2.4759,-2.413,-2.3521,-2.3246,-2.3095,-2.3095,-2.3095,-2.2995,-2.2619,-2.1845,-2.1069,-2.0464,-2.0213,-1.9987,-1.9635,-1.971,-1.9811,-1.9811,-1.9811,-1.9811,-1.9811,-1.9811,-1.9811,-1.9811,-1.9635,-1.9284,-1.8757,-1.8229,-1.7677,-1.7124,-1.6701,-1.6325,-1.5994,-1.5261,-1.4727,-1.4374,0.0,0.0,0.0,0.0,0.0,0.0,0.0,0.0,0.0,0.0,0.0,0.0,0.0,0.0,0.0,0.0,0.0,0.0,0.0,0.0,0.0,0.0,0.0,-3.4607,-3.7144,-3.8768,-3.8125,-4.0561,-4.1474,-3.9318,-4.1009,-4.1627,-4.0033,-4.0722,-4.0806,-3.9929,-3.859,-3.7759,-3.7654,-3.6243,-3.5818,-3.6447,-3.6447,-3.6447,-3.6447,-3.6447,-3.6118,-3.5519,-3.5489,-3.51,-3.4444,-3.3754,-3.3095,-3.2437,-3.178,-3.1511,-3.169,-3.3694,-3.4053,-3.3544,-3.4264,-3.4084,-3.3395,-3.2766,-3.2527,-3.2378,-3.172,-3.1511,-3.1511,-3.1482,-3.0329,-2.9034,-2.8971,-2.7802,-2.6382,-2.5737,-2.5209,-2.465,-2.413,-2.3521,-2.3095,-2.3095,-2.3095,-2.3095,-2.3095,-2.2669,-2.2171,-2.1619,-2.1094,-2.0717,-2.0691,-2.0188,0.0,-1.9811,-1.9811,-1.9811,-1.9811,-1.9811,-1.9811,-1.9811,-1.9309,-1.8757,-1.8229,-1.77,-1.7124,-1.6525,-1.65,-1.65,-1.65,-1.5462,-1.4909,-1.489,0.0,0.0,0.0,0.0,0.0,0.0,0.0,0.0,0.0,0.0,0.0,0.0,0.0,0.0,0.0,0.0,0.0,0.0,0.0,0.0,0.0,-3.5723,-3.7584,-3.7043,-3.8599,-4.0146,-4.0967,-4.1813,-4.2038,-4.1388,-4.1337,-4.1187,-4.0729,-4.0899,-4.0742,-3.993,-3.9067,-3.8054,-3.6847,-3.5949,-3.5579,-3.5759,-3.5759,-3.5759,-3.5759,-3.5759,-3.5669,-3.5489,-3.4981,-3.4414,-3.3724,-3.3066,-3.2378,-3.175,-3.157,-3.1511,-3.166,-3.3185,-3.3365,-3.2916,-3.4053,-3.4084,-3.3455,-3.3275,-3.2916,-3.2378,-3.172,-3.1511,-3.1365,-3.0807,-3.0299,-2.9659,-2.8395,-2.7736,-2.71,-2.5903,-2.5209,-2.465,-2.413,-2.3521,-2.3095,-2.3095,-2.3095,-2.3095,-2.3095,-2.297,-2.2694,-2.2171,-2.1619,-2.1144,-2.0742,-2.0566,0.0,-1.9861,-1.9811,-1.9811,-1.9811,-1.9811,-1.9811,-1.9811,-1.9309,-1.8757,-1.8229,-1.77,-1.7124,-1.6525,-1.65,-1.65,-1.65,-1.5819,-1.5265,0.0,0.0,0.0,0.0,0.0,0.0,0.0,0.0,0.0,0.0,0.0,0.0,0.0,0.0,0.0,0.0,0.0,0.0,0.0,0.0,0.0,0.0,-3.7821,-3.9412,-3.9216,-4.0523,-4.1673,-4.2189,-4.2529,-4.2694,-4.266,-4.1976,-4.1486,-4.1486,-4.0955,-4.0134,-3.9027,-3.8302,-3.7375,-3.6091,-3.5699,-3.5519,-3.5519,-3.5519,-3.5519,-3.5519,-3.5519,-3.5519,-3.5489,-3.4801,-3.4113,-3.3455,-3.2796,-3.2108,-3.1511,-3.1511,-3.1511,-3.16,0.0,0.0,0.0,0.0,-3.3814,-3.3455,-3.3185,-3.2826,-3.2378,-3.172,-3.1511,-3.1336,-3.0539,-3.0056,-2.9473,-2.8071,-2.7438,-2.7018,-2.6207,-2.5385,-2.47,-2.4431,-2.3697,-2.3095,-2.3095,-2.3095,-2.3095,-2.3095,-2.3095,0.0,-2.2694,-2.2196,-2.1644,-2.1119,-2.0842,-2.049,-1.9886,-1.9811,-1.9811,-1.9811,-1.9811,-1.9811,-1.9811,-1.9309,0.0,0.0,0.0,-1.7124,-1.6525,-1.6259,0.0,0.0,0.0,0.0,0.0,0.0,0.0,0.0,-1.4138,-1.3873,0.0,0.0,0.0,0.0,0.0,0.0,0.0,0.0,0.0,0.0,0.0,0.0,0.0,0.0,0.0,0.0,-3.9767,-4.0553,-4.1191,-4.2434,-4.3009,-4.229,-4.2795,-4.3191,-4.3191,-4.241,-4.1891,-4.1825,-4.0582,-3.9166,-3.7561,-3.694,0.0,0.0,0.0,-3.5519,-3.5519,-3.5519,-3.5519,-3.5519,-3.5519,-3.5519,-3.5489,-3.4711,-3.4053,-3.3455,-3.2706,-3.2049,-3.1511,-3.1511,-3.1511,-3.157,-3.2228,-3.2557,-3.2706,-3.3275,-3.3484,-3.3395,-3.2736,0.0,0.0,-3.172,-3.1511,-3.1336,-3.0539,-2.969,-2.8812,-2.7966,-2.7129,-2.6499,-2.6499,-2.5636,-2.48,-2.48,-2.3923,-2.3095,-2.3095,-2.3095,-2.3095,-2.3095,-2.3095,-2.3095,-2.3095,-2.2694,-2.2196,-2.1568,-2.1094,-2.0541,-1.9886,-1.9811,-1.9811,-1.9811,0.0,0.0,-1.9811,-1.9309,-1.8758,-1.821,-1.7567,-1.6975,-1.6383,-1.5898,-1.563,-1.5559,-1.5085,-1.4831,-1.4738,-1.4221,-1.4098,-1.4354,-1.4014,-1.3863,0.0,0.0,0.0,0.0,0.0,0.0,0.0,0.0,0.0,0.0,0.0,0.0,0.0,0.0,0.0,-3.867,-4.0568,-4.2048,-4.283,-4.2684,-4.2435,-4.2232,-4.2334,-4.2433,-4.2433,-4.1149,-4.0112,-3.9473,-3.8583,-3.7716,-3.6816,-3.6693,-3.6259,-3.5522,-3.5519,-3.5519,-3.5519,-3.5519,-3.5519,-3.5519,-3.5519,0.0,-3.5459,-3.4233,-3.3604,-3.3425,-3.2198,-3.163,-3.1511,-3.1511,-3.1511,-3.157,-3.2228,-3.2826,-3.3335,-3.3455,-3.3484,-3.3395,-3.2736,-3.2527,-3.2378,-3.172,-3.1511,-3.1336,-3.0539,-2.969,0.0,-2.7966,-2.7129,-2.6499,-2.6499,-2.5636,-2.48,-2.48,-2.3923,-2.3095,-2.3095,-2.3095,-2.3095,-2.3095,-2.3095,-2.3095,-2.3095,-2.302,-2.2619,-2.1644,-2.1393,-2.0966,-1.9936,-1.9811,-1.9811,-1.9811,-1.9811,-1.9811,-1.9811,-1.9309,-1.871,-1.8013,-1.6915,-1.6041,-1.5564,-1.5783,-1.5733,-1.5375,-1.5635,-1.5512,-1.5025,-1.4923,-1.4604,-1.4143,-1.3756,-1.3756,0.0,0.0,0.0,0.0,0.0,0.0,0.0,0.0,0.0,0.0,0.0,-3.3863,-3.5385,0.0,-3.8261,-3.9754,-4.0945,-4.1658,-4.1569,-4.0913,-4.0788,-4.1511,-4.0915,-4.0444,-4.0444,-3.9437,-3.8806,-3.8848,-3.7776,-3.6971,-3.6631,-3.6259,-3.5879,-3.5489,-3.5519,-3.5519,-3.5519,-3.5519,-3.5519,-3.5519,-3.5519,-3.5519,-3.5459,-3.4113,-3.3484,-3.3425,-3.2079,-3.1511,-3.1511,-3.1511,-3.1511,-3.154,-3.1869,-3.2198,-3.2527,-3.2527,-3.2527,-3.2437,-3.2108,-3.1989,-3.1929,-3.16,-3.1511,-3.1278,-3.0056,-2.9348,-2.8716,-2.7438,-2.6816,-2.6499,-2.6499,-2.5636,-2.48,-2.48,-2.3923,-2.3095,-2.3095,-2.3095,-2.3095,-2.3095,-2.3095,-2.3095,-2.3095,-2.3095,-2.2719,-2.1644,-2.1493,-2.1091,-1.9936,-1.9811,-1.9811,-1.9811,-1.9475,-1.9267,-1.9267,-1.8418,-1.7749,-1.7364,-1.65,-1.5892,-1.5648,-1.5589,-1.5433,-1.5196,-1.5105,-1.4914,-1.4619,-1.4619,-1.4533,-1.4453,-1.4238,-1.4141,0.0,0.0,0.0,0.0,0.0,0.0,0.0,0.0,-3.3343,-3.3931,-3.4742,-3.5926,-3.7787,-3.858,-3.9387,-4.0616,-4.0754,-4.0488,-3.9847,-3.9055,-3.8966,-4.0229,-3.925,-3.8555,-3.8747,-3.7934,-3.7685,-3.8384,-3.7155,-3.6384,-3.6384,-3.5814,-3.5519,-3.5519,-3.5519,-3.5519,-3.5519,-3.5519,-3.5519,-3.5519,-3.5519,-3.5429,-3.525,-3.4053,-3.3425,-3.3245,-3.2019,-3.1511,-3.1511,-3.1511,-3.1511,-3.1511,-3.1511,-3.1511,-3.1511,-3.1511,-3.1511,-3.1511,-3.1511,-3.1511,-3.1511,-3.1511,-3.1365,-3.0984,-2.9659,-2.9034,-2.846,-2.7095,-2.6611,-2.6499,-2.6499,-2.5636,-2.48,-2.48,-2.3923,-2.3095,-2.3095,-2.3095,-2.3095,-2.3095,-2.3095,-2.3095,-2.3095,-2.3095,-2.2719,-2.1644,-2.1493,-2.1091,-1.9936,-1.9811,-1.9759,-1.9605,-1.9032,-1.8635,-1.8501,-1.7386,-1.6757,-1.6757,-1.6199,-1.5834,-1.5773,-1.5384,-1.5114,-1.5032,-1.4579,-1.4348,-1.4348,-1.4348,-1.457,-1.4902,-1.4902,-1.4727,-3.3436,-3.2138,-3.1345,-3.1921,-3.2611,-3.3491,0.0,0.0,-3.6321,-3.6423,-3.754,-3.8565,-3.8836,-3.8848,-3.9095,-4.0038,-3.9516,-3.9188,-3.9874,-3.8716,-3.7872,-3.8028,-3.784,-3.806,-3.8792,-3.7556,-3.6754,-3.6846,-3.6068,-3.5619,-3.5619,-3.5522,-3.5519,-3.5519,-3.5519,-3.5519,-3.5519,-3.5519,-3.5519,-3.5519,-3.5519,-3.519,-3.4593,-3.3844,-3.3185,-3.2557,-3.1809,-3.1511,-3.1511,-3.1511,-3.1511,-3.1511,-3.1511,-3.1511,-3.1511,-3.1511,-3.1511,-3.1511,-3.1511,-3.1511,-3.1511,-3.1511,-3.1014,-3.0389,-3.0208,-2.9066,-2.7802,-2.7604,-2.7027,-2.6499,-2.6499,-2.5636,-2.48,-2.48,-2.3923,-2.3095,-2.3095,-2.3095,-2.3095,-2.3095,-2.3095,-2.3095,-2.3095,-2.3095,-2.2719,-2.1644,-2.1493,-2.1091,-1.9936,-1.9811,-1.9553,-1.8874,-1.8741,-1.8447,-1.7797,-1.698,-1.6511,-1.6511,-1.5847,-1.5325,-1.4949,-1.5201,-1.5212,-1.4838,-1.5107,-1.5245,-1.5245,-1.5245,-1.5264,-1.5352,-1.5352,-1.5312,-3.4856,-3.4213,-3.3728,-3.3613,-3.4472,-3.5419,-3.5566,-3.6569,-3.755,-3.799,-3.8928,-3.9514,-3.9013,-3.9281,-3.9343,0.0,-3.8372,-3.8056,-3.7991,-3.7085,-3.6432,-3.6432,-3.6734,-3.6955,-3.6908,-3.6348,-3.5943,-3.5943,-3.5653,-3.5519,-3.5519,-3.5519,-3.5519,-3.5519,-3.5519,-3.5519,-3.5519,-3.5519,-3.5519,-3.5519,-3.5519,-3.513,-3.4474,-3.3784,-3.2916,-3.1899,-3.163,-3.1511,-3.1511,-3.1511,-3.1511,-3.1511,-3.1511,-3.1511,-3.1511,-3.1511,-3.1511,-3.1511,-3.1511,-3.1511,-3.1511,-3.1511,-3.0955,-3.0208,-2.969,-2.8684,-2.7604,-2.7129,-2.6748,-2.6499,-2.6499,-2.5896,-2.5209,-2.485,-2.4205,-2.3521,-2.317,-2.3095,-2.3095,-2.3095,-2.3095,-2.3095,-2.3095,-2.3095,-2.2844,-2.2096,-2.1694,-2.1245,-2.044,-1.9647,-1.8715,-1.755,-1.7413,-1.7135,-1.6376,-1.6026,-1.5874,-1.5874,-1.5584,-1.5332,-1.5156,-1.5312,-1.5332,-1.5156,-1.5312,-1.541,-1.541,-1.541,-1.541,-1.541,-1.541,-1.541,-3.5701,-3.5769,-3.5791,-3.525,-3.6288,-3.7202,-3.6411,-3.7415,-3.8599,-3.8937,-3.9605,-3.985,-3.9043,-3.9232,-3.8994,-3.7561,-3.7186,-3.6867,-3.6307,-3.5818,-3.5519,-3.5519,-3.5938,-3.6028,-3.5549,-3.5669,-3.5699,-3.5519,-3.5519,-3.5519,-3.5519,-3.5519,-3.5519,-3.5519,-3.5519,-3.5519,-3.5519,-3.5519,-3.5519,-3.5519,-3.5519,-3.504,-3.4204,-3.3335,-3.2437,-3.1511,-3.1511,-3.1511,-3.1511,-3.1511,-3.1511,-3.1511,-3.1511,-3.1511,-3.1511,-3.1511,-3.1511,-3.1511,-3.1511,-3.1391,-3.1212,-3.1212,-3.0543,-2.9527,-2.891,-2.8093,-2.7263,-2.6645,-2.6499,-2.6499,-2.6499,-2.6072,-2.546,-2.4933,-2.4406,-2.3828,-2.3221,-2.3095,-2.3095,-2.3095,-2.3095,-2.3095,-2.3095,-2.3095,-2.297,-2.2569,-2.1945,-2.132,-2.0767,-1.9344,-1.7907,-1.6652,-1.6312,-1.5968,-1.5439,-1.541,-1.541,-1.541,-1.541,-1.541,-1.541,-1.541,-1.541,-1.541,-1.541,-1.541,-1.541,-1.541,-1.541,-1.541,-1.541,-1.541,-3.6005,-3.6163,-3.6761,-3.6728,-3.7821,-3.8734,-3.799,-3.8971,-3.9842,-3.914,-3.9605,-3.985,-3.9043,-3.8334,-3.7589,-3.6753,-3.6037,-3.5552,-3.5519,-3.5519,-3.5519,-3.5519,-3.5519,-3.5519,-3.5519,-3.6088,-3.6178,-3.5549,-3.5519,-3.5519,-3.5519,-3.5519,-3.5519,-3.5519,-3.5519,-3.5519,-3.5519,-3.5519,-3.5519,-3.5519,-3.5519,-3.4801,-3.3484,-3.2138,-3.154,-3.1511,-3.1511,-3.1511,-3.1511,-3.1511,-3.1511,-3.1511,-3.1511,-3.1511,-3.1511,-3.1511,-3.1511,-3.1511,-3.1511,-3.1062,-3.0522,-3.0522,-2.9406,-2.8057,-2.8026,-2.732,-2.6533,-2.6499,-2.6499,-2.6499,-2.6499,-2.6072,-2.546,-2.4933,-2.4406,-2.3828,-2.3221,-2.3095,-2.3095,-2.3095,-2.3095,-2.3095,-2.3095,-2.3095,-2.3095,-2.307,-2.2196,-2.132,-2.0767,-1.8912,-1.733,-1.6567,-1.5874,-1.541,-1.541,-1.541,-1.541,-1.541,-1.541,-1.541,-1.541,-1.541,-1.541,-1.541,-1.541,-1.541,-1.541,-1.541,-1.541,-1.541,-1.541,-1.541,-3.6265,-3.6941,-3.7516,-3.7516,-3.8261,-3.8937,-3.87,-3.9005,-3.958,-4.0324,-4.0282,-3.9856,-3.906,-3.8284,-3.7383,-3.607,-3.5683,-3.5519,-3.5519,-3.5519,-3.5519,-3.5519,-3.5878,-3.5998,-3.5549,-3.5699,0.0,-3.5519,-3.5519,-3.5519,-3.5519,-3.5519,-3.5519,-3.5519,-3.5519,-3.5519,-3.5519,-3.5519,-3.5519,-3.5489,-3.4592,-3.3694,-3.2826,-3.1899,-3.1511,-3.1511,-3.1511,-3.1511,-3.1511,-3.1511,-3.1511,-3.1511,-3.1511,-3.1511,-3.1511,-3.1511,-3.1511,-3.1451,-3.0972,-3.0702,-3.0432,-3.0013,-2.8799,-2.7564,-2.7889,-2.7029,-2.5996,-2.6373,-2.6499,-2.6499,-2.6499,-2.6348,-2.5971,-2.5034,-2.465,-2.4249,-2.3321,-2.3095,-2.3095,-2.3095,-2.3095,-2.3095,-2.3095,-2.3095,-2.2869,-2.2146,-2.1719,-2.081,-1.8877,-1.8048,-1.7135,-1.5882,-1.5555,-1.541,-1.541,-1.541,-1.541,-1.541,-1.541,-1.541,-1.541,-1.541,-1.541,-1.541,-1.541,-1.541,-1.541,-1.541,-1.5147,-1.4599,-1.4599,-1.4332,-3.7269,-3.7922,-3.8362,-3.8633,-3.9039,-3.9402,-3.9402,-3.9402,-3.9648,-4.0595,-4.0036,-3.9082,-3.8302,-3.7361,-3.6338,-3.5294,-3.513,-3.522,-3.5459,-3.5519,-3.5519,-3.5519,-3.5878,-3.5968,-3.5549,-3.5519,0.0,-3.5519,-3.5519,-3.5519,-3.5519,-3.5519,-3.5519,-3.5519,-3.5519,-3.5519,-3.5519,-3.525,-3.5011,-3.4771,-3.3664,-3.2916,-3.2497,-3.1809,-3.1511,-3.1511,-3.1511,-3.1511,-3.1511,-3.1511,-3.1511,-3.1511,-3.1511,-3.1511,-3.1511,-3.1511,-3.1511,-3.1451,-3.1002,-3.0552,-3.0103,-2.9741,-2.8365,-2.6929,-2.7255,-2.6522,-2.5661,-2.6072,-2.6323,-2.6499,-2.6499,-2.6499,-2.6223,-2.5084,-2.48,-2.4474,-2.3346,-2.3095,-2.3095,-2.3095,-2.3095,-2.3095,-2.3095,-2.2854,-2.2332,-2.1276,-2.0824,-1.9927,-1.7878,-1.7357,-1.6743,-1.5526,-1.541,-1.541,-1.541,-1.541,-1.541,-1.541,-1.541,-1.541,-1.541,-1.541,-1.541,-1.541,-1.541,-1.541,-1.541,-1.541,-1.5001,-1.4213,-1.4213,-1.3765,-3.8802,-3.9039,-3.9208,-3.9943,-4.0113,-4.0113,-4.0113,-4.0113,-4.0113,-4.0113,-3.8964,-3.7748,0.0,0.0,-3.469,-3.4541,-3.4503,-3.4771,-3.54,-3.5459,-3.5459,0.0,0.0,0.0,0.0,0.0,0.0,-3.5519,0.0,-3.5519,-3.5519,-3.5519,-3.5519,-3.5519,-3.5519,-3.5519,-3.5519,-3.4863,-3.4174,-3.3425,-3.2796,-3.2467,-3.2437,-3.178,-3.1511,-3.1511,-3.1511,-3.1511,-3.1511,-3.1511,-3.1511,-3.1511,-3.1511,-3.1511,-3.1511,-3.1511,-3.1481,-3.1451,-3.1451,-3.0642,-2.9592,-2.9507,-2.7963,-2.6182,-2.6152,-2.5858,-2.5511,-2.5536,-2.5996,-2.6449,-2.6449,-2.6474,-2.6223,-2.5109,-2.4825,-2.4525,-2.3396,-2.3145,-2.3145,-2.312,-2.3095,-2.3095,-2.3095,-2.2433,-2.1527,-2.0562,-1.9592,-1.8672,-1.7684,-1.6933,-1.6197,-1.5468,-1.541,-1.541,-1.541,-1.541,-1.541,-1.541,-1.541,-1.541,-1.541,-1.541,-1.541,-1.541,-1.541,-1.541,-1.541,-1.541,-1.4971,-1.4154,-1.4154,-1.3704,-3.8802,-3.9377,-3.9876,-4.0045,-4.0113,-4.0113,-4.0113,-4.0113,-4.0113,-4.0087,-3.8998,-3.7748,0.0,0.0,0.0,-3.4543,-3.4907,0.0,-3.5489,-3.507,0.0,-3.5459,0.0,-3.4951,-3.5459,-3.5519,0.0,0.0,-3.5519,-3.5519,-3.5519,-3.5519,-3.5519,-3.5519,-3.5519,-3.5519,-3.5519,-3.4863,-3.3903,-3.2766,-3.2557,-3.2228,-3.175,-3.157,-3.1511,-3.1511,-3.1511,-3.1511,-3.1511,-3.1511,-3.1511,-3.1511,-3.1511,-3.1511,-3.1511,-3.1511,-3.1182,-3.0761,-3.0761,-3.0253,-2.9451,-2.8402,-2.6916,-2.5575,-2.5432,-2.4905,-2.4481,-2.4908,-2.541,-2.5812,-2.5812,-2.6172,-2.6323,-2.5561,-2.541,-2.5109,-2.4004,-2.3778,-2.3653,-2.3195,-2.3095,-2.3095,-2.3095,-2.2061,-2.1045,-2.0461,-1.8827,-1.7453,-1.6857,-1.6624,-1.6197,-1.5468,-1.541,-1.541,-1.541,-1.541,-1.541,-1.541,-1.541,-1.541,-1.541,-1.541,-1.541,-1.541,-1.541,-1.541,-1.541,-1.541,-1.4688,-1.3312,-1.3312,-1.2551,-3.9276,-3.9774,-4.0113,-4.0113,-4.0113,-3.9943,-3.9276,-3.9377,-3.9309,-3.8338,-3.7269,0.0,-3.5074,-3.4528,-3.4072,0.0,0.0,0.0,-3.5429,-3.4921,-3.4773,0.0,-3.516,0.0,-3.5459,-3.5519,-3.5519,0.0,-3.5519,-3.5519,-3.5519,-3.5519,-3.537,-3.507,-3.507,-3.4771,-3.4203,-3.3814,-3.3095,-3.2049,-3.2049,-3.1869,-3.1511,-3.1511,-3.1511,-3.1511,-3.1511,-3.1511,-3.1511,-3.1511,-3.1511,-3.1511,-3.1511,-3.1511,-3.1511,-3.1511,-3.089,-3.0011,-3.0011,-2.9226,-2.8186,-2.8027,-2.6824,-2.5383,-2.5258,-2.4666,-2.4054,-2.4381,-2.4858,-2.5259,-2.5259,-2.5485,-2.5661,-2.5335,-2.5259,-2.5034,-2.418,-2.4004,-2.3828,-2.3221,-2.3095,-2.3095,-2.3095,-2.183,-2.0688,-2.0238,-1.8335,-1.6829,-1.6392,-1.6139,-1.5874,-1.5439,-1.541,-1.541,-1.541,-1.541,-1.541,-1.541,-1.541,-1.541,-1.541,-1.541,-1.541,-1.541,-1.541,-1.541,-1.541,-1.541,-1.4569,-1.3009,-1.3009,-1.212,-3.9943,-4.0113,-4.0113,-4.0113,-4.0113,-3.9706,-3.8227,-3.8396,-3.8193,-3.5904,0.0,-3.4077,-3.2805,-3.2478,-3.2425,-3.258,0.0,-3.4053,-3.534,-3.4921,-3.4773,-3.5429,-3.5429,-3.54,-3.5489,-3.5519,-3.5519,-3.5519,-3.5429,-3.54,-3.5519,-3.5519,-3.519,-3.4533,-3.4414,-3.3754,-3.2497,-3.2527,-3.2138,-3.1511,-3.1511,-3.1511,-3.1511,-3.1511,-3.1511,-3.1511,-3.1511,-3.1511,-3.1511,-3.1511,-3.1511,-3.1511,-3.1511,-3.1511,-3.1511,-3.1511,-3.0659,-2.9523,-2.932,-2.8082,-2.6722,-2.7802,-2.6852,-2.5217,-2.5106,-2.4531,-2.3879,-2.3879,-2.428,-2.4675,-2.4675,-2.4725,-2.48,-2.48,-2.485,-2.4757,-2.413,-2.3929,-2.3728,-2.3195,-2.3095,-2.3095,-2.3095,-2.1791,-2.057,-1.998,-1.8197,-1.6747,-1.6163,-1.5684,-1.541,-1.541,-1.541,-1.541,-1.541,-1.541,-1.541,-1.541,-1.541,-1.541,-1.541,-1.541,-1.541,-1.541,-1.541,-1.541,-1.541,-1.541,-1.4569,-1.3009,-1.3009,-1.212,-4.0079,-4.0113,-4.0113,-4.0113,-4.0113,-3.9706,-3.8227,-3.799,0.0,0.0,-3.4151,-3.3423,-3.2524,-3.2392,-3.2574,-3.3074,-3.3811,-3.4623,-3.54,-3.4921,-3.4773,0.0,-3.5011,-3.4891,-3.5459,-3.5519,0.0,0.0,-3.4981,-3.4891,-3.5459,-3.5519,-3.519,-3.4533,-3.3933,-3.3305,-3.2497,-3.2527,-3.2138,-3.1511,-3.1511,-3.1511,-3.1511,-3.1511,-3.1511,-3.1511,-3.1511,0.0,-3.1511,-3.1511,-3.1511,-3.1511,-3.1511,-3.1511,-3.1511,-3.1511,-3.1005,-3.015,-2.897,-2.8023,-2.7114,-2.6124,-2.5195,-2.4366,-2.3695,-2.3381,-2.3246,-2.3246,-2.3672,-2.413,-2.413,-2.4481,-2.48,-2.48,-2.5159,-2.5184,-2.4205,-2.3627,-2.3221,-2.312,-2.3095,-2.3095,-2.3095,-2.231,-2.1284,-2.0073,-1.8975,-1.7758,-1.6294,-1.5684,-1.541,-1.541,-1.541,-1.541,-1.541,-1.541,-1.541,-1.541,-1.541,-1.541,-1.541,-1.541,-1.541,-1.541,-1.541,-1.541,-1.541,-1.541,-1.4569,-1.3009,-1.3009,-1.212,-4.0214,-4.0113,-4.0113,-4.0113,-3.9808,-3.9005,-3.7144,0.0,0.0,0.0,-3.282,-3.2527,-3.1458,-3.1611,0.0,-3.2264,-3.2348,-3.3006,-3.4741,-3.4083,-3.3963,-3.534,-3.522,-3.513,-3.5459,-3.5519,-3.5519,-3.5519,-3.4861,-3.4653,-3.4951,-3.4322,-3.3784,-3.3455,-3.2826,-3.2288,-3.1989,-3.1959,-3.1809,-3.1511,-3.1511,-3.1511,-3.1511,-3.1511,-3.1511,-3.1511,-3.1511,-3.1511,-3.1511,-3.1511,-3.1511,-3.1511,-3.1511,-3.1511,-3.1453,-3.1014,-3.0192,-2.9086,-2.7698,-2.6528,-2.5486,-2.4454,-2.4168,-2.4247,-2.3839,-2.3424,-2.3095,-2.3095,-2.3296,-2.3521,-2.3521,-2.3722,-2.3998,-2.433,-2.4582,-2.4632,-2.4104,-2.3552,-2.3095,-2.3095,-2.3095,-2.3095,-2.3095,-2.2433,-2.1658,-2.1028,-1.9601,-1.8322,-1.7512,-1.6625,-1.5888,-1.5469,-1.541,-1.541,-1.541,-1.541,-1.541,-1.541,-1.541,-1.541,-1.541,-1.541,-1.541,-1.541,-1.541,-1.541,-1.541,-1.541,-1.4776,-1.3614,-1.3191,-1.2366,-4.0451,-4.0214,-4.0113,-4.0113,-3.9571,-3.8396,-3.6107,-3.5464,0.0,-3.1765,-3.1684,-3.1746,-3.068,-3.0865,-3.1219,0.0,-3.1016,-3.1539,-3.3964,-3.3484,-3.3574,0.0,-3.5519,0.0,-3.5519,-3.5519,0.0,-3.5519,-3.4741,-3.4294,-3.4294,-3.3155,-3.2527,-3.2527,-3.1839,-3.1511,-3.1511,-3.1511,-3.1511,-3.1511,-3.1511,-3.1511,-3.1511,-3.1511,-3.1511,-3.1511,-3.1511,-3.1511,-3.1511,-3.1511,-3.1511,-3.1511,-3.1511,-3.1511,-3.1424,-3.0628,-2.962,-2.8416,-2.6666,-2.5392,-2.4278,-2.3382,-2.3543,-2.4044,-2.4044,-2.3603,-2.3095,-2.3095,-2.3095,-2.3095,-2.3095,-2.3095,-2.3246,-2.3853,-2.4004,-2.4004,-2.4004,-2.3552,-2.3095,-2.3095,-2.3095,-2.3095,-2.3095,-2.258,-2.2094,-2.1939,-2.0254,-1.8924,-1.8648,-1.7595,-1.6531,-1.5751,-1.5605,-1.5508,-1.541,-1.541,-1.541,-1.541,-1.541,-1.541,-1.541,-1.541,-1.541,-1.541,-1.541,-1.541,-1.541,-1.541,-1.5001,-1.4183,-1.3373,-1.2613,-4.0933,-4.0595,-4.0113,-4.0113,-3.9571,-3.8396,-3.6107,0.0,-3.3931,-3.1664,-3.1258,-3.1258,-3.1131,-3.0762,-3.0688,-3.1317,0.0,-3.1899,-3.3395,-3.3993,-3.4592,-3.54,0.0,0.0,-3.5519,-3.5519,-3.5519,-3.5519,-3.4322,-3.3574,-3.3574,-3.2916,-3.2527,-3.2527,-3.1839,-3.1511,-3.1511,-3.1511,-3.1511,-3.1511,-3.1511,-3.1511,-3.1511,-3.1511,-3.1511,-3.1511,-3.1511,-3.1511,0.0,-3.1511,-3.1511,-3.1511,-3.1511,-3.1511,-3.1424,-3.0628,-3.024,-2.9709,-2.7016,-2.5999,-2.5603,-2.372,-2.3155,-2.3215,-2.3215,-2.3155,-2.3095,-2.3095,-2.3095,-2.3095,-2.3095,-2.3095,-2.3246,-2.3853,-2.4004,-2.4004,-2.4004,-2.3552,-2.3095,-2.3095,-2.3095,-2.3095,-2.3095,-2.3035,-2.2732,-2.2002,-2.1055,-1.9984,-1.8754,-1.7878,-1.7148,-1.6629,-1.625,-1.587,-1.5449,-1.541,-1.541,-1.541,-1.541,-1.541,-1.541,-1.541,-1.541,-1.541,-1.541,-1.541,-1.541,-1.541,-1.5001,-1.4183,-1.3373,-1.271,-4.1238,-4.1001,-4.0663,-4.0214,-3.9208,-3.7855,-3.6005,0.0,-3.3355,-3.1562,-3.119,-3.119,-3.119,-3.0433,-3.0023,-3.068,-2.9853,-2.9894,-3.2018,-3.2198,-3.2796,-3.4651,-3.4891,0.0,0.0,0.0,-3.516,-3.4352,-3.3814,-3.3155,-3.2318,-3.2019,-3.1899,-3.1899,-3.163,-3.1511,-3.1511,-3.1511,-3.1511,-3.1511,-3.1511,-3.1511,-3.1511,-3.1511,-3.1511,-3.1511,-3.1511,-3.1511,0.0,-3.1511,-3.1511,-3.1511,-3.1511,-3.1511,-3.1336,-3.0025,-2.9504,-2.9118,-2.6291,-2.5326,-2.5083,-2.3593,-2.3095,-2.3095,-2.3095,-2.3095,-2.3095,-2.3095,-2.3095,-2.3095,-2.3095,-2.3095,-2.317,-2.3396,-2.3446,-2.3446,-2.3446,-2.3271,-2.3095,-2.3095,-2.3095,-2.3095,-2.3095,-2.3095,-2.2975,-2.2671,-2.1908,-2.1,-1.994,-1.9069,-1.8172,-1.7233,-1.6738,-1.6387,-1.62,-1.618,-1.6094,-1.585,-1.5831,-1.5684,-1.543,-1.541,-1.541,-1.541,-1.541,-1.541,-1.541,-1.541,-1.5235,-1.4913,-1.3778,-1.3122,-4.1542,-4.1373,-4.1068,-4.0561,-3.914,-3.7516,0.0,-3.445,-3.2983,-3.1495,-3.119,-3.119,-3.119,-3.0192,-2.9544,-3.0055,-2.9039,-2.8992,-3.1182,-3.1241,-3.1928,-3.4234,0.0,-3.4713,-3.516,-3.54,-3.504,-3.3873,-3.3604,-3.3006,-3.1869,-3.16,-3.1511,-3.1511,-3.1511,-3.1511,-3.1511,-3.1511,-3.1511,-3.1511,-3.1511,-3.1511,-3.1511,-3.1511,-3.1511,-3.1511,-3.1511,-3.1511,0.0,-3.1511,-3.1511,-3.1511,-3.1511,-3.1511,-3.1307,-2.9628,-2.9002,-2.8616,-2.5775,-2.48,-2.46,-2.3471,-2.3095,-2.3095,-2.3095,-2.3095,-2.3095,-2.3095,-2.3095,-2.3095,-2.3095,-2.3221,-2.3371,-2.3371,-2.3496,-2.3572,-2.3396,-2.3371,-2.3321,-2.3145,-2.3095,-2.3095,-2.3095,-2.3095,-2.3095,-2.3095,-2.2402,-2.1596,-2.0719,-1.9846,-1.8854,-1.7697,-1.7285,-1.698,-1.6726,-1.6707,-1.657,-1.632,-1.6281,-1.6074,-1.5625,-1.5605,-1.5547,-1.541,-1.541,-1.541,-1.541,-1.541,-1.5469,-1.5576,-1.4387,-1.3653,-4.188,-4.1745,-4.1204,-4.1204,-3.9546,-3.7516,-3.5938,-3.445,-3.2983,-3.1495,-3.119,-3.119,-3.119,-3.0192,-2.9406,-2.9406,-2.9508,-3.0013,-3.1331,-3.2049,-3.2976,0.0,0.0,-3.4503,-3.4503,-3.51,-3.522,-3.4563,-3.3873,-3.3215,-3.2527,-3.1869,-3.1511,-3.1511,-3.1511,-3.1511,-3.1511,-3.1511,-3.1511,-3.1511,-3.1511,-3.1511,-3.1511,-3.1511,-3.1511,-3.1511,-3.1511,-3.1511,0.0,-3.1511,-3.1511,-3.1511,-3.1511,-3.1511,-3.1307,-2.9628,-2.9002,-2.8616,-2.5775,-2.48,-2.46,-2.3471,-2.3095,-2.3095,-2.3095,-2.3095,-2.3095,-2.3095,-2.3095,-2.3095,-2.3095,-2.3521,-2.3979,-2.3979,-2.4406,-2.4625,-2.4104,-2.3979,-2.3828,-2.3221,-2.3095,-2.3095,-2.3095,-2.3095,-2.3095,-2.3095,-2.2402,-2.1596,-2.0719,-1.9846,-1.8944,-1.809,-1.8008,-1.7656,-1.6765,-1.6707,-1.6707,-1.6687,-1.6687,-1.6523,-1.6105,-1.6085,-1.5889,-1.541,-1.541,-1.541,-1.541,-1.541,-1.5644,-1.6055,-1.5272,-1.4323,-4.0054,-4.0223,-4.0189,-3.9208,-3.8024,-3.6738,-3.5182,-3.41,-3.2983,-3.1495,-3.119,-3.119,-3.119,-3.0192,-2.9703,-3.0616,-3.0125,-3.0043,-3.1331,0.0,0.0,-3.3694,-3.4622,-3.519,0.0,0.0,-3.522,-3.4563,-3.3873,-3.3215,-3.2557,-3.1869,-3.1511,-3.1511,-3.1511,-3.1511,-3.1511,-3.1511,-3.1511,-3.1511,-3.1511,-3.1511,-3.1511,-3.1511,-3.1511,-3.1511,-3.1511,-3.1511,-3.1511,-3.1511,-3.1511,-3.1511,-3.1511,-3.1511,-3.1307,-2.9628,-2.9002,-2.867,-2.6187,-2.5134,-2.4675,-2.3954,-2.3421,-2.3095,-2.3095,-2.3095,-2.3095,-2.3095,-2.3095,-2.3095,-2.3095,-2.3246,-2.3471,-2.3904,-2.413,-2.4205,-2.4029,-2.4004,-2.3828,-2.3221,-2.3095,-2.3095,-2.3095,-2.3095,-2.3095,-2.3095,-2.2884,-2.2218,-2.0782,-2.0365,-1.9617,-1.8178,-1.8008,-1.7891,-1.7584,-1.7598,-1.748,-1.7187,-1.7168,-1.6973,-1.6543,-1.6523,-1.6309,-1.5889,-1.6152,-1.6152,-1.5889,-1.6152,-1.616,-1.5961,-1.57,-1.4866,-3.8802,-3.9334,-3.9377,-3.8193,-3.711,-3.596,-3.4438,-3.3491,-3.2645,-3.1427,-3.119,-3.119,-3.119,-3.0192,-2.9671,-3.0488,-3.0063,-3.0043,0.0,0.0,0.0,-3.3754,0.0,0.0,0.0,-3.5519,-3.522,-3.4563,-3.4114,-3.3455,-3.2557,-3.2079,-3.175,-3.1511,-3.1511,-3.1511,-3.1511,-3.1511,-3.1511,-3.1511,-3.1511,-3.1511,-3.1511,-3.1511,-3.1511,-3.1511,-3.1511,-3.1511,0.0,-3.1511,-3.1511,-3.1511,-3.1511,-3.1307,-3.0866,-2.9504,-2.878,-2.8217,-2.6261,-2.5385,-2.5034,-2.4481,-2.3929,-2.3396,-2.317,-2.3095,-2.3095,-2.3095,-2.3095,-2.3095,-2.3095,-2.3095,-2.3246,-2.3853,-2.4004,-2.4004,-2.4004,-2.4004,-2.3828,-2.3221,-2.3095,-2.3095,-2.3095,-2.3095,-2.3095,-2.3095,-2.3095,-2.2616,-2.1259,-2.0814,-2.0042,-1.863,-1.8212,-1.8008,-1.8008,-1.8008,-1.7891,-1.7637,-1.7617,-1.7422,-1.696,-1.6941,-1.6777,-1.6328,-1.6551,-1.6602,-1.6309,-1.6758,-1.6798,-1.6466,-1.626,-1.567,0.0,-3.8633,-3.8497,-3.7753,-3.6479,-3.5059,-3.366,-3.2747,0.0,-3.1258,-3.1089,-3.1055,-3.1117,-3.0138,-2.9384,-2.953,-2.9612,-3.0073,0.0,-3.2108,0.0,0.0,-3.4563,0.0,-3.5459,-3.5519,-3.525,-3.4623,-3.4503,-3.3873,-3.2647,-3.2497,-3.2138,-3.154,-3.1511,-3.1511,-3.1511,-3.1511,-3.1511,-3.1511,-3.1511,-3.1511,-3.1511,-3.1511,-3.1511,0.0,-3.1511,-3.1511,-3.1511,-3.1511,-3.1511,-3.1511,-3.1511,-3.0984,-3.0208,-2.9317,-2.846,-2.7492,-2.6138,-2.5636,-2.5511,-2.4933,-2.4431,-2.3879,-2.3271,-2.3095,-2.3095,-2.3095,-2.3095,-2.3095,-2.3095,-2.3095,-2.3246,-2.3853,-2.4004,-2.4004,-2.4004,-2.4004,-2.3828,-2.3221,-2.3095,-2.3095,-2.3095,-2.3145,-2.3145,-2.312,-2.3145,-2.2873,-2.2002,-2.1132,-2.0268,-1.9408,-1.8529,-1.8008,-1.8008,-1.8008,-1.8008,-1.8008,-1.8008,-1.7832,-1.7441,-1.7422,-1.7227,-1.6746,-1.6746,-1.6765,-1.6785,-1.7227,-1.7422,-1.7441,-1.6927,-1.6662,-3.437,0.0,-3.5385,-3.4641,-3.4201,-3.3694,0.0,-3.1989,-3.1258,-3.0514,-2.9905,-2.9705,-3.0299,-2.9394,-2.9076,-3.066,-3.0586,-3.0582,-3.1391,-3.2497,0.0,-3.51,-3.525,-3.534,-3.5489,-3.5519,-3.5429,-3.528,-3.4292,-3.3604,-3.3275,-3.2288,-3.166,-3.1511,-3.1511,-3.1511,-3.1511,-3.1511,-3.1511,-3.1511,-3.1511,-3.1511,-3.1511,-3.1511,-3.1511,-3.1511,-3.1511,-3.1511,-3.1511,-3.1511,-3.1511,-3.1511,-3.1511,-3.0984,-3.0208,-2.9317,-2.846,-2.7544,-2.6629,-2.5996,-2.5435,-2.4506,-2.4104,-2.3879,-2.3271,-2.3095,-2.3095,-2.3095,-2.3095,-2.3095,-2.3095,-2.3095,-2.3246,-2.3853,-2.4004,-2.4004,-2.4004,-2.4004,-2.3828,-2.3221,-2.3095,-2.3095,-2.3095,-2.3471,-2.3653,-2.317,-2.3471,-2.3319,-2.2049,-2.1132,-2.0268,-1.9408,-1.8529,-1.8008,-1.8008,-1.8008,-1.8008,-1.8008,-1.8008,-1.7969,-1.7871,-1.7871,-1.7656,-1.7246,-1.7227,-1.7383,-1.7681,-1.7812,-1.7871,-1.7871,-1.7711,-1.7285,-3.2273,-3.3423,-3.4303,-3.3592,-3.3423,-3.322,-3.2462,-3.1461,-3.0581,-3.0176,0.0,-2.9237,-3.0016,-2.9393,-2.9234,-3.0703,-3.0941,-3.142,0.0,0.0,-3.4681,-3.5429,-3.5519,-3.5519,0.0,-3.5519,-3.5519,-3.5519,-3.4532,-3.3814,-3.3514,-3.2497,-3.1809,-3.1511,-3.1511,-3.1511,-3.1511,-3.1511,-3.1511,-3.1511,-3.1511,-3.1511,-3.1511,-3.1511,-3.1511,-3.1511,-3.1511,-3.1511,-3.1511,-3.1511,-3.1511,-3.1482,-3.1102,-3.0419,-2.9597,-2.8716,-2.7868,-2.7095,-2.6645,-2.6298,-2.5812,-2.4732,-2.4381,-2.423,-2.3371,-2.3095,-2.3095,-2.3095,-2.3095,-2.3095,-2.3095,-2.3095,-2.317,-2.3496,-2.3602,-2.3602,-2.3602,-2.3602,-2.3471,-2.317,-2.3095,-2.3095,-2.3095,-2.3371,-2.3577,-2.3521,-2.3803,-2.3723,-2.2965,-2.1734,-2.0674,-1.9966,-1.8744,-1.8008,-1.8008,-1.8008,-1.8008,-1.8008,-1.8008,-1.8008,-1.8008,-1.8008,-1.791,-1.7676,-1.7676,-1.7773,-1.8008,-1.8008,-1.8008,-1.8008,-1.8008,-1.7716,-3.1461,-3.2882,-3.4134,-3.3288,-3.3152,-3.3051,-3.2293,0.0,0.0,0.0,0.0,0.0,-2.9861,-2.9686,0.0,-3.0425,0.0,0.0,-3.4234,-3.4981,-3.54,-3.5489,-3.5519,0.0,-3.5519,-3.5519,-3.5459,-3.537,-3.4711,-3.4023,-3.3395,-3.2706,-3.2079,-3.1511,-3.1511,-3.1511,-3.1511,-3.1511,-3.1511,-3.1511,-3.1511,-3.1511,-3.1511,-3.1511,-3.1511,-3.1511,-3.1511,0.0,-3.1511,-3.1511,-3.1511,-3.1424,-3.0628,-2.9752,-2.8907,-2.8032,-2.7196,-2.6499,-2.6499,-2.6499,-2.6323,-2.5184,-2.48,-2.4575,-2.3446,-2.3095,-2.3095,-2.3095,-2.3095,-2.3095,-2.3095,-2.3095,-2.3095,-2.3095,-2.3095,-2.3095,-2.3095,-2.3095,-2.3095,-2.3095,-2.3095,-2.3095,-2.3095,-2.317,-2.3396,-2.3929,-2.4079,-2.4104,-2.4004,-2.2598,-2.1325,-2.0667,-1.9177,-1.8144,-1.8008,-1.8008,-1.8008,-1.8008,-1.8008,-1.8008,-1.8008,-1.8008,-1.8008,-1.8008,-1.8008,-1.8008,-1.8008,-1.8008,-1.8008,-1.8008,-1.8008,-1.8008,-3.2713,-3.3322,-3.3254,-3.1867,-3.2002,-3.2293,-3.1529,-3.0717,0.0,0.0,0.0,0.0,0.0,-2.9785,-3.0357,0.0,0.0,-3.2856,0.0,0.0,-3.4861,-3.5429,0.0,-3.5519,-3.5519,-3.5519,-3.525,-3.4713,-3.4023,-3.3365,-3.2706,-3.2019,-3.16,-3.1511,-3.1511,-3.1511,-3.1511,-3.1511,-3.1511,-3.1511,-3.1511,-3.1511,-3.1511,-3.1511,-3.1511,-3.1511,0.0,-3.1511,-3.1511,-3.1511,-3.1511,-3.1424,-3.0628,-2.9752,-2.8907,-2.8032,-2.7196,-2.6499,-2.6499,-2.6499,-2.6323,-2.5184,-2.48,-2.4575,-2.3446,-2.3095,-2.3095,-2.3095,-2.3095,-2.3095,-2.3095,-2.3095,-2.3095,-2.3095,-2.3095,-2.3095,-2.3095,-2.3095,-2.3095,-2.3095,-2.3095,-2.3095,-2.3095,-2.3521,-2.3904,-2.3979,-2.4406,-2.4531,-2.4054,-2.3135,-2.1999,-2.0732,-1.9683,-1.8811,-1.8076,-1.8008,-1.8008,-1.8008,-1.8008,-1.8008,-1.8008,-1.8008,-1.8008,-1.8008,-1.8008,-1.8008,-1.8008,-1.8008,-1.8008,-1.8008,-1.8008,-1.8008,-3.2036,-3.251,-3.2645,-3.1955,-3.2666,-3.341,-3.3051,-3.2104,0.0,0.0,0.0,0.0,0.0,0.0,-3.1314,-3.2886,0.0,-3.3903,-3.4891,-3.504,-3.516,0.0,0.0,-3.5519,-3.5519,-3.5519,-3.522,-3.4563,-3.3873,-3.3215,-3.2557,-3.1869,-3.1511,-3.1511,-3.1511,-3.1511,-3.1511,-3.1511,-3.1511,-3.1511,-3.1511,-3.1511,-3.1511,-3.1511,-3.1511,-3.1511,0.0,-3.1511,-3.1511,-3.1511,-3.1511,-3.1365,-3.0117,-2.9348,-2.8844,-2.7537,-2.6816,-2.6499,-2.6499,-2.6499,-2.6323,-2.5184,-2.48,-2.4575,-2.3446,-2.3095,-2.3095,-2.3095,-2.3095,-2.3095,-2.3095,-2.3095,-2.3095,-2.3095,-2.3095,-2.3095,-2.3095,-2.3095,-2.3095,-2.3095,-2.3095,-2.3095,-2.3095,-2.3321,-2.3627,-2.3954,-2.4205,-2.428,-2.4029,-2.3474,-2.2582,-2.1104,-2.0202,-1.9452,-1.8742,-1.8281,-1.8008,-1.8008,-1.8008,-1.8008,-1.8008,-1.8008,-1.8008,-1.8008,-1.8008,-1.8008,-1.8008,-1.8008,-1.8008,-1.8008,-1.8008,-1.8008,-3.1562,-3.1887,-3.2158,-3.2699,-3.341,-3.4087,-3.4404,-3.3351,-3.2362,0.0,0.0,0.0,0.0,-3.1836,0.0,-3.4446,-3.4711,-3.4891,-3.5429,-3.5519,-3.5519,-3.5519,-3.5519,-3.5519,-3.5519,-3.537,-3.4981,-3.4324,-3.3634,-3.2976,-3.2288,-3.178,-3.1511,-3.1511,-3.1511,-3.1511,-3.1511,-3.1511,-3.1511,-3.1511,-3.1511,-3.1511,-3.1511,-3.1511,-3.1511,-3.1511,-3.1511,-3.1511,-3.1511,-3.1511,-3.1511,-3.1307,-2.9659,-2.8748,-2.8266,-2.696,-2.6499,-2.6499,-2.6499,-2.6499,-2.6323,-2.5335,-2.4901,-2.46,-2.3597,-2.3221,-2.3095,-2.3095,-2.3095,-2.3095,-2.3095,-2.3095,-2.3095,-2.3095,-2.3095,-2.3095,-2.3095,-2.3095,-2.3095,-2.3095,-2.3221,-2.3271,-2.312,-2.3221,-2.3496,-2.4104,-2.418,-2.423,-2.4356,-2.4157,-2.3333,-2.1565,-2.088,-2.0184,-1.9229,-1.8535,-1.8105,-1.8008,-1.8008,-1.8008,-1.8008,-1.8008,-1.8008,-1.8008,-1.8008,-1.8008,-1.8008,-1.8008,-1.8008,-1.8008,-1.8008,-1.8008,-3.2679,-3.2273,-3.1765,-3.3829,-3.341,-3.2835,-3.4167,-3.3351,0.0,-3.3337,0.0,0.0,0.0,-3.3457,-3.4535,-3.531,-3.5429,-3.5459,-3.5489,0.0,-3.5519,-3.5519,-3.5519,-3.5519,-3.5519,-3.4921,-3.4294,-3.3604,-3.2946,-3.2258,-3.16,-3.154,-3.1511,-3.1511,-3.1511,-3.1511,-3.1511,-3.1511,-3.1511,-3.1511,-3.1511,-3.1511,-3.1511,-3.1511,-3.1511,-3.1511,-3.1511,-3.1511,-3.1511,-3.1511,-3.1511,-3.1307,-2.9659,-2.8038,-2.6679,-2.6533,-2.6499,-2.6499,-2.6499,-2.6499,-2.6399,-2.5737,-2.5209,-2.4675,-2.413,-2.3521,-2.3095,-2.3095,-2.3095,-2.3095,-2.3095,-2.3095,-2.3095,-2.3095,-2.3095,-2.3095,-2.3095,-2.3095,-2.3095,-2.3095,-2.3547,-2.3778,-2.3195,-2.3547,-2.413,-2.465,-2.4725,-2.4933,-2.541,-2.5477,-2.4554,-2.2196,-2.1877,-2.0999,-1.8817,-1.8598,-1.8383,-1.8027,-1.8008,-1.8008,-1.8008,-1.8008,-1.8008,-1.8008,-1.8008,-1.8008,-1.8008,-1.8008,-1.8008,-1.8008,-1.8008,-1.8008,-3.1103,-3.1292,-3.1495,-3.2801,-3.2744,0.0,0.0,-3.4112,-3.3931,-3.4691,-3.4423,0.0,0.0,0.0,-3.4743,-3.54,-3.5519,-3.5519,-3.5519,-3.5519,-3.5519,-3.5519,-3.513,-3.4861,-3.4861,-3.4262,-3.3604,-3.2946,-3.2647,-3.2198,-3.154,-3.1511,-3.1511,-3.1511,-3.1511,-3.1511,-3.1511,-3.1511,-3.1511,-3.1511,-3.1511,-3.1511,-3.1511,-3.1511,-3.1511,-3.1511,-3.1511,-3.1511,-3.1511,-3.1511,-3.1511,-3.1307,-2.9659,-2.7999,-2.6499,-2.6499,-2.6499,-2.6499,-2.6499,-2.6499,-2.6399,-2.5787,-2.546,-2.5209,-2.4682,-2.413,-2.3678,-2.3678,-2.3371,-2.3095,-2.3095,-2.3095,-2.3095,-2.3095,-2.3095,-2.3095,-2.3095,-2.3095,-2.3095,-2.3095,-2.3271,-2.3371,-2.3145,-2.3296,-2.3622,-2.423,-2.4305,-2.4506,-2.5034,-2.5385,-2.5019,-2.3512,-2.255,-2.1219,-1.921,-1.9043,-1.8867,-1.8383,-1.8144,-1.8008,-1.8008,-1.8008,-1.8008,-1.8008,-1.8008,-1.8008,-1.8008,-1.8008,-1.8008,-1.8008,-1.8008,-1.8008,-3.0108,-3.048,-3.1016,-3.1778,0.0,0.0,-3.3878,-3.4197,-3.4541,-3.5679,-3.5324,-3.4821,-3.4838,0.0,0.0,0.0,-3.537,-3.534,-3.4921,-3.504,-3.51,-3.4891,-3.4442,-3.4173,-3.4173,-3.3574,-3.3006,-3.2527,-3.2288,-3.1989,-3.154,-3.1511,-3.1511,-3.1511,-3.1511,-3.1511,-3.1511,-3.1511,-3.1511,-3.1511,-3.1511,-3.1511,-3.1511,-3.1511,-3.1511,-3.1511,-3.1511,-3.1511,-3.1511,-3.1511,-3.119,-3.0569,-2.9129,-2.7736,-2.6499,-2.6499,-2.6499,-2.6499,-2.6499,-2.6499,-2.6424,-2.6021,-2.5737,-2.5536,-2.5184,-2.4682,-2.423,-2.4054,-2.3703,-2.3346,-2.3145,-2.3095,-2.3095,-2.3095,-2.3095,-2.3095,-2.3095,-2.3095,-2.3095,-2.3095,-2.3246,-2.3371,-2.3371,-2.3371,-2.3622,-2.4381,-2.423,-2.4255,-2.4983,-2.5385,-2.5167,-2.4097,-2.2791,-2.1312,-1.9625,-1.9355,-1.9102,-1.8637,-1.8208,-1.8008,-1.8008,-1.8008,-1.8008,-1.8008,-1.8008,-1.8008,-1.8008,-1.8008,-1.8008,-1.8008,-1.8008,-1.8008,-3.0108,-3.0089,-3.0292,-3.1099,0.0,0.0,-3.3256,-3.3424,-3.4039,-3.6166,-3.6006,-3.5519,-3.5519,-3.5489,0.0,-3.4623,-3.504,-3.5011,-3.3694,-3.4053,-3.4233,-3.3574,-3.3484,-3.3484,-3.3484,-3.2886,-3.2497,-3.2497,-3.1869,-3.1511,-3.1511,-3.1511,-3.1511,-3.1511,-3.1511,-3.1511,-3.1511,-3.1511,-3.1511,-3.1511,-3.1511,-3.1511,-3.1511,-3.1511,-3.1511,-3.1511,-3.1511,-3.1511,-3.1511,-3.1511,-3.051,-2.8907,-2.8038,-2.7196,-2.6499,-2.6499,-2.6499,-2.6499,-2.6499,-2.6499,-2.6499,-2.6499,-2.6097,-2.5611,-2.5586,-2.5234,-2.4675,-2.4155,-2.4004,-2.3853,-2.3246,-2.3095,-2.3095,-2.3095,-2.3095,-2.3095,-2.3095,-2.3095,-2.3095,-2.3095,-2.3572,-2.3979,-2.4004,-2.4004,-2.4356,-2.5435,-2.4682,-2.4381,-2.546,-2.5611,-2.5076,-2.3641,-2.2616,-2.1436,-2.0017,-1.9531,-1.9102,-1.8637,-1.8208,-1.8008,-1.8008,-1.8008,-1.8008,-1.8008,-1.8008,-1.8008,-1.8008,-1.8008,-1.8008,-1.8008,-1.8008,-1.8008,-2.9465,-2.9403,0.0,-3.1594,0.0,0.0,0.0,-3.4515,0.0,0.0,-3.5651,-3.5519,-3.5519,-3.51,0.0,-3.4533,-3.4262,-3.3963,-3.3544,-3.3664,-3.3724,-3.3514,-3.3095,-3.2796,-3.2796,-3.2168,-3.1809,-3.1809,-3.16,-3.1511,-3.1511,-3.1511,-3.1511,-3.1511,-3.1511,-3.1511,-3.1511,-3.1511,-3.1511,-3.1511,-3.1511,-3.1511,-3.1511,-3.1511,-3.1511,-3.1511,-3.1511,-3.1511,-3.1482,-3.0896,-3.0025,-2.8907,-2.8038,-2.7196,-2.6499,-2.6499,-2.6499,-2.6499,-2.6499,-2.6499,-2.6499,-2.6499,-2.6373,-2.6172,-2.5711,-2.5234,-2.4675,-2.4155,-2.3703,-2.3321,-2.3145,-2.3095,-2.3095,-2.3095,-2.3095,-2.3095,-2.3095,-2.3095,-2.3095,-2.3095,-2.3246,-2.3496,-2.3929,-2.3653,-2.3904,-2.5385,-2.4682,-2.4381,-2.546,-2.5996,-2.5526,-2.3686,-2.2994,-2.1895,-2.0072,-1.9221,-1.8734,-1.8617,-1.8208,-1.8008,-1.8008,-1.8008,-1.8008,-1.8008,-1.8008,-1.8008,-1.8008,-1.8008,-1.8008,-1.8008,-1.8008,-1.8008,-3.0262,-3.0189,0.0,-3.2308,-3.2849,-3.3298,-3.4759,0.0,0.0,0.0,-3.51,-3.5011,-3.4741,-3.4382,0.0,-3.3754,-3.3574,-3.3305,-3.2796,-3.2946,-3.3006,-3.2736,-3.2348,-3.2079,-3.2079,-3.175,-3.1511,-3.1511,-3.1511,-3.1511,-3.1511,-3.1511,-3.1511,-3.1511,-3.1511,-3.1511,-3.1511,-3.1511,-3.1511,-3.1511,-3.1511,-3.1511,-3.1511,-3.1511,-3.1511,-3.1511,-3.1511,-3.1511,-3.1424,-3.0269,-2.9473,-2.8876,-2.7703,-2.6952,-2.6499,-2.6499,-2.6499,-2.6499,-2.6499,-2.6499,-2.6499,-2.6499,-2.6499,-2.6424,-2.6072,-2.5561,-2.5008,-2.4481,-2.3904,-2.3396,-2.317,-2.3095,-2.3095,-2.3095,-2.3095,-2.3095,-2.3095,-2.3095,-2.3095,-2.3095,-2.3296,-2.3572,-2.3929,-2.3703,-2.3847,-2.5109,-2.4556,-2.423,-2.4883,-2.546,-2.5086,-2.3099,-2.2889,-2.2006,-1.9853,-1.9007,-1.8598,-1.8598,-1.8208,-1.8008,-1.8008,-1.8008,-1.8008,-1.8008,-1.8008,-1.8008,-1.8008,-1.8008,-1.8008,-1.8008,-1.8008,-1.8008,-3.1739,-3.172,-3.1675,-3.3131,-3.3525,0.0,-3.4359,-3.4921,-3.513,-3.4533,0.0,-3.4234,-3.3604,-3.3455,-3.3215,-3.2617,-3.2976,-3.2886,-3.166,-3.2019,-3.2168,-3.157,-3.1511,-3.1511,-3.1511,-3.1511,-3.1511,-3.1511,-3.1511,-3.1511,-3.1511,-3.1511,-3.1511,-3.1511,-3.1511,-3.1511,-3.1511,-3.1511,-3.1511,-3.1511,-3.1511,-3.1511,-3.1511,-3.1511,-3.1511,-3.1511,-3.1511,-3.1511,-3.1365,-2.969,-2.9002,-2.8844,-2.7162,-2.6499,-2.6499,-2.6499,-2.6499,-2.6499,-2.6499,-2.6499,-2.6499,-2.6499,-2.6499,-2.6474,-2.6424,-2.6021,-2.541,-2.4883,-2.4356,-2.3803,-2.3246,-2.3095,-2.3095,-2.3095,-2.3095,-2.3095,-2.3095,-2.3095,-2.312,-2.317,-2.3627,-2.4029,-2.4054,-2.4029,-2.4155,-2.4575,-2.433,-2.4054,-2.4004,-2.4531,-2.4181,-2.2321,-2.2555,-2.1903,-1.9548,-1.8864,-1.8539,-1.8539,-1.8188,-1.8008,-1.8008,-1.8008,-1.8008,-1.8008,-1.8008,-1.8008,-1.8008,-1.8008,-1.8008,-1.8008,-1.8008,-1.8008,-3.0705,-3.1032,0.0,0.0,-3.3842,-3.4299,-3.4475,-3.4173,-3.3873,-3.3724,-3.3694,-3.3664,-3.3514,-3.3066,-3.2677,-3.2497,-3.2168,-3.1839,-3.154,-3.163,-3.166,-3.1511,-3.1511,-3.1511,-3.1511,-3.1511,-3.1511,-3.1511,-3.1511,-3.1511,-3.1511,-3.1511,-3.1511,-3.1511,-3.1511,-3.1511,-3.1511,-3.1511,-3.1511,-3.1511,-3.1511,-3.1511,-3.1511,-3.1511,-3.1511,-3.1511,-3.1511,-3.1511,-3.1365,-2.969,-2.9002,-2.8844,-2.7162,-2.6499,-2.6499,-2.6499,-2.6499,-2.6499,-2.6499,-2.6499,-2.6499,-2.6499,-2.6499,-2.6399,-2.5946,-2.541,-2.485,-2.433,-2.3753,-2.3271,-2.3145,-2.3095,-2.3095,-2.3095,-2.3095,-2.3095,-2.3095,-2.3095,-2.3246,-2.3728,-2.3904,-2.413,-2.4582,-2.428,-2.3879,-2.3521,-2.4123,-2.4481,-2.4054,-2.4833,-2.4805,-2.3179,-2.264,-2.1645,-1.9927,-1.876,-1.8144,-1.8144,-1.8066,-1.8008,-1.8008,-1.8008,-1.8008,-1.8008,-1.8008,-1.8008,-1.8008,-1.8008,-1.8008,-1.8008,-1.8008,-1.8008,-3.1445,0.0,0.0,-3.3594,0.0,-3.3993,-3.3993,-3.3245,-3.2557,-3.2557,-3.2796,-3.2916,-3.2617,-3.2258,-3.2019,-3.2019,-3.172,-3.1511,-3.1511,-3.1511,-3.1511,-3.1511,-3.1511,-3.1511,-3.1511,-3.1511,-3.1511,-3.1511,-3.1511,-3.1511,-3.1511,-3.1511,-3.1511,-3.1511,-3.1511,-3.1511,-3.1511,-3.1511,-3.1511,-3.1511,-3.1511,-3.1511,-3.1511,-3.1511,-3.1511,-3.1511,-3.1511,-3.1511,-3.1365,-2.969,-2.9002,-2.8844,-2.7162,-2.6499,-2.6499,-2.6499,-2.6499,-2.6499,-2.6499,-2.6499,-2.6499,-2.6499,-2.6499,-2.6424,-2.6122,-2.546,-2.4775,-2.4782,-2.418,-2.3572,-2.3847,-2.3923,-2.3923,-2.3923,-2.3722,-2.3446,-2.317,-2.3321,-2.3627,-2.3929,-2.4004,-2.4079,-2.4381,-2.3954,-2.3446,-2.3145,-2.3597,-2.3973,-2.4004,-2.4481,-2.4384,-2.3156,-2.2315,-2.124,-1.9721,-1.8616,-1.8008,-1.8008,-1.8008,-1.8008,-1.8008,-1.8008,-1.8008,-1.8008,-1.8008,-1.8008,-1.8008,-1.8169,-1.8286,-1.8286,-1.8516,-1.8516,-3.2015,0.0,-3.2671,-3.4304,-3.4056,0.0,-3.3484,-3.2437,-3.1511,-3.1511,-3.1929,-3.2138,-3.16,-3.1511,-3.1511,-3.1511,-3.1511,-3.1511,-3.1511,-3.1511,-3.1511,-3.1511,-3.1511,-3.1511,-3.1511,-3.1511,-3.1511,-3.1511,-3.1511,-3.1511,-3.1511,-3.1511,-3.1511,-3.1511,-3.1511,-3.1511,-3.1511,-3.1511,-3.1511,-3.1511,-3.1511,-3.1511,-3.1511,-3.1511,-3.1511,-3.1511,-3.1511,-3.1511,-3.1365,-2.9844,-2.9223,-2.9066,-2.7537,-2.685,-2.6714,-2.6714,-2.6611,-2.6499,-2.6499,-2.6499,-2.6499,-2.6499,-2.6499,-2.6499,-2.6499,-2.5762,-2.5034,-2.5485,-2.4883,-2.4255,-2.4675,-2.48,-2.48,-2.48,-2.4531,-2.413,-2.3521,-2.3803,-2.418,-2.4255,-2.428,-2.428,-2.428,-2.3697,-2.3246,-2.3246,-2.3246,-2.3421,-2.3929,-2.4155,-2.3927,-2.3007,-2.2246,-2.1152,-1.9648,-1.8731,-1.8178,-1.8008,-1.8008,-1.8008,-1.8008,-1.8008,-1.8008,-1.8008,-1.8008,-1.8047,-1.8091,-1.8422,-1.8637,-1.8715,-1.9121,-1.9102,-2.9661,0.0,-3.2807,0.0,-3.4425,-3.3484,0.0,0.0,-3.1511,0.0,-3.157,-3.16,-3.1511,-3.1511,-3.1511,-3.1511,-3.1511,-3.1511,-3.1511,-3.1511,-3.1511,-3.1511,-3.1511,-3.1511,-3.1511,-3.1511,-3.1511,-3.1511,-3.1511,-3.1511,-3.1511,-3.1511,-3.1511,-3.1511,-3.1511,-3.1511,-3.1511,-3.1511,-3.1511,-3.1511,-3.1511,-3.1511,-3.1511,-3.1511,-3.1511,-3.1511,-3.1511,-3.1511,-3.1453,-3.051,-3.0147,-3.0056,-2.9066,-2.8201,-2.7537,-2.7537,-2.7095,-2.6499,-2.6499,-2.6499,-2.6499,-2.6499,-2.6499,-2.6499,-2.6499,-2.6047,-2.5511,-2.5586,-2.5159,-2.47,-2.4775,-2.48,-2.48,-2.48,-2.5109,-2.5234,-2.4675,-2.4625,-2.4833,-2.5285,-2.5385,-2.5385,-2.5385,-2.4556,-2.3879,-2.3879,-2.3879,-2.3904,-2.3979,-2.4808,-2.5001,-2.3922,-2.3482,-2.2465,-2.0583,-1.9617,-1.8811,-1.8042,-1.8008,-1.8008,-1.8008,-1.8008,-1.8008,-1.8008,-1.8008,-1.8184,-1.852,-1.8578,-1.8792,-1.9199,-1.9258,-1.9258,-3.099,-3.249,-3.3969,0.0,-3.5093,-3.3939,-3.3576,-3.2766,-3.1959,-3.157,-3.1511,-3.1511,-3.1511,-3.1511,-3.1511,-3.1511,-3.1511,-3.1511,-3.1511,-3.1511,-3.1511,-3.1511,-3.1511,-3.1511,-3.1511,-3.1511,-3.1511,-3.1511,-3.1511,-3.1511,-3.1511,-3.1511,-3.1511,-3.1511,-3.1511,-3.1511,-3.1511,-3.1511,-3.1511,-3.1511,-3.1511,-3.1511,-3.1511,-3.1511,-3.1511,-3.1511,-3.1511,-3.1511,-3.1453,-3.0628,-3.0299,-3.0208,-2.9348,-2.846,-2.7703,-2.7703,-2.7196,-2.6499,-2.6499,-2.6499,-2.6499,-2.6499,-2.6499,-2.6499,-2.6499,-2.6097,-2.5661,-2.6021,-2.5686,-2.5335,-2.5661,-2.5737,-2.5737,-2.5737,-2.5912,-2.6047,-2.5787,-2.5485,-2.5234,-2.5184,-2.5385,-2.5511,-2.5209,-2.4782,-2.4456,-2.4456,-2.4456,-2.4556,-2.4858,-2.5059,-2.5084,-2.4908,-2.4058,-2.2934,-2.1509,-2.0611,-1.9741,-1.8801,-1.8496,-1.8325,-1.8325,-1.8144,-1.8008,-1.8008,-1.8008,-1.8223,-1.8598,-1.8851,-1.9219,-1.9648,-1.992,-1.9863,-3.1878,-3.3241,-3.4023,-3.5634,-3.5262,-3.4354,0.0,0.0,-3.2617,0.0,-3.1869,-3.175,-3.175,-3.16,-3.1511,-3.1511,-3.1511,-3.1511,-3.1511,-3.1511,-3.1511,-3.1511,-3.1511,-3.1511,-3.1511,-3.1511,-3.1511,-3.1511,-3.1511,-3.1511,-3.1511,-3.1511,-3.1511,-3.1511,-3.1511,-3.1511,-3.1511,-3.1511,-3.1511,-3.1511,-3.1511,-3.1511,-3.1511,-3.1511,-3.1511,-3.1511,-3.1511,-3.1511,-3.1453,-3.0837,-3.0628,-3.0539,-2.9875,-2.8971,-2.8005,-2.8005,-2.7397,-2.6499,-2.6499,-2.6499,-2.6499,-2.6499,-2.6499,-2.6499,-2.6499,-2.6197,-2.5912,-2.6373,-2.6172,-2.5912,-2.6373,-2.6499,-2.6499,-2.6499,-2.6499,-2.6499,-2.6499,-2.6147,-2.5711,-2.531,-2.5561,-2.5686,-2.531,-2.5109,-2.4976,-2.4976,-2.4976,-2.5159,-2.5536,-2.5385,-2.5335,-2.5561,-2.4648,-2.3599,-2.2457,-2.1598,-2.0709,-1.9749,-1.9128,-1.8773,-1.8773,-1.8398,-1.813,-1.813,-1.8066,-1.8281,-1.8773,-1.9121,-1.957,-2.0078,-2.0449,-2.0391,-3.0475,-3.1299,-3.1801,-3.3968,-3.4516,0.0,0.0,0.0,-3.3425,-3.3395,-3.2886,-3.2437,-3.2437,-3.1929,-3.1511,-3.1511,-3.1511,-3.1511,-3.1511,-3.1511,-3.1511,-3.1511,-3.1511,-3.1511,-3.1511,-3.1511,-3.1511,-3.1511,-3.1511,-3.1511,-3.1511,-3.1511,-3.1511,-3.1511,-3.1511,-3.1511,-3.1511,-3.1511,-3.1511,-3.1511,-3.1511,-3.1511,-3.1511,-3.1511,-3.1511,-3.1511,-3.1511,-3.1511,-3.1511,-3.1453,-3.1453,-3.1453,-3.1365,-3.0359,-2.8939,-2.8939,-2.7901,-2.6499,-2.6499,-2.6499,-2.6499,-2.6499,-2.6499,-2.6499,-2.6499,-2.6474,-2.6449,-2.6474,-2.6474,-2.6449,-2.6474,-2.6499,-2.6499,-2.6499,-2.6499,-2.6499,-2.6499,-2.6474,-2.6449,-2.6424,-2.6424,-2.6449,-2.6424,-2.5946,-2.5561,-2.5561,-2.5561,-2.5561,-2.5586,-2.6097,-2.6197,-2.5661,-2.5528,-2.4937,-2.3537,-2.2525,-2.1598,-2.0744,-1.9781,-1.9258,-1.9258,-1.8828,-1.8559,-1.8559,-1.8188,-1.8418,-1.9258,-1.9277,-1.9764,-2.0566,-2.0586,-2.0586,-3.0074,-3.118,0.0,-3.3445,-3.4116,-3.4332,-3.3899,-3.397,-3.3993,-3.3574,-3.3305,-3.3155,-3.3155,-3.2228,-3.1511,-3.1511,-3.1511,-3.1511,-3.1511,-3.1511,-3.1511,-3.1511,-3.1511,-3.1511,-3.1511,-3.1511,-3.1511,-3.1511,-3.1511,-3.1511,-3.1511,-3.1511,-3.1511,-3.1511,-3.1511,-3.1511,-3.1511,-3.1511,-3.1511,-3.1511,-3.1511,-3.1511,-3.1481,-3.1032,-3.1092,-3.1481,-3.1032,-3.1092,-3.1511,-3.1511,-3.119,-3.0777,-3.1307,-3.0147,-2.8233,-2.878,-2.7966,-2.6499,-2.6499,-2.6499,-2.6499,-2.6499,-2.6499,-2.6499,-2.6499,-2.6499,-2.6499,-2.6499,-2.6499,-2.6499,-2.6499,-2.6499,-2.6499,-2.6499,-2.6499,-2.6499,-2.6499,-2.6499,-2.6499,-2.6499,-2.6499,-2.6499,-2.6499,-2.6323,-2.6172,-2.6172,-2.6172,-2.6172,-2.6172,-2.6373,-2.6424,-2.6197,-2.6172,-2.5723,-2.4574,-2.3522,-2.2556,-2.1629,-2.0383,-1.9687,-1.9687,-1.9277,-1.8926,-1.8617,-1.8461,-1.8711,-1.9297,-1.9297,-1.9764,-2.0605,-2.0605,-2.0605,-2.9176,-3.0412,0.0,0.0,0.0,-3.3467,-3.371,-3.397,-3.4114,-3.3873,-3.3814,-3.3814,-3.3814,-3.2916,-3.2079,-3.1869,-3.1839,-3.175,-3.154,-3.1511,-3.1511,-3.1511,-3.1511,-3.1511,-3.1511,-3.1511,-3.1511,-3.1511,-3.1511,-3.1511,-3.1511,-3.1511,-3.1511,-3.1511,-3.1511,-3.1511,-3.1511,-3.1511,-3.1511,-3.1511,-3.1511,-3.1511,-3.1481,-3.1032,-3.1062,-3.1481,-3.1032,-3.1092,-3.1511,-3.1511,-3.119,-3.0777,-3.1278,-3.0117,-2.8201,-2.878,-2.7966,-2.6499,-2.6499,-2.6499,-2.6499,-2.6499,-2.6499,-2.6499,-2.6499,-2.6499,-2.6499,-2.6499,-2.6499,-2.6499,-2.6499,-2.6499,-2.6499,-2.6499,-2.6499,-2.6499,-2.6499,-2.6499,-2.6499,-2.6499,-2.6499,-2.6499,-2.6499,-2.6499,-2.6499,-2.6499,-2.6499,-2.6499,-2.6499,-2.6499,-2.6499,-2.6499,-2.6499,-2.6233,-2.5546,-2.46,-2.3562,-2.2579,-2.1316,-2.0458,-2.0137,-1.9727,-1.9355,-1.9026,-1.8754,-1.8812,-1.9297,-1.9297,-1.9648,-2.0352,-2.0527,-2.0605,0.0,0.0,0.0,0.0,0.0,0.0,-3.391,0.0,-3.3604,-3.4324,-3.4474,-3.4503,-3.4533,-3.3993,-3.3335,-3.2677,-3.2527,-3.2258,-3.163,-3.1511,-3.1511,-3.1511,-3.1511,-3.1511,-3.1511,-3.1511,-3.1511,-3.1511,-3.1511,-3.1511,-3.1511,-3.1511,-3.1511,-3.1511,-3.1511,-3.1511,-3.1511,-3.1511,-3.1511,-3.1511,-3.1511,-3.1511,-3.1511,-3.1481,-3.1481,-3.1511,-3.1481,-3.1481,-3.1511,-3.1511,-3.1511,-3.1482,-3.1482,-3.0419,-2.8971,-2.8971,-2.7934,-2.6499,-2.6499,-2.6499,-2.6499,-2.6499,-2.6499,-2.6499,-2.6499,-2.6499,-2.6499,-2.6499,-2.6499,-2.6499,-2.6499,-2.6499,-2.6499,-2.6499,-2.6499,-2.6499,-2.6499,-2.6499,-2.6499,-2.6499,-2.6499,-2.6499,-2.6499,-2.6499,-2.6499,-2.6499,-2.6499,-2.6499,-2.6499,-2.6499,-2.6499,-2.6499,-2.6499,-2.6499,-2.6499,-2.5581,-2.4564,-2.3599,-2.2579,-2.1583,-2.0683,-2.0194,-1.9922,-1.9922,-1.9065,-1.8831,-1.9277,-1.9277,-1.9492,-1.9902,-2.037,-2.0586,-2.7165,0.0,0.0,0.0,0.0,0.0,0.0,0.0,-3.1809,-3.3425,-3.3754,-3.4053,-3.504,-3.507,-3.4741,-3.4053,-3.3125,-3.2467,-3.2228,-3.1809,-3.1511,-3.1511,-3.1511,-3.1511,-3.1511,-3.1511,-3.1511,0.0,-3.1511,-3.1511,-3.1511,-3.1511,-3.1511,-3.1511,-3.1511,-3.1511,-3.1511,-3.1511,-3.1511,-3.1511,-3.1511,-3.1511,-3.1481,-3.1002,-3.1032,-3.1481,-3.0972,-3.1032,-3.1511,-3.1511,-3.1161,-3.0628,-3.0628,-2.9566,-2.8038,-2.8038,-2.7397,-2.6499,-2.6499,-2.6499,-2.6499,-2.6499,-2.6499,-2.6499,-2.6499,-2.6499,-2.6499,-2.6499,-2.6499,-2.6499,-2.6499,-2.6499,-2.6499,-2.6499,-2.6499,-2.6499,-2.6499,-2.6499,-2.6499,-2.6499,-2.6499,-2.6499,-2.6499,-2.6499,-2.6499,-2.6499,-2.6499,-2.6499,-2.6499,-2.6499,-2.6499,-2.6499,-2.6499,-2.6499,-2.6499,-2.5581,-2.4886,-2.46,-2.2951,-2.1886,-2.1621,-2.0853,-2.0234,-1.9922,-1.965,-1.928,-1.8773,-1.8773,-1.9043,-1.9473,-1.9902,-2.0273,-2.7452,-2.8281,-2.9391,-2.9221,0.0,0.0,-3.0777,-3.0746,-3.092,0.0,-3.3305,-3.3724,-3.4532,-3.4681,-3.4622,-3.4533,-3.3604,-3.2826,-3.2557,-3.1929,-3.1511,-3.1511,-3.1511,-3.1511,-3.1511,-3.1511,-3.1511,-3.1511,-3.1511,-3.1511,-3.1511,-3.1511,-3.1511,-3.1511,-3.1511,-3.1511,-3.1511,-3.1511,-3.1511,-3.1511,-3.1511,-3.1511,-3.1481,-3.1092,-3.1122,-3.1481,-3.1092,-3.1122,-3.1511,-3.1511,-3.1014,-3.0299,-3.0299,-2.9223,-2.7703,-2.7703,-2.7196,-2.6499,-2.6499,-2.6499,-2.6499,-2.6499,-2.6499,-2.6499,-2.6499,-2.6499,-2.6499,-2.6499,-2.6499,-2.6499,-2.6499,-2.6499,-2.6499,-2.6499,-2.6499,-2.6499,-2.6499,-2.6499,-2.6499,-2.6499,-2.6499,-2.6499,-2.6499,-2.6499,-2.6499,-2.6499,-2.6499,-2.6499,-2.6499,-2.6499,-2.6499,-2.6499,-2.6499,-2.6499,-2.6499,-2.5955,-2.5441,-2.5052,-2.3891,-2.2898,-2.2038,-2.1489,-2.0891,-2.0233,-2.0,-1.959,-1.887,-1.887,-1.9043,-1.9297,-1.9727,-2.0059,-2.8331,-2.8973,-3.0224,-3.0747,-2.9588,0.0,-3.1393,-3.0974,-3.0497,0.0,-3.2617,-3.3095,-3.3245,-3.3335,-3.3544,-3.4053,-3.3784,-3.3275,-3.2706,-3.2019,-3.16,-3.1511,-3.1511,-3.1511,-3.1511,-3.1511,-3.1511,-3.1511,-3.1511,-3.1511,-3.1511,-3.1511,-3.1511,-3.1511,-3.1511,-3.1511,-3.1511,-3.1511,-3.1511,-3.1511,-3.1511,-3.1511,-3.1511,-3.1511,-3.1511,-3.1511,-3.1511,-3.1511,-3.1511,-3.1511,-3.1102,-3.0419,-3.0238,-2.9223,-2.7835,-2.7637,-2.7095,-2.6499,-2.6499,-2.6499,-2.6499,-2.6499,-2.6499,-2.6499,-2.6499,-2.6499,-2.6499,-2.6499,-2.6499,-2.6499,-2.6499,-2.6499,-2.6499,-2.6499,-2.6499,-2.6499,-2.6499,-2.6499,-2.6499,-2.6499,-2.6499,-2.6499,-2.6499,-2.6499,-2.6499,-2.6499,-2.6499,-2.6499,-2.6499,-2.6499,-2.6499,-2.6499,-2.6499,-2.6499,-2.6499,-2.6499,-2.6129,-2.5229,-2.5052,-2.4181,-2.2414,-2.2113,-2.1583,-2.0779,-2.0175,-1.9727,-1.9355,-1.9258,-1.9238,-1.9297,-1.9629,-1.9824,-2.8991,-2.9431,-3.0002,-2.9517,-2.9696,0.0,-2.9079,-2.8935,-2.9137,0.0,-3.0159,-3.0672,-3.169,-3.2318,-3.2587,-3.2138,-3.2886,-3.3455,-3.3335,-3.2736,-3.2079,-3.157,-3.1511,-3.1511,-3.1511,-3.1511,-3.1511,-3.1511,-3.1511,-3.1511,-3.1511,-3.1511,-3.1511,-3.1511,-3.1511,-3.1511,-3.1511,-3.1511,-3.1511,-3.1511,-3.1511,-3.1511,-3.1511,-3.1511,-3.1511,-3.1511,-3.1511,-3.1511,-3.1511,-3.1511,-3.1424,-3.1131,-2.9782,-2.9066,-2.8588,-2.7229,-2.6611,-2.6499,-2.6499,-2.6499,-2.6499,-2.6499,-2.6499,-2.6499,-2.6499,-2.6499,-2.6499,-2.6499,-2.6499,-2.6499,-2.6499,-2.6499,-2.6499,-2.6499,-2.6499,-2.6499,-2.6499,-2.6499,-2.6499,-2.6499,-2.6499,-2.6499,-2.6499,-2.6499,-2.6499,-2.6499,-2.6499,-2.6499,-2.6499,-2.6499,-2.6499,-2.6499,-2.6499,-2.6499,-2.6499,-2.6499,-2.643,-2.6198,-2.5441,-2.4814,-2.442,-2.284,-2.1924,-2.1735,-2.0534,-1.9883,-1.9785,-1.9065,-1.8945,-1.9277,-1.8968,-1.9221,-2.9939,-3.0074,-3.0649,-3.0668,-3.046,0.0,0.0,-2.9805,-2.9489,-2.9838,-2.973,-2.9663,-3.0008,-3.0342,-3.0672,-3.0943,-3.1869,-3.2527,-3.2527,-3.2796,-3.2886,-3.2557,-3.2527,-3.2377,-3.2019,-3.1989,-3.1869,-3.154,-3.1511,-3.1511,-3.1511,-3.1511,-3.1511,-3.1511,-3.1511,-3.1511,-3.1511,-3.1511,-3.1511,-3.1511,-3.1511,-3.1511,-3.1511,-3.1511,-3.1511,-3.1511,-3.1511,-3.1511,-3.1511,-3.1511,-3.1511,-3.1307,-2.9659,-2.8716,-2.8201,-2.6985,-2.6499,-2.6499,-2.6499,-2.6499,-2.6499,-2.6499,-2.6499,-2.6499,-2.6499,-2.6499,-2.6499,-2.6499,-2.6499,-2.6499,-2.6499,-2.6499,-2.6499,-2.6499,-2.6499,-2.6499,-2.6499,-2.6499,-2.6499,-2.6499,-2.6499,-2.6499,-2.6499,-2.6499,-2.6499,-2.6499,-2.6499,-2.6499,-2.6499,-2.6499,-2.6499,-2.6499,-2.6499,-2.6499,-2.6499,-2.6499,-2.6292,-2.5781,-2.5264,-2.4564,-2.3562,-2.2542,-2.1773,-2.1298,-2.06,-2.0234,-2.0234,-1.959,-1.9277,-1.9297,-1.9277,-1.9455,-3.1678,-3.1698,-3.2307,-3.2462,-3.1833,-3.1288,0.0,0.0,0.0,-3.0266,-2.975,-2.915,0.0,0.0,0.0,-2.9774,0.0,0.0,0.0,-3.2287,0.0,-3.2946,-3.3036,-3.2946,-3.2557,-3.2378,-3.2079,-3.154,-3.1391,-3.1361,-3.1481,-3.1511,-3.1511,-3.1511,-3.1511,-3.1511,-3.1511,-3.1511,-3.1511,-3.1511,-3.1511,-3.1511,-3.1511,-3.1511,-3.1511,-3.1511,-3.1511,-3.1511,-3.1511,-3.1511,-3.1511,-3.1307,-2.9659,-2.8556,-2.7835,-2.685,-2.6499,-2.6499,-2.6499,-2.6499,-2.6499,-2.6499,-2.6499,-2.6499,-2.6499,-2.6499,-2.6499,-2.6499,-2.6499,-2.6499,-2.6499,-2.6499,-2.6499,-2.6499,-2.6499,-2.6499,-2.6499,-2.6499,-2.6499,-2.6499,-2.6499,-2.6499,-2.6499,-2.6499,-2.6499,-2.6499,-2.6499,-2.6499,-2.6499,-2.6499,-2.6499,-2.6499,-2.6499,-2.6499,-2.6499,-2.6499,-2.6164,-2.5335,-2.53,-2.4469,-2.2654,-2.2226,-2.1565,-2.0605,-2.0605,-2.0605,-2.0605,-2.0215,-1.9824,-1.9414,-1.9668,-1.9844,-3.525,-3.5554,-3.5712,-3.3761,-3.4112,-3.4158,-3.1058,0.0,-3.0881,-2.9615,0.0,0.0,0.0,0.0,0.0,0.0,0.0,0.0,-2.9831,-3.0941,-3.1511,-3.0911,-3.1361,-3.1929,-3.2437,-3.1959,-3.16,-3.1511,-3.0943,-3.0853,-3.1481,-3.1511,-3.1511,-3.1511,-3.1511,-3.1511,-3.1511,-3.1511,-3.1511,-3.1511,-3.1511,-3.1511,-3.1511,-3.1511,-3.1511,-3.1511,-3.1511,-3.1511,-3.1511,-3.1511,-3.1511,-3.1307,-2.9659,-2.8939,-2.8652,-2.7061,-2.6499,-2.6499,-2.6499,-2.6499,-2.6499,-2.6499,-2.6499,-2.6499,-2.6499,-2.6499,-2.6499,-2.6499,-2.6499,-2.6499,-2.6499,-2.6499,-2.6499,-2.6499,-2.6499,-2.6499,-2.6499,-2.6499,-2.6499,-2.6499,-2.6499,-2.6499,-2.6499,-2.6499,-2.6499,-2.6499,-2.6499,-2.6499,-2.6499,-2.6499,-2.6499,-2.6499,-2.6499,-2.6499,-2.6499,-2.6499,-2.6465,-2.6361,-2.6336,-2.5851,-2.4707,-2.2951,-2.1565,-2.0605,-2.0605,-2.0605,-2.0605,-2.0566,-2.0273,-1.9824,-1.9512,-1.9551,-3.5938,-3.5859,-3.5757,-3.437,-3.4201,-3.3829,-3.1833,-3.1335,-3.1024,-3.0042,0.0,0.0,0.0,0.0,0.0,0.0,-2.8423,0.0,0.0,0.0,-3.0582,-3.1032,0.0,0.0,-3.1899,-3.1301,-3.1062,-3.1481,-3.1241,-3.1182,-3.1481,-3.1869,-3.1899,-3.1511,-3.1511,-3.1511,-3.1511,-3.1511,-3.1511,-3.1511,-3.1511,-3.1511,-3.1511,-3.1511,-3.1511,-3.1511,-3.1511,-3.1511,-3.1511,-3.1511,-3.1511,-3.1365,-3.0208,-2.9442,-2.8844,-2.7637,-2.6918,-2.6499,-2.6499,-2.6499,-2.6499,-2.6499,-2.6499,-2.6499,-2.6499,-2.6499,-2.6499,-2.6499,-2.6499,-2.6499,-2.6499,-2.6499,-2.6499,-2.6499,-2.6499,-2.6499,-2.6499,-2.6499,-2.6499,-2.6499,-2.6499,-2.6499,-2.6499,-2.6499,-2.6499,-2.6499,-2.6499,-2.6499,-2.6499,-2.6499,-2.6499,-2.6499,-2.6499,-2.6499,-2.6499,-2.6499,-2.6233,-2.5652,-2.4541,-2.3686,-2.3305,-2.1924,-2.1011,-2.0605,-2.0605,-2.0605,-2.0605,-2.0605,-2.0507,-2.0293,-2.0155,-2.0117,-3.7144,0.0,-3.6502,-3.5148,-3.4404,-3.366,-3.2293,-3.1921,-3.1631,-3.0975,-3.0654,0.0,0.0,0.0,-2.8076,-2.8141,0.0,-2.8308,0.0,-2.8727,0.0,0.0,0.0,0.0,0.0,-3.0642,-3.0522,-3.1182,-3.1062,-3.1212,-3.175,-3.2228,-3.2258,-3.178,-3.178,-3.169,-3.1511,-3.1511,-3.1511,-3.1511,-3.1511,-3.1511,-3.1511,-3.1511,-3.1511,-3.1511,-3.1511,-3.1511,-3.1511,-3.1511,-3.1511,-3.1453,-3.0866,-2.9936,-2.8907,-2.8032,-2.7196,-2.6499,-2.6499,-2.6499,-2.6499,-2.6499,-2.6499,-2.6499,-2.6499,-2.6499,-2.6499,-2.6499,-2.6499,-2.6499,-2.6499,-2.6499,-2.6524,-2.6675,-2.66,-2.6524,-2.6675,-2.66,-2.6499,-2.6499,-2.6499,-2.6499,-2.6499,-2.6499,-2.6499,-2.6499,-2.6499,-2.6499,-2.6499,-2.6499,-2.6499,-2.6499,-2.6499,-2.6499,-2.6499,-2.6499,-2.6198,-2.5441,-2.3781,-2.2802,-2.2802,-2.1642,-2.0972,-2.0972,-2.0722,-2.0605,-2.0605,-2.0605,-2.0605,-2.0605,-2.0605,-2.0605,0.0,0.0,0.0,-3.6276,0.0,0.0,-3.1901,-3.2307,-3.3119,-3.2408,-3.2894,-3.3211,-3.2484,-3.0791,-2.9539,-2.9546,-2.8484,0.0,0.0,0.0,0.0,0.0,0.0,0.0,0.0,-2.9983,-2.9864,0.0,-2.9983,-3.0462,-3.2377,-3.2497,-3.2497,-3.2467,-3.2467,-3.2138,-3.1511,-3.1511,-3.1511,-3.1511,-3.1511,-3.1511,-3.1511,-3.1511,-3.1511,-3.1511,-3.1511,-3.1511,-3.1511,-3.1511,-3.1511,-3.1511,-3.1482,-3.045,-2.8907,-2.8032,-2.7196,-2.6499,-2.6499,-2.6499,-2.6499,-2.6499,-2.6499,-2.6499,-2.6499,-2.6499,-2.6499,-2.6499,-2.6499,-2.6499,-2.6499,-2.6499,-2.6625,-2.7153,-2.6876,-2.665,-2.7178,-2.6876,-2.6499,-2.6499,-2.6499,-2.6499,-2.6499,-2.6499,-2.6499,-2.6499,-2.6499,-2.6499,-2.6499,-2.6499,-2.6499,-2.6499,-2.6499,-2.6499,-2.6499,-2.6499,-2.6499,-2.6465,-2.5476,-2.4886,-2.4886,-2.301,-2.1962,-2.1962,-2.1049,-2.0605,-2.0605,-2.0605,-2.0605,-2.0605,-2.0605,-2.0605,0.0,0.0,-3.9503,-3.7009,0.0,0.0,0.0,0.0,0.0,-3.2462,-3.3296,-3.3863,-3.2695,-3.1949,-3.1253,-3.0404,-2.9496,-2.862,0.0,0.0,0.0,0.0,0.0,0.0,0.0,0.0,0.0,-3.0492,-3.0731,0.0,-3.1809,-3.2677,-3.2976,-3.2497,-3.2527,-3.2378,-3.2138,-3.172,-3.1511,-3.1511,-3.1511,-3.1511,-3.1511,-3.1511,-3.1511,-3.1511,-3.1511,-3.1511,-3.1511,-3.1511,-3.1511,-3.1511,-3.1511,-3.0837,-2.9752,-2.8876,-2.7703,-2.6499,-2.6499,-2.6499,-2.6499,-2.6499,-2.6499,-2.6499,-2.6499,-2.6499,-2.6575,-2.6927,-2.7027,-2.7128,-2.7444,-2.7544,-2.7595,-2.7795,-2.7695,-2.7595,-2.7795,-2.767,-2.7544,-2.7544,-2.7544,-2.7444,-2.7102,-2.7027,-2.6927,-2.6549,-2.6499,-2.6499,-2.6499,-2.6499,-2.6499,-2.6499,-2.6499,-2.6499,-2.6499,-2.6499,-2.6499,-2.6499,-2.5546,-2.5016,-2.5016,-2.3708,-2.2654,-2.2038,-2.1697,-2.1221,-2.0605,-2.0605,-2.0605,-2.0605,-2.0605,-2.0605,-4.0113,-4.0113,0.0,-3.7686,-3.6806,0.0,-3.3592,0.0,-3.4404,0.0,0.0,0.0,0.0,-3.3779,-3.2999,-3.2173,-3.0892,-2.9385,0.0,-2.7225,0.0,0.0,0.0,0.0,0.0,0.0,-2.9505,-3.0432,-3.0464,0.0,0.0,-3.2916,-3.3305,-3.2886,-3.3095,-3.3095,-3.2856,-3.2168,-3.1839,-3.1839,-3.16,-3.1511,-3.1511,-3.1511,-3.1511,-3.1511,-3.1511,-3.1511,-3.1511,-3.1511,-3.1511,-3.1511,-3.1511,-3.0984,-3.0208,-2.9317,-2.7966,-2.6499,-2.6499,-2.6499,-2.6499,-2.6499,-2.6499,-2.6524,-2.6725,-2.6776,-2.6901,-2.7419,-2.757,-2.767,-2.8021,-2.8097,-2.8147,-2.8348,-2.8247,-2.8172,-2.8348,-2.8247,-2.8097,-2.8097,-2.8097,-2.7996,-2.7645,-2.7419,-2.7128,-2.6575,-2.6499,-2.6499,-2.6499,-2.6499,-2.6499,-2.6499,-2.6499,-2.6499,-2.6499,-2.6499,-2.6499,-2.6499,-2.5886,-2.5511,-2.5511,-2.4564,-2.3562,-2.2542,-2.2188,-2.1565,-2.0605,-2.0605,-2.0605,-2.0605,-2.0605,-2.0605]},{"header":{"parameterUnit":"m.s-1","parameterCategory":1,"la1":30.6,"la2":29.2853,"lo1":-89.7004,"lo2":-87.6739,"dy":0.0162,"dx":0.0183,"nx":112,"ny":82,"refTime":"2026-04-24T00:00:00:Z","depth":0,"parameterNumber":3,"parameterNumberName":"V-component_of_WINDS"},"data":[0.0,0.0,0.0,0.0,0.0,0.0,0.0,0.0,0.0,0.0,0.0,0.0,0.0,0.0,0.0,0.0,0.0,0.0,0.0,0.0,0.0,0.0,0.0,0.0,0.0,0.0,0.0,0.0,0.0,0.0,0.0,0.0,0.0,0.0,0.0,0.0,0.0,0.0,0.0,0.0,0.0,0.0,0.0,0.0,0.0,0.0,0.0,0.0,0.0,0.0,0.0,0.0,0.0,0.0,0.0,0.0,0.0,0.0,0.0,0.0,0.0,0.0,0.0,0.0,0.0,0.0,0.0,0.0,0.0,0.0,0.0,0.0,0.0,0.0,0.0,0.0,0.0,0.0,0.0,0.0,0.0,0.0,0.0,0.0,0.0,0.0,0.0,0.0,0.0,0.0,1.5566,1.6222,1.7747,1.8733,1.8854,1.927,1.8868,1.7357,0.0,0.0,0.0,0.0,0.0,0.0,0.0,0.0,0.0,0.0,0.0,0.0,0.0,0.0,0.0,0.0,0.0,0.0,0.0,0.0,0.0,0.0,0.0,0.0,0.0,0.0,0.0,0.0,0.0,0.0,0.0,0.0,0.0,0.0,0.0,0.0,0.0,0.0,0.0,0.0,0.0,0.0,0.0,0.0,0.0,0.0,0.0,0.0,0.0,0.0,0.0,0.0,0.0,0.0,0.0,0.0,0.0,0.0,0.0,0.0,0.0,0.0,0.0,0.0,0.0,0.0,0.0,0.0,0.0,0.0,0.0,0.0,0.0,0.0,0.0,0.0,0.0,0.0,0.0,0.0,0.0,0.0,0.0,0.0,0.0,0.0,0.0,0.0,0.0,0.0,0.0,0.0,0.0,0.0,0.0,0.0,0.0,0.0,0.0,0.0,0.0,0.0,0.0,0.0,1.5469,1.7044,1.8422,1.9048,1.8691,1.8989,1.8572,1.713,0.0,0.0,0.0,0.0,0.0,0.0,0.0,0.0,0.0,0.0,0.0,0.0,0.0,0.0,0.0,0.0,0.0,0.0,0.0,0.0,0.0,0.0,0.0,0.0,0.0,0.0,0.0,0.0,0.0,0.0,0.0,0.0,0.0,0.0,0.0,0.0,0.0,0.0,0.0,0.0,0.0,0.0,0.0,0.0,0.0,0.0,0.0,0.0,0.0,0.0,0.0,0.0,0.0,0.0,0.0,0.0,0.0,0.0,0.0,0.0,0.0,0.0,0.0,0.0,0.0,0.0,0.0,0.0,0.0,0.0,0.0,0.0,0.0,0.0,0.0,0.0,0.0,0.0,0.0,0.0,0.0,0.0,0.0,0.0,0.0,0.0,0.0,0.0,0.0,0.0,0.0,0.0,0.0,0.0,0.0,0.0,0.0,0.0,0.0,0.0,0.0,0.0,0.0,1.5263,1.5987,1.7246,1.8532,1.9263,1.9187,1.9501,1.9226,1.815,1.8142,0.0,0.0,0.0,0.0,0.0,0.0,0.0,0.0,0.0,0.0,0.0,0.0,0.0,0.0,0.0,0.0,0.0,0.0,0.0,0.0,0.0,0.0,0.0,0.0,0.0,0.0,0.0,0.0,0.0,0.0,0.0,0.0,0.0,0.0,0.0,0.0,0.0,0.0,0.0,0.0,0.0,0.0,0.0,0.0,0.0,0.0,0.0,0.0,0.0,0.0,0.0,0.0,0.0,0.0,0.0,0.0,0.0,0.0,0.0,0.0,0.0,0.0,0.0,0.0,0.0,0.0,0.0,0.0,0.0,0.0,0.0,0.0,0.0,0.0,0.0,0.0,0.0,0.0,0.0,0.0,0.0,0.0,0.0,0.0,0.0,0.0,0.0,0.0,0.0,0.0,0.0,0.0,0.0,0.0,0.0,0.0,0.0,0.0,0.0,0.0,0.0,0.0,1.6759,1.7296,1.8076,1.923,1.9986,2.0186,2.0282,1.9989,1.9258,1.8455,0.0,0.0,0.0,0.0,0.0,0.0,0.0,0.0,0.0,0.0,0.0,0.0,0.0,0.0,0.0,0.0,0.0,0.0,0.0,0.0,0.0,0.0,0.0,0.0,0.0,0.0,0.0,0.0,0.0,0.0,0.0,0.0,0.0,0.0,0.0,0.0,0.0,0.0,0.0,0.0,0.0,0.0,0.0,0.0,0.0,0.0,0.0,0.0,0.0,0.0,0.0,0.0,0.0,0.0,0.0,0.0,0.0,0.0,0.0,0.0,0.0,0.0,0.0,0.0,0.0,0.0,0.0,0.0,0.0,0.0,0.0,0.0,0.0,0.0,0.0,0.0,0.0,0.0,0.0,0.0,0.0,0.0,0.0,0.0,0.0,0.0,0.0,0.0,0.0,0.0,0.0,0.0,0.0,0.0,0.0,0.0,0.0,0.0,0.0,0.0,0.0,0.0,1.874,1.9816,2.0319,2.1172,2.1729,2.1737,2.1056,2.0412,1.9786,1.8304,0.0,0.0,0.0,0.0,0.0,0.0,0.0,0.0,0.0,0.0,0.0,0.0,0.0,0.0,0.0,0.0,0.0,0.0,0.0,0.0,0.0,0.0,0.0,0.0,0.0,0.0,0.0,0.0,0.0,0.0,0.0,0.0,0.0,0.0,0.0,0.0,0.0,0.0,0.0,0.0,0.0,0.0,0.0,0.0,0.0,0.0,0.0,0.0,0.0,0.0,0.0,0.0,0.0,0.0,0.0,0.0,0.0,0.0,0.0,0.0,0.0,0.0,0.0,0.0,0.0,0.0,0.0,0.0,0.0,0.0,0.0,0.0,0.0,0.0,0.0,0.0,0.0,0.0,0.0,0.0,0.0,0.0,0.0,0.0,0.0,0.0,0.0,0.0,0.0,0.0,0.0,0.0,0.0,0.0,0.0,0.0,0.0,0.0,0.0,0.0,0.0,0.0,1.8722,1.9786,0.0,2.0878,2.1174,2.1341,2.0725,2.0074,1.9359,0.0,0.0,0.0,0.0,0.0,0.0,0.0,0.0,0.0,0.0,0.0,0.0,0.0,0.0,0.0,0.0,0.0,0.0,0.0,0.0,0.0,0.0,0.0,0.0,0.0,0.0,0.0,0.0,0.0,0.0,0.0,0.0,0.0,0.0,0.0,0.0,0.0,0.0,0.0,0.0,0.0,0.0,0.0,0.0,0.0,0.0,0.0,0.0,0.0,0.0,0.0,0.0,0.0,0.0,0.0,0.0,0.0,0.0,0.0,0.0,0.0,0.0,0.0,0.0,0.0,0.0,0.0,0.0,0.0,0.0,0.0,0.0,0.0,0.0,0.0,0.0,0.0,0.0,0.0,0.0,0.0,0.0,0.0,0.0,0.0,0.0,0.0,0.0,0.0,0.0,0.0,0.0,0.0,0.0,0.0,0.0,0.0,0.0,0.0,0.0,0.0,0.0,1.822,1.9586,2.0738,0.0,2.1385,2.1393,2.1415,2.0769,1.997,1.9083,0.0,0.0,0.0,0.0,0.0,0.0,0.0,0.0,0.0,0.0,0.0,0.0,0.0,0.0,0.0,0.0,0.0,0.0,0.0,0.0,0.0,0.0,0.0,0.0,0.0,0.0,0.0,0.0,0.0,0.0,0.0,0.0,0.0,0.0,0.0,0.0,0.0,0.0,0.0,0.0,0.0,0.0,0.0,0.0,0.0,0.0,0.0,0.0,0.0,0.0,0.0,0.0,0.0,0.0,0.0,0.0,0.0,0.0,0.0,0.0,0.0,0.0,0.0,0.0,0.0,0.0,0.0,0.0,0.0,0.0,0.0,0.0,0.0,0.0,0.0,0.0,0.0,0.0,0.0,0.0,0.0,0.0,0.0,0.0,0.0,0.0,0.0,0.0,0.0,0.0,0.0,0.0,0.0,0.0,0.0,0.0,0.0,0.0,0.0,0.0,0.0,0.0,1.9811,2.1716,2.3095,2.3095,2.3095,2.2869,2.2347,2.1292,2.0214,0.0,0.0,0.0,0.0,0.0,0.0,0.0,0.0,0.0,0.0,0.0,0.0,0.0,0.0,0.0,0.0,0.0,0.0,0.0,0.0,0.0,0.0,0.0,0.0,0.0,0.0,0.0,0.0,0.0,0.0,0.0,0.0,0.0,0.0,0.0,0.0,0.0,0.0,0.0,0.0,0.0,0.0,0.0,0.0,0.0,0.0,0.0,0.0,0.0,0.0,0.0,0.0,0.0,0.0,0.0,0.0,0.0,0.0,0.0,0.0,0.0,0.0,0.0,0.0,0.0,0.0,0.0,0.0,0.0,0.0,0.0,0.0,0.0,0.0,0.0,0.0,0.0,0.0,0.0,0.0,0.0,0.0,0.0,0.0,0.0,0.0,0.0,0.0,0.0,0.0,0.0,0.0,0.0,0.0,0.0,0.0,0.0,0.0,0.0,0.0,0.0,0.0,0.0,1.9811,2.1716,2.3095,2.3095,2.3095,2.2719,2.182,2.1094,2.0063,1.8531,0.0,0.0,0.0,0.0,0.0,0.0,0.0,0.0,0.0,0.0,0.0,0.0,0.0,0.0,0.0,0.0,0.0,0.0,0.0,0.0,0.0,0.0,0.0,0.0,0.0,0.0,0.0,0.0,0.0,0.0,0.0,0.0,0.0,0.0,0.0,0.0,0.0,0.0,0.0,0.0,0.0,0.0,0.0,0.0,0.0,0.0,0.0,0.0,0.0,0.0,0.0,0.0,0.0,0.0,0.0,0.0,0.0,0.0,0.0,0.0,0.0,0.0,0.0,0.0,0.0,0.0,0.0,0.0,0.0,0.0,0.0,0.0,0.0,0.0,0.0,0.0,0.0,0.0,0.0,0.0,0.0,0.0,0.0,0.0,0.0,0.0,0.0,0.0,0.0,0.0,0.0,0.0,0.0,0.0,0.0,0.0,0.0,0.0,0.0,0.0,0.0,0.0,1.9786,2.154,2.2869,2.307,2.292,2.2418,2.1568,2.0792,1.9635,1.7978,0.0,0.0,0.0,0.0,0.0,0.0,0.0,0.0,0.0,0.0,0.0,0.0,0.0,0.0,0.0,0.0,0.0,0.0,0.0,0.0,0.0,0.0,0.0,0.0,0.0,0.0,0.0,0.0,0.0,0.0,0.0,0.0,0.0,0.0,0.0,0.0,0.0,0.0,0.0,0.0,0.0,0.0,0.0,0.0,0.0,0.0,0.0,0.0,0.0,0.0,0.0,0.0,0.0,0.0,0.0,0.0,0.0,0.0,0.0,0.0,0.0,0.0,0.0,0.0,0.0,0.0,0.0,0.0,0.0,0.0,0.0,0.0,0.0,0.0,0.0,0.0,0.0,0.0,0.0,0.0,0.0,0.0,0.0,0.0,0.0,0.0,0.0,0.0,0.0,0.0,0.0,0.0,0.0,0.0,0.0,0.0,0.0,0.0,0.0,0.0,0.0,0.0,1.9736,2.1267,2.2498,2.297,2.2569,2.2071,2.1496,2.0439,1.9133,1.7574,0.0,0.0,0.0,0.0,0.0,0.0,0.0,0.0,0.0,0.0,0.0,0.0,0.0,0.0,0.0,0.0,0.0,0.0,0.0,0.0,0.0,0.0,0.0,0.0,0.0,0.0,0.0,0.0,0.0,0.0,0.0,0.0,0.0,0.0,0.0,0.0,0.0,0.0,0.0,0.0,0.0,0.0,0.0,0.0,0.0,0.0,0.0,0.0,0.0,0.0,0.0,0.0,0.0,0.0,0.0,0.0,0.0,0.0,0.0,0.0,1.8164,1.793,0.0,0.0,0.0,0.0,0.0,0.0,0.0,0.0,0.0,0.0,0.0,0.0,0.0,0.0,0.0,0.0,0.0,0.0,0.0,0.0,0.0,0.0,0.0,0.0,0.0,0.0,0.0,0.0,0.0,0.0,0.0,0.0,0.0,0.0,0.0,0.0,0.0,0.0,0.0,0.0,1.9736,2.1267,2.2347,2.2443,2.2368,2.192,2.0943,2.0213,1.9284,1.8103,1.7074,0.0,0.0,0.0,0.0,0.0,0.0,0.0,0.0,0.0,0.0,0.0,0.0,0.0,0.0,0.0,0.0,0.0,0.0,0.0,0.0,0.0,0.0,0.0,0.0,0.0,0.0,0.0,0.0,0.0,0.0,0.0,0.0,0.0,0.0,0.0,0.0,0.0,0.0,0.0,0.0,0.0,0.0,0.0,0.0,0.0,0.0,0.0,0.0,0.0,0.0,0.0,0.0,0.0,0.0,0.0,0.0,0.0,0.0,0.0,1.8769,1.8555,0.0,0.0,0.0,0.0,0.0,0.0,0.0,0.0,0.0,0.0,0.0,0.0,0.0,0.0,0.0,0.0,0.0,0.0,0.0,0.0,0.0,0.0,0.0,0.0,0.0,0.0,0.0,0.0,0.0,0.0,0.0,0.0,0.0,0.0,0.0,0.0,0.0,0.0,0.0,0.0,1.971,2.0815,2.1719,2.2246,2.1845,2.132,2.0742,1.9911,1.8957,1.7877,1.6999,0.0,0.0,0.0,0.0,0.0,0.0,0.0,0.0,0.0,0.0,0.0,0.0,0.0,0.0,0.0,0.0,0.0,0.0,0.0,0.0,0.0,0.0,0.0,0.0,0.0,0.0,0.0,0.0,0.0,0.0,0.0,0.0,0.0,0.0,0.0,0.0,0.0,0.0,0.0,0.0,0.0,0.0,0.0,0.0,0.0,0.0,0.0,0.0,0.0,0.0,0.0,0.0,0.0,2.0137,2.0527,2.084,2.1016,2.1134,2.1074,2.0166,1.9892,2.0086,1.9096,0.0,0.0,0.0,0.0,0.0,0.0,0.0,0.0,0.0,0.0,0.0,0.0,0.0,0.0,0.0,0.0,0.0,0.0,0.0,0.0,0.0,0.0,2.0397,2.0321,2.0756,2.0835,1.945,0.0,0.0,0.0,0.0,0.0,0.0,0.0,0.0,0.0,0.0,0.0,1.966,2.0339,2.1043,2.192,2.1245,2.0641,2.0541,1.9685,1.8682,1.7624,1.6999,1.6019,0.0,0.0,0.0,0.0,0.0,0.0,0.0,0.0,0.0,0.0,0.0,0.0,0.0,0.0,0.0,0.0,0.0,0.0,0.0,0.0,0.0,0.0,0.0,0.0,0.0,0.0,0.0,0.0,0.0,0.0,0.0,0.0,1.8164,1.9023,0.0,0.0,0.0,0.0,0.0,0.0,0.0,0.0,0.0,0.0,0.0,0.0,0.0,1.9531,2.0253,2.1035,2.1289,2.0956,2.1797,2.2012,2.174,2.2695,2.3114,2.3154,2.3984,0.0,2.124,2.1412,0.0,0.0,0.0,0.0,0.0,0.0,0.0,0.0,0.0,0.0,0.0,0.0,0.0,0.0,0.0,0.0,0.0,0.0,0.0,0.0,0.0,0.0,2.2797,2.2325,2.2774,2.324,2.3018,2.1269,1.959,1.9008,1.8504,1.7983,0.0,0.0,0.0,0.0,0.0,0.0,1.966,2.0339,2.0742,2.0893,2.0792,2.049,1.9962,1.9786,1.9233,1.8154,1.7576,1.6948,1.6199,1.5247,0.0,0.0,0.0,0.0,0.0,0.0,0.0,0.0,0.0,0.0,0.0,0.0,0.0,0.0,0.0,0.0,0.0,0.0,0.0,0.0,0.0,0.0,0.0,0.0,0.0,0.0,0.0,0.0,0.0,1.791,1.8769,1.8906,1.8715,1.8266,0.0,0.0,0.0,0.0,0.0,0.0,0.0,0.0,0.0,2.0352,2.0625,2.1035,2.166,2.3199,2.3881,2.3677,2.5019,2.5381,2.4934,2.5413,2.5467,2.5226,2.5712,2.5453,2.4604,2.3438,2.2604,2.2049,0.0,0.0,0.0,0.0,2.1456,2.1863,2.3213,2.3508,2.325,2.288,0.0,0.0,0.0,0.0,0.0,0.0,0.0,2.1458,2.2053,2.3095,2.4042,2.415,2.4422,2.4686,2.4713,2.3881,2.2606,2.0977,2.0198,1.9461,1.8505,1.8457,0.0,0.0,0.0,1.9987,2.076,2.1105,2.1397,2.1716,2.1451,2.1158,2.0892,2.0866,2.0521,1.9771,1.9136,1.8414,1.755,1.6925,1.639,0.0,0.0,0.0,0.0,0.0,0.0,0.0,0.0,0.0,0.0,0.0,0.0,0.0,0.0,0.0,0.0,0.0,0.0,0.0,0.0,0.0,0.0,0.0,0.0,0.0,0.0,0.0,0.0,1.8652,1.9336,1.8968,1.9124,1.8851,0.0,0.0,0.0,0.0,0.0,0.0,1.9922,2.0402,2.1112,2.2068,2.2635,2.3185,2.3734,2.5273,2.6044,2.6044,2.7323,2.762,2.7105,2.7398,2.7277,2.6912,2.7042,2.7324,2.7536,2.5466,2.4461,2.4097,2.3359,2.269,2.2215,2.32,2.3595,2.3782,2.5145,2.5586,2.541,2.433,2.3772,2.3195,2.1418,0.0,0.0,0.0,0.0,2.3178,2.3956,2.4696,2.5322,2.5631,2.5851,2.598,2.6017,2.5887,2.5098,2.2823,2.1838,2.1013,1.9773,1.9878,0.0,0.0,0.0,2.1093,2.1627,2.171,2.1876,2.2321,2.1963,2.171,2.171,2.171,2.1379,2.0706,2.0186,1.9384,1.8274,1.811,1.7525,1.641,0.0,0.0,0.0,0.0,0.0,0.0,0.0,0.0,0.0,0.0,0.0,0.0,0.0,0.0,0.0,0.0,0.0,0.0,0.0,0.0,0.0,0.0,0.0,0.0,0.0,0.0,0.0,0.0,0.0,1.9844,2.0547,0.0,0.0,0.0,0.0,1.9258,2.0018,2.0879,2.1699,2.2367,2.3337,2.4556,2.5273,2.6088,2.7048,2.7135,2.72,2.7222,2.733,2.7082,2.6547,2.7609,2.8028,2.806,2.8541,2.88,2.8712,2.7599,2.7099,2.7087,2.7012,2.6336,2.5361,2.5444,2.5477,2.5477,2.5586,2.5586,2.5661,2.6172,2.5586,2.46,2.3979,2.3978,0.0,0.0,2.5587,2.6272,2.6242,2.6806,2.7216,2.6587,2.6997,2.7484,2.7504,2.6996,2.5966,2.3989,2.319,2.2368,2.1035,0.0,2.0267,2.0756,2.0844,2.1093,2.1627,2.171,2.171,2.1738,2.171,2.171,2.171,2.171,2.1213,2.0025,1.9915,1.9363,1.8147,1.7984,1.8157,1.873,1.7357,0.0,0.0,0.0,0.0,0.0,0.0,0.0,0.0,0.0,0.0,0.0,0.0,0.0,0.0,0.0,0.0,0.0,0.0,0.0,0.0,0.0,0.0,0.0,0.0,0.0,0.0,0.0,0.0,2.1152,2.1465,0.0,2.0352,2.0723,2.0977,2.0957,2.1799,2.2862,2.4235,2.445,2.5083,2.6383,2.6565,2.68,2.7158,2.8238,2.878,2.878,2.9559,2.9666,2.9141,2.9542,2.9332,2.8642,2.8812,2.8687,2.8361,2.7965,2.7618,2.7293,2.7293,2.6851,2.6223,2.6565,2.6691,2.664,2.6298,2.6424,2.659,2.6063,2.541,2.475,2.455,2.4576,2.4823,2.5564,2.6343,2.6969,2.7088,2.7637,2.803,2.7351,2.7408,2.7585,2.7585,2.7405,2.6912,2.5769,2.471,2.3695,2.2798,2.2484,2.2301,2.2083,2.2403,2.2724,2.2906,2.2913,2.2913,2.2913,2.2913,2.2913,2.2913,2.2913,2.2586,2.1762,2.1303,2.0662,1.9817,1.9314,1.8963,1.8785,1.7809,1.7145,0.0,0.0,0.0,0.0,0.0,0.0,0.0,0.0,0.0,0.0,0.0,0.0,0.0,0.0,0.0,0.0,0.0,0.0,0.0,0.0,0.0,0.0,0.0,0.0,0.0,2.0742,2.1719,2.1875,2.2383,2.2461,2.1697,2.2009,2.2532,2.3114,2.3308,2.4267,2.6281,2.598,2.6408,2.7748,2.7921,2.8086,2.8249,2.9374,2.9939,2.9939,3.0744,3.0859,3.0331,3.0331,2.9829,2.8888,2.8687,2.8348,2.7821,2.762,2.7344,2.7102,2.762,2.7494,2.7128,2.7645,2.772,2.7469,2.6977,2.7002,2.7178,2.6223,2.5661,2.5385,2.5385,2.5786,2.6347,2.6921,2.7845,2.8626,2.8533,2.8734,2.8757,2.8094,2.7764,2.7585,2.7585,2.7585,2.7465,2.7016,2.6033,2.5053,2.4388,2.4088,2.3819,2.34,2.349,2.361,2.361,2.361,2.361,2.361,2.361,2.361,2.361,2.34,2.3032,2.2403,2.1724,2.1066,2.0408,1.9947,1.9498,1.9061,1.8147,1.7473,1.7055,0.0,0.0,0.0,0.0,0.0,0.0,0.0,0.0,0.0,0.0,0.0,0.0,0.0,0.0,0.0,0.0,0.0,0.0,0.0,0.0,0.0,0.0,0.0,1.998,2.1445,2.2383,2.2012,2.3418,2.3945,2.2758,2.3736,2.4766,2.5565,2.4529,2.5067,2.7764,2.7021,2.7245,2.8827,2.948,3.0055,3.0583,3.0583,3.0583,3.0583,3.0583,3.0306,2.9804,2.9779,2.9453,2.8838,2.8323,2.777,2.7218,2.6725,2.6499,2.665,2.8273,2.8574,2.8147,2.8687,2.8537,2.8021,2.7494,2.7293,2.7228,2.6675,2.6499,2.6499,2.6533,2.767,2.8971,2.9034,3.0208,3.1302,3.0672,3.0043,2.9442,2.8757,2.8094,2.7585,2.7585,2.7585,2.7585,2.7585,2.7076,2.6422,2.5764,2.5083,2.4634,2.4605,2.4059,0.0,2.361,2.361,2.361,2.361,2.361,2.361,2.361,2.3062,2.2403,2.1724,2.1047,2.0408,1.9738,1.9708,1.9708,1.9708,1.8386,1.7728,1.7745,0.0,0.0,0.0,0.0,0.0,0.0,0.0,0.0,0.0,0.0,0.0,0.0,0.0,0.0,0.0,0.0,0.0,0.0,0.0,0.0,0.0,2.0625,2.1699,2.1387,2.2285,2.312,2.3652,2.4141,2.4762,2.5612,2.5768,2.5861,2.6072,2.5805,2.6269,2.783,2.7292,2.7902,3.0038,2.9899,2.9854,3.0005,3.0005,3.0005,3.0005,3.0005,2.993,2.9779,2.9352,2.8813,2.8298,2.7745,2.7228,2.67,2.6549,2.6499,2.6625,2.7846,2.7996,2.762,2.8574,2.8537,2.8072,2.7921,2.762,2.7228,2.6675,2.6499,2.6611,2.7196,2.7703,2.833,2.9597,3.0269,3.0631,3.0531,3.0043,2.9442,2.8757,2.8094,2.7585,2.7585,2.7585,2.7585,2.7585,2.7435,2.7106,2.6422,2.5764,2.5143,2.4664,2.4455,0.0,2.367,2.361,2.361,2.361,2.361,2.361,2.361,2.3062,2.2403,2.1724,2.1047,2.0408,1.9738,1.9708,1.9708,1.9708,1.8852,1.8601,0.0,0.0,0.0,0.0,0.0,0.0,0.0,0.0,0.0,0.0,0.0,0.0,0.0,0.0,0.0,0.0,0.0,0.0,0.0,0.0,0.0,0.0,2.1836,2.2985,2.3622,2.387,2.4303,2.5349,2.5617,2.6099,2.7112,2.6806,2.6557,2.6557,2.6154,2.6627,2.8225,2.7828,2.8356,3.0217,2.9955,2.9804,2.9804,2.9804,2.9804,2.9804,2.9804,2.9804,2.9779,2.9202,2.8624,2.8072,2.7519,2.7002,2.6499,2.6499,2.6499,2.6575,0.0,0.0,0.0,0.0,2.8373,2.8072,2.7846,2.7544,2.7228,2.6675,2.6499,2.6645,2.7438,2.7966,2.8524,2.9905,3.0539,3.0808,3.0888,3.0253,2.9502,2.9116,2.8304,2.7585,2.7585,2.7585,2.7585,2.7585,2.7585,0.0,2.7106,2.6452,2.5794,2.5113,2.4784,2.4365,2.3699,2.361,2.361,2.361,2.361,2.361,2.361,2.3062,0.0,0.0,0.0,2.0408,1.9738,1.9856,0.0,0.0,0.0,0.0,0.0,0.0,0.0,0.0,2.0238,2.0232,0.0,0.0,0.0,0.0,0.0,0.0,0.0,0.0,0.0,0.0,0.0,0.0,0.0,0.0,0.0,0.0,2.3075,2.4127,2.5927,2.5623,2.5651,2.6748,2.7264,2.7516,2.7516,2.7214,2.701,2.6968,2.6229,2.6667,2.8692,2.8345,0.0,0.0,0.0,2.9804,2.9804,2.9804,2.9804,2.9804,2.9804,2.9804,2.9779,2.9126,2.8574,2.8072,2.7444,2.6952,2.6499,2.6499,2.6499,2.6549,2.7102,2.7318,2.7444,2.7921,2.8097,2.8021,2.7469,0.0,0.0,2.6675,2.6499,2.6645,2.7438,2.8298,2.9192,3.0056,3.0866,3.1511,3.1511,3.0552,2.9621,2.9621,2.8573,2.7585,2.7585,2.7585,2.7585,2.7585,2.7585,2.7585,2.7585,2.7106,2.6452,2.5704,2.5083,2.4425,2.3699,2.361,2.361,2.361,0.0,0.0,2.361,2.3062,2.2454,2.1944,2.131,2.0684,2.0007,2.0395,2.0601,2.0508,2.1003,2.1279,2.1344,2.1691,2.2236,2.2859,2.1173,2.0945,0.0,0.0,0.0,0.0,0.0,0.0,0.0,0.0,0.0,0.0,0.0,0.0,0.0,0.0,0.0,2.2552,2.4557,2.5956,2.5418,2.5965,2.6517,2.684,2.697,2.7033,2.7033,2.743,2.7568,2.7256,2.784,2.8228,2.825,2.8155,2.8648,2.974,2.9804,2.9804,2.9804,2.9804,2.9804,2.9804,2.9804,0.0,2.9754,2.8725,2.8197,2.8047,2.7077,2.66,2.6499,2.6499,2.6499,2.6549,2.7102,2.7544,2.7971,2.8072,2.8097,2.8021,2.7469,2.7293,2.7228,2.6675,2.6499,2.6645,2.7438,2.8298,0.0,3.0056,3.0866,3.1511,3.1511,3.0552,2.9621,2.9621,2.8573,2.7585,2.7585,2.7585,2.7585,2.7585,2.7585,2.7585,2.7585,2.7495,2.7016,2.5794,2.5495,2.4986,2.3759,2.361,2.361,2.361,2.361,2.361,2.361,2.3062,2.2798,2.3055,2.286,2.2385,2.1669,2.2281,2.2364,2.1756,2.2433,2.2943,2.3358,2.3424,2.3716,2.413,2.3179,2.3179,0.0,0.0,0.0,0.0,0.0,0.0,0.0,0.0,0.0,0.0,0.0,1.9551,2.043,0.0,2.3389,2.4242,2.5585,2.6795,2.7644,2.7988,2.8033,2.7802,2.8054,2.8254,2.8254,2.8325,2.8065,2.7265,2.8016,2.8369,2.8108,2.8648,2.9184,2.9779,2.9804,2.9804,2.9804,2.9804,2.9804,2.9804,2.9804,2.9804,2.9754,2.8624,2.8097,2.8047,2.6977,2.6499,2.6499,2.6499,2.6499,2.6524,2.6801,2.7077,2.7293,2.7293,2.7293,2.7278,2.7002,2.6901,2.6851,2.6575,2.6499,2.6714,2.7966,2.8652,2.9286,3.0539,3.119,3.1511,3.1511,3.0552,2.9621,2.9621,2.8573,2.7585,2.7585,2.7585,2.7585,2.7585,2.7585,2.7585,2.7585,2.7585,2.7136,2.5794,2.5615,2.5136,2.3759,2.361,2.361,2.361,2.3837,2.4006,2.4006,2.3681,2.3553,2.379,2.3401,2.3015,2.2662,2.3221,2.3372,2.3014,2.3539,2.3983,2.421,2.421,2.4489,2.5033,2.4661,2.4492,0.0,0.0,0.0,0.0,0.0,0.0,0.0,0.0,1.9202,1.959,2.0059,2.0742,2.1816,2.2782,2.4018,2.5813,2.6466,2.7502,2.9552,2.9631,2.923,2.8695,2.911,2.9385,2.9132,2.8911,2.8333,2.7379,2.7998,2.8426,2.8426,2.9326,2.9804,2.9804,2.9804,2.9804,2.9804,2.9804,2.9804,2.9804,2.9804,2.9729,2.9578,2.8574,2.8047,2.7896,2.6927,2.6499,2.6499,2.6499,2.6499,2.6499,2.6499,2.6499,2.6499,2.6499,2.6499,2.6499,2.6499,2.6499,2.6499,2.6499,2.6611,2.6994,2.833,2.8971,2.9535,3.0896,3.1365,3.1511,3.1511,3.0552,2.9621,2.9621,2.8573,2.7585,2.7585,2.7585,2.7585,2.7585,2.7585,2.7585,2.7585,2.7585,2.7136,2.5794,2.5615,2.5136,2.3759,2.361,2.3653,2.373,2.4142,2.445,2.4552,2.4544,2.4553,2.4553,2.4129,2.3809,2.3662,2.4149,2.4365,2.4232,2.4689,2.4914,2.4914,2.4914,2.5236,2.5812,2.5812,2.5507,1.9353,1.8555,1.8052,1.8383,1.8828,1.9336,0.0,0.0,2.0917,2.0976,2.1619,2.2266,2.2422,2.4808,2.6494,2.563,2.7605,2.8932,2.8115,2.8518,2.8864,2.8787,2.8905,2.855,2.7479,2.7854,2.8139,2.8018,2.9013,2.9624,2.9624,2.974,2.9804,2.9804,2.9804,2.9804,2.9804,2.9804,2.9804,2.9804,2.9804,2.9528,2.8963,2.8398,2.7846,2.7379,2.6751,2.6499,2.6499,2.6499,2.6499,2.6499,2.6499,2.6499,2.6499,2.6499,2.6499,2.6499,2.6499,2.6499,2.6499,2.6499,2.696,2.7604,2.7802,2.8939,3.0208,3.0389,3.0955,3.1511,3.1511,3.0552,2.9621,2.9621,2.8573,2.7585,2.7585,2.7585,2.7585,2.7585,2.7585,2.7585,2.7585,2.7585,2.7136,2.5794,2.5615,2.5136,2.3759,2.361,2.3773,2.4266,2.4369,2.4592,2.5067,2.5533,2.5793,2.5793,2.6115,2.6017,2.5378,2.6,2.6084,2.5443,2.61,2.6471,2.6471,2.6471,2.6505,2.659,2.659,2.6522,2.0175,1.9803,1.9473,1.9358,1.9902,2.0449,2.0586,2.1113,2.168,2.1934,2.2418,2.3044,2.3732,2.5146,2.6475,0.0,2.8393,2.9201,2.935,2.9367,2.9371,2.9371,2.9681,2.9593,2.8771,2.8913,2.9106,2.9106,2.9521,2.9804,2.9804,2.9804,2.9804,2.9804,2.9804,2.9804,2.9804,2.9804,2.9804,2.9804,2.9804,2.9478,2.8863,2.8348,2.762,2.6826,2.66,2.6499,2.6499,2.6499,2.6499,2.6499,2.6499,2.6499,2.6499,2.6499,2.6499,2.6499,2.6499,2.6499,2.6499,2.6499,2.7027,2.7802,2.8298,2.9317,3.0389,3.0866,3.1248,3.1511,3.1511,3.0793,3.0043,2.9681,2.8846,2.8094,2.7675,2.7585,2.7585,2.7585,2.7585,2.7585,2.7585,2.7585,2.7285,2.6333,2.5854,2.5262,2.4306,2.41,2.4389,2.524,2.5335,2.5524,2.6017,2.628,2.6418,2.6418,2.659,2.6556,2.6251,2.6522,2.6556,2.6251,2.6522,2.6691,2.6691,2.6691,2.6691,2.6691,2.6691,2.6691,2.0664,2.0703,2.0664,2.0352,2.0898,2.1424,2.1075,2.1602,2.2285,2.248,2.2808,2.3474,2.4575,2.5295,2.6364,2.8369,2.8922,2.9391,3.0263,3.0055,2.9804,2.9804,3.0156,3.0231,2.9829,2.993,2.9955,2.9804,2.9804,2.9804,2.9804,2.9804,2.9804,2.9804,2.9804,2.9804,2.9804,2.9804,2.9804,2.9804,2.9804,2.9402,2.8637,2.7971,2.7218,2.6499,2.6499,2.6499,2.6499,2.6499,2.6499,2.6499,2.6499,2.6499,2.6499,2.6499,2.6499,2.6499,2.6499,2.6399,2.6248,2.6248,2.6963,2.7959,2.8597,2.9669,3.0748,3.1336,3.1511,3.1511,3.1511,3.1002,3.0342,2.9714,2.9086,2.8397,2.7735,2.7585,2.7585,2.7585,2.7585,2.7585,2.7585,2.7585,2.7435,2.6956,2.6153,2.5352,2.4694,2.4593,2.4989,2.5888,2.6104,2.6315,2.6674,2.6691,2.6691,2.6691,2.6691,2.6691,2.6691,2.6691,2.6691,2.6691,2.6691,2.6691,2.6691,2.6691,2.6691,2.6691,2.6691,2.6691,2.084,2.0879,2.1171,2.1151,2.1836,2.2363,2.1934,2.25,2.2945,2.2598,2.2808,2.3474,2.4575,2.5735,2.6812,2.7947,2.9052,2.9765,2.9804,2.9804,2.9804,2.9804,2.9804,2.9804,2.9804,3.0281,3.0357,2.9829,2.9804,2.9804,2.9804,2.9804,2.9804,2.9804,2.9804,2.9804,2.9804,2.9804,2.9804,2.9804,2.9804,2.9202,2.8097,2.7027,2.6524,2.6499,2.6499,2.6499,2.6499,2.6499,2.6499,2.6499,2.6499,2.6499,2.6499,2.6499,2.6499,2.6499,2.6499,2.6122,2.5611,2.5611,2.6769,2.818,2.821,2.9749,3.1482,3.1511,3.1511,3.1511,3.1511,3.1002,3.0342,2.9714,2.9086,2.8397,2.7735,2.7585,2.7585,2.7585,2.7585,2.7585,2.7585,2.7585,2.7585,2.7555,2.6452,2.5352,2.4694,2.4927,2.5392,2.5943,2.6418,2.6691,2.6691,2.6691,2.6691,2.6691,2.6691,2.6691,2.6691,2.6691,2.6691,2.6691,2.6691,2.6691,2.6691,2.6691,2.6691,2.6691,2.6691,2.6691,2.0937,2.1328,2.166,2.166,2.209,2.248,2.2344,2.2519,2.2852,2.3281,2.3198,2.3771,2.5915,2.6435,2.7098,2.8949,2.9546,2.9804,2.9804,2.9804,2.9804,2.9804,3.0105,3.0206,2.9829,2.9955,0.0,2.9804,2.9804,2.9804,2.9804,2.9804,2.9804,2.9804,2.9804,2.9804,2.9804,2.9804,2.9804,2.9779,2.9026,2.8273,2.7544,2.6826,2.6499,2.6499,2.6499,2.6499,2.6499,2.6499,2.6499,2.6499,2.6499,2.6499,2.6499,2.6499,2.6499,2.6449,2.6047,2.5762,2.5536,2.5184,2.6217,2.7624,2.8072,2.9433,3.0913,3.1361,3.1511,3.1511,3.1511,3.1331,3.0883,2.9834,2.9442,2.8963,2.7854,2.7585,2.7585,2.7585,2.7585,2.7585,2.7585,2.7585,2.7315,2.6393,2.5884,2.547,2.5051,2.5128,2.5524,2.6367,2.6607,2.6691,2.6691,2.6691,2.6691,2.6691,2.6691,2.6691,2.6691,2.6691,2.6691,2.6691,2.6691,2.6691,2.6691,2.6691,2.6841,2.7099,2.7099,2.7241,2.1463,2.1894,2.2148,2.2305,2.2539,2.2691,2.2691,2.2691,2.2891,2.3437,2.3466,2.4067,2.6201,2.6526,2.7135,2.9159,2.9478,2.9553,2.9754,2.9804,2.9804,2.9804,3.0105,3.0181,2.9829,2.9804,0.0,2.9804,2.9804,2.9804,2.9804,2.9804,2.9804,2.9804,2.9804,2.9804,2.9804,2.9578,2.9377,2.9176,2.8247,2.762,2.7268,2.6751,2.6499,2.6499,2.6499,2.6499,2.6499,2.6499,2.6499,2.6499,2.6499,2.6499,2.6499,2.6499,2.6499,2.6449,2.6072,2.5636,2.5259,2.4901,2.5765,2.6988,2.7434,2.8944,3.0582,3.1002,3.1301,3.1511,3.1511,3.1511,3.1182,2.9894,2.9621,2.9232,2.7884,2.7585,2.7585,2.7585,2.7585,2.7585,2.7585,2.7785,2.7455,2.6098,2.6062,2.597,2.5297,2.5373,2.5783,2.6624,2.6691,2.6691,2.6691,2.6691,2.6691,2.6691,2.6691,2.6691,2.6691,2.6691,2.6691,2.6691,2.6691,2.6691,2.6691,2.6691,2.6923,2.7303,2.7303,2.7532,2.2402,2.2539,2.2637,2.3003,2.3101,2.3101,2.3101,2.3101,2.3101,2.3101,2.3586,2.428,0.0,0.0,2.7042,2.8537,2.8888,2.9176,2.9704,2.9754,2.9754,0.0,0.0,0.0,0.0,0.0,0.0,2.9804,0.0,2.9804,2.9804,2.9804,2.9804,2.9804,2.9804,2.9804,2.9804,2.9189,2.8612,2.8047,2.7519,2.7304,2.7218,2.6725,2.6499,2.6499,2.6499,2.6499,2.6499,2.6499,2.6499,2.6499,2.6499,2.6499,2.6499,2.6499,2.6474,2.6449,2.6449,2.5711,2.4775,2.4815,2.5511,2.6354,2.6439,2.8281,3.0402,3.0432,3.0913,3.1451,3.1451,3.1481,3.1182,2.9924,2.9651,2.9292,2.7944,2.7645,2.7645,2.7615,2.7585,2.7585,2.7585,2.8076,2.7992,2.6615,2.6904,2.6791,2.5432,2.5705,2.6175,2.6657,2.6691,2.6691,2.6691,2.6691,2.6691,2.6691,2.6691,2.6691,2.6691,2.6691,2.6691,2.6691,2.6691,2.6691,2.6691,2.6691,2.694,2.7334,2.7334,2.7562,2.2402,2.2734,2.2964,2.3062,2.3101,2.3101,2.3101,2.3101,2.3101,2.3144,2.3606,2.399,0.0,0.0,0.0,2.7292,2.8584,0.0,2.9779,2.9428,0.0,2.9754,0.0,2.9327,2.9754,2.9804,0.0,0.0,2.9804,2.9804,2.9804,2.9804,2.9804,2.9804,2.9804,2.9804,2.9804,2.9189,2.8448,2.7494,2.7379,2.7102,2.67,2.6549,2.6499,2.6499,2.6499,2.6499,2.6499,2.6499,2.6499,2.6499,2.6499,2.6499,2.6499,2.6499,2.6223,2.5812,2.5812,2.5385,2.4822,2.4962,2.532,2.5855,2.6917,2.8088,2.9175,2.9684,3.0283,3.0761,3.0761,3.1122,3.1301,3.0462,3.0283,2.9924,2.8607,2.8338,2.8188,2.7705,2.7585,2.7585,2.7585,2.7673,2.7426,2.6545,2.6826,2.6812,2.5895,2.5906,2.6175,2.6657,2.6691,2.6691,2.6691,2.6691,2.6691,2.6691,2.6691,2.6691,2.6691,2.6691,2.6691,2.6691,2.6691,2.6691,2.6691,2.6691,2.7051,2.7754,2.7754,2.8106,2.2676,2.2906,2.3101,2.3101,2.3101,2.3003,2.2676,2.2734,2.2695,2.219,2.2615,0.0,2.316,2.4914,2.65,0.0,0.0,0.0,2.9729,2.9302,2.9113,0.0,2.9503,0.0,2.9754,2.9804,2.9804,0.0,2.9804,2.9804,2.9804,2.9804,2.9679,2.9428,2.9428,2.9176,2.8699,2.8373,2.777,2.6952,2.6952,2.6801,2.6499,2.6499,2.6499,2.6499,2.6499,2.6499,2.6499,2.6499,2.6499,2.6499,2.6499,2.6499,2.6499,2.6499,2.6325,2.6089,2.6089,2.58,2.5323,2.4796,2.496,2.555,2.6327,2.7515,2.8667,2.9056,2.9624,3.0103,3.0103,3.0372,3.0582,3.0193,3.0103,2.9834,2.8816,2.8607,2.8397,2.7735,2.7585,2.7585,2.7585,2.8004,2.8086,2.735,2.7635,2.7666,2.6881,2.6531,2.6418,2.6674,2.6691,2.6691,2.6691,2.6691,2.6691,2.6691,2.6691,2.6691,2.6691,2.6691,2.6691,2.6691,2.6691,2.6691,2.6691,2.6691,2.7115,2.7897,2.7897,2.8295,2.3003,2.3101,2.3101,2.3101,2.3101,2.2867,2.207,2.2168,2.2051,2.0781,0.0,2.1972,2.2127,2.3814,2.5562,2.6678,0.0,2.8574,2.9654,2.9302,2.9113,2.9729,2.9729,2.9704,2.9779,2.9804,2.9804,2.9804,2.9729,2.9704,2.9804,2.9804,2.9528,2.8913,2.8813,2.8323,2.7329,2.7293,2.7027,2.6499,2.6499,2.6499,2.6499,2.6499,2.6499,2.6499,2.6499,2.6499,2.6499,2.6499,2.6499,2.6499,2.6499,2.6499,2.6499,2.6499,2.6534,2.6582,2.6574,2.636,2.5862,2.4814,2.493,2.555,2.5659,2.7006,2.8457,2.8457,2.8936,2.9472,2.9472,2.9532,2.9621,2.9621,2.9681,2.9505,2.8757,2.8517,2.8278,2.7705,2.7585,2.7585,2.7585,2.8528,2.9038,2.8403,2.8702,2.8716,2.7925,2.7165,2.6691,2.6691,2.6691,2.6691,2.6691,2.6691,2.6691,2.6691,2.6691,2.6691,2.6691,2.6691,2.6691,2.6691,2.6691,2.6691,2.6691,2.6691,2.7115,2.7897,2.7897,2.8295,2.3081,2.3101,2.3101,2.3101,2.3101,2.2867,2.207,2.1934,0.0,0.0,2.0825,2.1037,1.9591,2.2523,2.5052,2.4585,2.6895,2.8988,2.9704,2.9302,2.9113,0.0,2.9377,2.9277,2.9754,2.9804,0.0,0.0,2.9352,2.9277,2.9754,2.9804,2.9528,2.8913,2.8473,2.7946,2.7329,2.7293,2.7027,2.6499,2.6499,2.6499,2.6499,2.6499,2.6499,2.6499,2.6499,0.0,2.6499,2.6499,2.6499,2.6499,2.6499,2.6499,2.6499,2.6499,2.619,2.5808,2.597,2.5735,2.5451,2.6411,2.655,2.6416,2.7019,2.7497,2.7764,2.7764,2.8274,2.8757,2.8757,2.9175,2.9621,2.9621,2.9983,3.0013,2.8846,2.8158,2.7735,2.7615,2.7585,2.7585,2.7585,2.8174,2.8568,2.8337,2.8804,2.8838,2.794,2.7165,2.6691,2.6691,2.6691,2.6691,2.6691,2.6691,2.6691,2.6691,2.6691,2.6691,2.6691,2.6691,2.6691,2.6691,2.6691,2.6691,2.6691,2.6691,2.7115,2.7897,2.7897,2.8295,2.3159,2.3101,2.3101,2.3101,2.2925,2.2519,2.1445,0.0,0.0,0.0,1.9477,1.9738,1.9089,2.1523,0.0,2.4038,2.5847,2.7695,2.9151,2.8599,2.8499,2.9654,2.9553,2.9478,2.9754,2.9804,2.9804,2.9804,2.9252,2.9013,2.9327,2.88,2.8348,2.8072,2.7544,2.7153,2.6901,2.6876,2.6751,2.6499,2.6499,2.6499,2.6499,2.6499,2.6499,2.6499,2.6499,2.6499,2.6499,2.6499,2.6499,2.6499,2.6499,2.6499,2.6568,2.696,2.7006,2.6887,2.71,2.7054,2.6974,2.7338,2.7018,2.6578,2.6945,2.7306,2.7585,2.7585,2.7824,2.8094,2.8094,2.8334,2.8663,2.8996,2.9295,2.9355,2.8727,2.8068,2.7585,2.7585,2.7585,2.7585,2.7585,2.8076,2.8482,2.8418,2.8855,2.9039,2.8577,2.8153,2.7588,2.6793,2.6691,2.6691,2.6691,2.6691,2.6691,2.6691,2.6691,2.6691,2.6691,2.6691,2.6691,2.6691,2.6691,2.6691,2.6691,2.6691,2.7003,2.7607,2.7811,2.8188,2.3296,2.3159,2.3101,2.3101,2.2789,2.2168,2.0899,2.0527,0.0,1.834,1.8247,1.8607,1.8939,2.0672,2.2423,0.0,2.4948,2.6465,2.8436,2.8097,2.8172,0.0,2.9804,0.0,2.9804,2.9804,0.0,2.9804,2.9151,2.8712,2.8712,2.7821,2.7293,2.7293,2.6776,2.6499,2.6499,2.6499,2.6499,2.6499,2.6499,2.6499,2.6499,2.6499,2.6499,2.6499,2.6499,2.6499,2.6499,2.6499,2.6499,2.6499,2.6499,2.6499,2.6602,2.7397,2.7803,2.7985,2.8223,2.8387,2.8426,2.7803,2.7203,2.6762,2.6762,2.7152,2.7585,2.7585,2.7585,2.7585,2.7585,2.7585,2.7764,2.8427,2.8607,2.8607,2.8607,2.8068,2.7585,2.7585,2.7585,2.7585,2.7585,2.8008,2.8343,2.8463,2.8926,2.921,2.9202,2.9211,2.8705,2.7351,2.7029,2.686,2.6691,2.6691,2.6691,2.6691,2.6691,2.6691,2.6691,2.6691,2.6691,2.6691,2.6691,2.6691,2.6691,2.6691,2.6923,2.7319,2.7725,2.8164,2.3633,2.3437,2.3101,2.3101,2.2789,2.2168,2.0899,0.0,1.959,1.8281,1.8047,1.8047,1.811,1.9977,2.1688,2.2287,0.0,2.6826,2.8021,2.8524,2.9026,2.9704,0.0,0.0,2.9804,2.9804,2.9804,2.9804,2.88,2.8172,2.8172,2.762,2.7293,2.7293,2.6776,2.6499,2.6499,2.6499,2.6499,2.6499,2.6499,2.6499,2.6499,2.6499,2.6499,2.6499,2.6499,2.6499,0.0,2.6499,2.6499,2.6499,2.6499,2.6499,2.6602,2.7397,2.771,2.7765,2.816,2.8311,2.8249,2.7773,2.7534,2.7484,2.7484,2.7534,2.7585,2.7585,2.7585,2.7585,2.7585,2.7585,2.7764,2.8427,2.8607,2.8607,2.8607,2.8068,2.7585,2.7585,2.7585,2.7585,2.7585,2.7635,2.7885,2.8415,2.8979,2.935,2.9227,2.968,2.9702,2.8874,2.8146,2.7418,2.6759,2.6691,2.6691,2.6691,2.6691,2.6691,2.6691,2.6691,2.6691,2.6691,2.6691,2.6691,2.6691,2.6691,2.6923,2.7319,2.7725,2.8463,2.3809,2.3672,2.3477,2.3159,2.2637,2.1855,2.084,0.0,1.9258,1.8223,1.8008,1.8008,1.8008,1.9622,2.1071,2.1632,2.3271,2.5084,2.6866,2.7017,2.7519,2.9076,2.9277,0.0,0.0,0.0,2.9503,2.8825,2.8373,2.7821,2.7178,2.6927,2.6826,2.6826,2.66,2.6499,2.6499,2.6499,2.6499,2.6499,2.6499,2.6499,2.6499,2.6499,2.6499,2.6499,2.6499,2.6499,0.0,2.6499,2.6499,2.6499,2.6499,2.6499,2.6645,2.7999,2.8492,2.8552,2.8944,2.907,2.8919,2.7931,2.7585,2.7585,2.7585,2.7585,2.7585,2.7585,2.7585,2.7585,2.7585,2.7585,2.7675,2.7944,2.8004,2.8004,2.8004,2.7794,2.7585,2.7585,2.7585,2.7585,2.7585,2.7585,2.7685,2.7934,2.8487,2.897,2.9286,2.986,3.0095,2.9698,2.8991,2.8383,2.813,2.8096,2.7875,2.7384,2.735,2.7165,2.6725,2.6691,2.6691,2.6691,2.6691,2.6691,2.6691,2.6691,2.6791,2.6972,2.8092,2.8877,2.3984,2.3887,2.3711,2.3418,2.2598,2.166,0.0,1.994,1.9043,1.8184,1.8008,1.8008,1.8008,1.942,2.0735,2.1094,2.2535,2.4274,2.6223,2.6273,2.6791,2.8662,0.0,2.9063,2.9503,2.9704,2.9402,2.8423,2.8197,2.7695,2.6801,2.6575,2.6499,2.6499,2.6499,2.6499,2.6499,2.6499,2.6499,2.6499,2.6499,2.6499,2.6499,2.6499,2.6499,2.6499,2.6499,2.6499,0.0,2.6499,2.6499,2.6499,2.6499,2.6499,2.6679,2.8363,2.9002,2.9056,2.9456,2.9621,2.9382,2.8034,2.7585,2.7585,2.7585,2.7585,2.7585,2.7585,2.7585,2.7585,2.7585,2.7735,2.7914,2.7914,2.8064,2.8154,2.7944,2.7914,2.7854,2.7645,2.7585,2.7585,2.7585,2.7585,2.7585,2.7585,2.81,2.8724,2.9316,2.9913,3.0319,3.0422,2.9939,2.9484,2.9044,2.901,2.8773,2.8196,2.8128,2.7841,2.7063,2.7029,2.6928,2.6691,2.6691,2.6691,2.6691,2.6691,2.6793,2.7046,2.8312,2.9278,2.418,2.4102,2.3789,2.3789,2.2832,2.166,2.0801,1.994,1.9043,1.8184,1.8008,1.8008,1.8008,1.942,2.059,2.059,2.2951,2.5184,2.6348,2.6952,2.767,0.0,0.0,2.8888,2.8888,2.9453,2.9553,2.8938,2.8423,2.7871,2.7293,2.6801,2.6499,2.6499,2.6499,2.6499,2.6499,2.6499,2.6499,2.6499,2.6499,2.6499,2.6499,2.6499,2.6499,2.6499,2.6499,2.6499,0.0,2.6499,2.6499,2.6499,2.6499,2.6499,2.6679,2.8363,2.9002,2.9056,2.9456,2.9621,2.9382,2.8034,2.7585,2.7585,2.7585,2.7585,2.7585,2.7585,2.7585,2.7585,2.7585,2.8094,2.8577,2.8577,2.9086,2.9412,2.8727,2.8577,2.8397,2.7735,2.7585,2.7585,2.7585,2.7585,2.7585,2.7585,2.81,2.8724,2.9316,2.9913,3.0539,3.1098,3.119,3.0581,2.9111,2.901,2.901,2.8976,2.8976,2.8619,2.7824,2.779,2.7452,2.6691,2.6691,2.6691,2.6691,2.6691,2.7097,2.7807,2.8201,2.9695,2.3125,2.3223,2.3203,2.2637,2.1953,2.1211,2.0312,1.9687,1.9043,1.8184,1.8008,1.8008,1.8008,1.942,2.0847,2.1587,2.343,2.5209,2.6348,0.0,0.0,2.8273,2.9051,2.9528,0.0,0.0,2.9553,2.8938,2.8423,2.7871,2.7318,2.6801,2.6499,2.6499,2.6499,2.6499,2.6499,2.6499,2.6499,2.6499,2.6499,2.6499,2.6499,2.6499,2.6499,2.6499,2.6499,2.6499,2.6499,2.6499,2.6499,2.6499,2.6499,2.6499,2.6679,2.8363,2.9002,2.9112,2.9926,2.9953,2.9472,2.8547,2.7974,2.7585,2.7585,2.7585,2.7585,2.7585,2.7585,2.7585,2.7585,2.7764,2.8034,2.8487,2.8757,2.8846,2.8637,2.8607,2.8397,2.7735,2.7585,2.7585,2.7585,2.7585,2.7585,2.7585,2.776,2.8247,2.9271,2.9563,3.0064,3.1092,3.119,3.0987,3.0533,3.048,3.0277,2.977,2.9736,2.9397,2.8653,2.8619,2.8247,2.7452,2.7977,2.7977,2.7452,2.7977,2.8782,2.9782,2.992,3.0994,2.2402,2.2652,2.2734,2.2051,2.1426,2.0762,1.9883,1.9336,1.8848,1.8144,1.8008,1.8008,1.8008,1.942,2.0824,2.1497,2.3382,2.5209,0.0,0.0,0.0,2.8323,0.0,0.0,0.0,2.9804,2.9553,2.8938,2.8562,2.8072,2.7318,2.6977,2.67,2.6499,2.6499,2.6499,2.6499,2.6499,2.6499,2.6499,2.6499,2.6499,2.6499,2.6499,2.6499,2.6499,2.6499,2.6499,0.0,2.6499,2.6499,2.6499,2.6499,2.6679,2.7129,2.8492,2.9223,2.9605,3.0276,3.0253,2.9834,2.9175,2.8517,2.7944,2.7675,2.7585,2.7585,2.7585,2.7585,2.7585,2.7585,2.7585,2.7764,2.8427,2.8607,2.8607,2.8607,2.8607,2.8397,2.7735,2.7585,2.7585,2.7585,2.7585,2.7585,2.7585,2.7585,2.7929,2.8927,2.9248,2.9783,3.0777,3.1072,3.119,3.119,3.119,3.0987,3.0548,3.0514,3.0176,2.945,2.9416,2.9059,2.8281,2.8739,2.8755,2.8247,2.9025,2.9767,3.0486,3.0905,3.1689,0.0,2.2305,2.2227,2.1797,2.1114,2.0292,1.9434,1.8906,0.0,1.8047,1.7949,1.793,1.8056,1.9432,2.0623,2.0822,2.3135,2.5234,0.0,2.7002,0.0,0.0,2.8938,0.0,2.9754,2.9804,2.9578,2.8988,2.8888,2.8423,2.7394,2.7268,2.7027,2.6524,2.6499,2.6499,2.6499,2.6499,2.6499,2.6499,2.6499,2.6499,2.6499,2.6499,2.6499,0.0,2.6499,2.6499,2.6499,2.6499,2.6499,2.6499,2.6499,2.6994,2.7802,2.8684,2.9535,3.0333,3.0536,3.0552,3.0402,2.9714,2.9116,2.8457,2.7794,2.7585,2.7585,2.7585,2.7585,2.7585,2.7585,2.7585,2.7764,2.8427,2.8607,2.8607,2.8607,2.8607,2.8397,2.7735,2.7585,2.7585,2.7585,2.7645,2.7645,2.7615,2.7645,2.7871,2.8415,2.9019,2.9629,3.0246,3.0838,3.119,3.119,3.119,3.119,3.119,3.119,3.0886,3.0209,3.0176,2.9837,2.9077,2.9077,2.9111,2.9145,2.9837,3.0176,3.0209,3.1258,3.1753,1.9844,0.0,2.043,2.0,1.9746,1.9453,0.0,1.8422,1.8047,1.7617,1.7266,1.7454,1.8887,1.964,2.0787,2.3052,2.4548,2.5661,2.6399,2.7329,0.0,2.9453,2.9578,2.9654,2.9779,2.9804,2.9729,2.9603,2.8775,2.8197,2.7921,2.7153,2.6625,2.6499,2.6499,2.6499,2.6499,2.6499,2.6499,2.6499,2.6499,2.6499,2.6499,2.6499,2.6499,2.6499,2.6499,2.6499,2.6499,2.6499,2.6499,2.6499,2.6499,2.6994,2.7802,2.8684,2.9535,3.0391,3.1041,3.0913,3.0313,2.9205,2.8727,2.8457,2.7794,2.7585,2.7585,2.7585,2.7585,2.7585,2.7585,2.7585,2.7764,2.8427,2.8607,2.8607,2.8607,2.8607,2.8397,2.7735,2.7585,2.7585,2.7585,2.8034,2.8188,2.7675,2.8034,2.8414,2.8477,2.9019,2.9629,3.0246,3.0838,3.119,3.119,3.119,3.119,3.119,3.119,3.1123,3.0954,3.0954,3.0581,2.9871,2.9837,3.0108,3.0702,3.0852,3.0954,3.0954,3.1225,3.1507,1.8633,1.9297,1.9805,1.9394,1.9297,1.918,1.8695,1.8164,1.7656,1.7422,0.0,1.7093,1.8304,1.9501,2.0901,2.2667,2.4667,2.6364,0.0,0.0,2.9101,2.9729,2.9804,2.9804,0.0,2.9804,2.9804,2.9804,2.8976,2.8373,2.8122,2.7329,2.6751,2.6499,2.6499,2.6499,2.6499,2.6499,2.6499,2.6499,2.6499,2.6499,2.6499,2.6499,2.6499,2.6499,2.6499,2.6499,2.6499,2.6499,2.6499,2.6533,2.6918,2.7571,2.8395,2.9286,3.0147,3.0896,3.1336,3.1271,3.0761,2.9475,2.9056,2.8876,2.7914,2.7585,2.7585,2.7585,2.7585,2.7585,2.7585,2.7585,2.7675,2.8064,2.8128,2.8128,2.8128,2.8128,2.8034,2.7675,2.7585,2.7585,2.7585,2.7914,2.8098,2.8094,2.8368,2.8587,2.855,2.9304,2.9871,2.9881,3.0662,3.119,3.119,3.119,3.119,3.119,3.119,3.119,3.119,3.119,3.1021,3.0615,3.0615,3.0784,3.119,3.119,3.119,3.119,3.119,3.1312,1.8164,1.8984,1.9707,1.9219,1.9141,1.9082,1.8598,0.0,0.0,0.0,0.0,0.0,1.8031,1.9695,0.0,2.2055,0.0,0.0,2.8662,2.9352,2.9704,2.9779,2.9804,0.0,2.9804,2.9804,2.9754,2.9679,2.9126,2.8549,2.8021,2.7444,2.6977,2.6499,2.6499,2.6499,2.6499,2.6499,2.6499,2.6499,2.6499,2.6499,2.6499,2.6499,2.6499,2.6499,2.6499,0.0,2.6499,2.6499,2.6499,2.6602,2.7397,2.8233,2.9097,2.9995,3.0807,3.1511,3.1511,3.1511,3.1301,3.0013,2.9621,2.9352,2.8004,2.7585,2.7585,2.7585,2.7585,2.7585,2.7585,2.7585,2.7585,2.7585,2.7585,2.7585,2.7585,2.7585,2.7585,2.7585,2.7585,2.7585,2.7585,2.7675,2.7944,2.8517,2.8697,2.8727,2.8607,2.9583,3.0035,2.9448,3.0393,3.1112,3.119,3.119,3.119,3.119,3.119,3.119,3.119,3.119,3.119,3.119,3.119,3.119,3.119,3.119,3.119,3.119,3.119,3.119,1.8887,1.9238,1.9199,1.8398,1.8477,1.8598,1.8203,1.7734,0.0,0.0,0.0,0.0,0.0,2.174,2.2412,0.0,0.0,2.757,0.0,0.0,2.9252,2.9729,0.0,2.9804,2.9804,2.9804,2.9578,2.9063,2.8549,2.7996,2.7444,2.6927,2.6575,2.6499,2.6499,2.6499,2.6499,2.6499,2.6499,2.6499,2.6499,2.6499,2.6499,2.6499,2.6499,2.6499,0.0,2.6499,2.6499,2.6499,2.6499,2.6602,2.7397,2.8233,2.9097,2.9995,3.0807,3.1511,3.1511,3.1511,3.1301,3.0013,2.9621,2.9352,2.8004,2.7585,2.7585,2.7585,2.7585,2.7585,2.7585,2.7585,2.7585,2.7585,2.7585,2.7585,2.7585,2.7585,2.7585,2.7585,2.7585,2.7585,2.7585,2.8094,2.8487,2.8577,2.9086,2.9235,2.8667,2.9215,2.9594,2.9403,3.0021,3.0621,3.1151,3.119,3.119,3.119,3.119,3.119,3.119,3.119,3.119,3.119,3.119,3.119,3.119,3.119,3.119,3.119,3.119,3.119,1.8496,1.8769,1.8848,1.8403,1.8812,1.9241,1.9082,1.8535,0.0,0.0,0.0,0.0,0.0,0.0,2.4191,2.729,0.0,2.8448,2.9277,2.9402,2.9503,0.0,0.0,2.9804,2.9804,2.9804,2.9553,2.8938,2.8423,2.7871,2.7318,2.6801,2.6499,2.6499,2.6499,2.6499,2.6499,2.6499,2.6499,2.6499,2.6499,2.6499,2.6499,2.6499,2.6499,2.6499,0.0,2.6499,2.6499,2.6499,2.6499,2.6611,2.7901,2.8652,2.916,3.045,3.119,3.1511,3.1511,3.1511,3.1301,3.0013,2.9621,2.9352,2.8004,2.7585,2.7585,2.7585,2.7585,2.7585,2.7585,2.7585,2.7585,2.7585,2.7585,2.7585,2.7585,2.7585,2.7585,2.7585,2.7585,2.7585,2.7585,2.7854,2.8158,2.8547,2.8846,2.8936,2.8637,2.9444,3.0036,3.0,3.0521,3.1281,3.23,3.1664,3.119,3.119,3.119,3.119,3.119,3.119,3.119,3.119,3.119,3.119,3.119,3.119,3.119,3.119,3.119,3.119,1.8223,1.8364,1.852,1.8831,1.9241,1.9631,1.9863,1.9499,1.9253,0.0,0.0,0.0,0.0,2.3827,0.0,2.8712,2.9126,2.9277,2.9729,2.9804,2.9804,2.9804,2.9804,2.9804,2.9804,2.9679,2.9352,2.8737,2.8222,2.767,2.7153,2.6725,2.6499,2.6499,2.6499,2.6499,2.6499,2.6499,2.6499,2.6499,2.6499,2.6499,2.6499,2.6499,2.6499,2.6499,2.6499,2.6499,2.6499,2.6499,2.6499,2.6679,2.833,2.9254,2.9721,3.1014,3.1511,3.1511,3.1511,3.1511,3.1301,3.0193,2.9741,2.9382,2.8184,2.7735,2.7585,2.7585,2.7585,2.7585,2.7585,2.7585,2.7585,2.7585,2.7585,2.7585,2.7585,2.7585,2.7585,2.7585,2.7735,2.7794,2.7615,2.7735,2.8064,2.8727,2.8816,2.8876,2.9026,2.9898,3.0545,3.0727,3.1102,3.1836,3.3056,3.2104,3.136,3.119,3.119,3.119,3.119,3.119,3.119,3.119,3.119,3.119,3.119,3.119,3.119,3.119,3.119,3.119,1.8867,1.8633,1.834,1.9531,1.9241,1.8909,1.9727,2.0337,0.0,2.2805,0.0,0.0,0.0,2.7764,2.885,2.9628,2.9729,2.9754,2.9779,0.0,2.9804,2.9804,2.9804,2.9804,2.9804,2.9302,2.8712,2.8197,2.7645,2.7128,2.6575,2.6524,2.6499,2.6499,2.6499,2.6499,2.6499,2.6499,2.6499,2.6499,2.6499,2.6499,2.6499,2.6499,2.6499,2.6499,2.6499,2.6499,2.6499,2.6499,2.6499,2.6679,2.833,2.9936,3.1307,3.1482,3.1511,3.1511,3.1511,3.1511,3.1391,3.0672,3.0043,2.9472,2.8757,2.8094,2.7585,2.7585,2.7585,2.7585,2.7585,2.7585,2.7585,2.7585,2.7585,2.7585,2.7585,2.7585,2.7585,2.7585,2.8124,2.8338,2.7705,2.8124,2.8757,2.9442,2.9532,2.9714,3.0283,3.043,3.0731,3.1333,3.1462,3.1727,3.2347,3.2293,3.1921,3.1224,3.119,3.119,3.119,3.119,3.119,3.119,3.119,3.119,3.119,3.119,3.119,3.119,3.119,3.119,1.8003,1.8066,1.8184,1.889,1.9529,0.0,0.0,2.2206,2.332,2.4348,2.5125,0.0,0.0,0.0,2.9088,2.9704,2.9804,2.9804,2.9804,2.9804,2.9804,2.9804,2.9478,2.9252,2.9252,2.875,2.8197,2.7645,2.7394,2.7077,2.6524,2.6499,2.6499,2.6499,2.6499,2.6499,2.6499,2.6499,2.6499,2.6499,2.6499,2.6499,2.6499,2.6499,2.6499,2.6499,2.6499,2.6499,2.6499,2.6499,2.6499,2.6679,2.833,3.0025,3.1511,3.1511,3.1511,3.1511,3.1511,3.1511,3.1391,3.0731,3.0342,3.0043,2.9415,2.8757,2.8218,2.8218,2.7914,2.7585,2.7585,2.7585,2.7585,2.7585,2.7585,2.7585,2.7585,2.7585,2.7585,2.7585,2.7794,2.7914,2.7645,2.7824,2.8214,2.8876,2.8966,2.9205,2.9834,3.0253,3.0758,3.1487,3.2658,3.3307,3.3022,3.2983,3.2679,3.1921,3.1427,3.119,3.119,3.119,3.119,3.119,3.119,3.119,3.119,3.119,3.119,3.119,3.119,3.119,1.7383,1.7598,1.7997,1.8859,0.0,0.0,2.3121,2.4168,2.5096,2.5922,2.6922,2.7946,2.8975,0.0,0.0,0.0,2.9679,2.9654,2.9302,2.9402,2.9453,2.9277,2.89,2.8674,2.8674,2.8172,2.7695,2.7354,2.7153,2.6901,2.6524,2.6499,2.6499,2.6499,2.6499,2.6499,2.6499,2.6499,2.6499,2.6499,2.6499,2.6499,2.6499,2.6499,2.6499,2.6499,2.6499,2.6499,2.6499,2.6499,2.6816,2.7404,2.8876,3.0269,3.1511,3.1511,3.1511,3.1511,3.1511,3.1511,3.1421,3.0943,3.0672,3.0432,3.0013,2.9415,2.8876,2.8667,2.8248,2.7884,2.7645,2.7585,2.7585,2.7585,2.7585,2.7585,2.7585,2.7585,2.7585,2.7585,2.7764,2.7914,2.7914,2.7914,2.8214,2.9056,2.8876,2.8906,2.9774,3.0253,3.094,3.2123,3.363,3.4356,3.382,3.3525,3.3085,3.2361,3.1616,3.119,3.119,3.119,3.119,3.119,3.119,3.119,3.119,3.119,3.119,3.119,3.119,3.119,1.7383,1.7416,1.7843,1.9669,0.0,0.0,2.5576,2.5996,2.6415,2.7814,2.9028,2.9804,2.9804,2.9779,0.0,2.8988,2.9402,2.9377,2.8273,2.8574,2.8725,2.8172,2.8097,2.8097,2.8097,2.7595,2.7268,2.7268,2.6801,2.6499,2.6499,2.6499,2.6499,2.6499,2.6499,2.6499,2.6499,2.6499,2.6499,2.6499,2.6499,2.6499,2.6499,2.6499,2.6499,2.6499,2.6499,2.6499,2.6499,2.6499,2.7471,2.9097,2.9936,3.0807,3.1511,3.1511,3.1511,3.1511,3.1511,3.1511,3.1511,3.1511,3.1032,3.0522,3.0492,3.0073,2.9472,2.8786,2.8607,2.8427,2.7764,2.7585,2.7585,2.7585,2.7585,2.7585,2.7585,2.7585,2.7585,2.7585,2.8154,2.8577,2.8607,2.8607,2.9026,3.0313,2.9415,2.9056,3.0342,3.0522,3.1314,3.3374,3.417,3.4555,3.4496,3.3829,3.3085,3.2361,3.1616,3.119,3.119,3.119,3.119,3.119,3.119,3.119,3.119,3.119,3.119,3.119,3.119,3.119,1.7012,1.758,0.0,2.0273,0.0,0.0,0.0,2.7578,0.0,0.0,2.9585,2.9804,2.9804,2.9453,0.0,2.8913,2.875,2.8499,2.8147,2.8247,2.8298,2.8122,2.777,2.7519,2.7519,2.7052,2.6751,2.6751,2.6575,2.6499,2.6499,2.6499,2.6499,2.6499,2.6499,2.6499,2.6499,2.6499,2.6499,2.6499,2.6499,2.6499,2.6499,2.6499,2.6499,2.6499,2.6499,2.6499,2.6533,2.7095,2.7999,2.9097,2.9936,3.0807,3.1511,3.1511,3.1511,3.1511,3.1511,3.1511,3.1511,3.1511,3.1361,3.1122,3.0642,3.0073,2.9472,2.8786,2.8248,2.7854,2.7645,2.7585,2.7585,2.7585,2.7585,2.7585,2.7585,2.7585,2.7585,2.7585,2.7764,2.8064,2.8517,2.8188,2.8487,3.0253,2.9415,2.9056,3.0342,3.0913,3.1805,3.3437,3.3301,3.3475,3.4418,3.3376,3.253,3.2327,3.1616,3.119,3.119,3.119,3.119,3.119,3.119,3.119,3.119,3.119,3.119,3.119,3.119,3.119,1.7428,1.8319,0.0,2.1536,2.3702,2.584,2.7648,0.0,0.0,0.0,2.9453,2.9377,2.9151,2.885,0.0,2.8323,2.8172,2.7946,2.7519,2.7645,2.7695,2.7469,2.7203,2.6977,2.6977,2.67,2.6499,2.6499,2.6499,2.6499,2.6499,2.6499,2.6499,2.6499,2.6499,2.6499,2.6499,2.6499,2.6499,2.6499,2.6499,2.6499,2.6499,2.6499,2.6499,2.6499,2.6499,2.6499,2.6602,2.7736,2.8524,2.9129,3.0299,3.1073,3.1511,3.1511,3.1511,3.1511,3.1511,3.1511,3.1511,3.1511,3.1511,3.1421,3.1002,3.0462,2.9804,2.9175,2.8487,2.7944,2.7675,2.7585,2.7585,2.7585,2.7585,2.7585,2.7585,2.7585,2.7585,2.7585,2.7824,2.8154,2.8517,2.8248,2.8483,2.9924,2.9265,2.8876,2.9654,3.0342,3.1256,3.2609,3.2613,3.2934,3.3958,3.3004,3.2293,3.2293,3.1616,3.119,3.119,3.119,3.119,3.119,3.119,3.119,3.119,3.119,3.119,3.119,3.119,3.119,1.8463,1.9485,2.0866,2.3307,2.5091,0.0,2.8512,2.9302,2.9478,2.8913,0.0,2.8662,2.8197,2.8072,2.7871,2.7369,2.767,2.7595,2.6625,2.6927,2.7052,2.6549,2.6499,2.6499,2.6499,2.6499,2.6499,2.6499,2.6499,2.6499,2.6499,2.6499,2.6499,2.6499,2.6499,2.6499,2.6499,2.6499,2.6499,2.6499,2.6499,2.6499,2.6499,2.6499,2.6499,2.6499,2.6499,2.6499,2.6611,2.8298,2.9002,2.916,3.0837,3.1511,3.1511,3.1511,3.1511,3.1511,3.1511,3.1511,3.1511,3.1511,3.1511,3.1481,3.1421,3.0943,3.0283,2.9654,2.9026,2.8368,2.7764,2.7585,2.7585,2.7585,2.7585,2.7585,2.7585,2.7585,2.7615,2.7675,2.8158,2.8637,2.8667,2.8637,2.8786,2.9352,2.8996,2.8667,2.8607,2.9235,3.0129,3.1292,3.1988,3.2626,3.3186,3.2591,3.2192,3.2192,3.1582,3.119,3.119,3.119,3.119,3.119,3.119,3.119,3.119,3.119,3.119,3.119,3.119,3.119,1.9047,2.0491,0.0,0.0,2.6919,2.84,2.88,2.8674,2.8423,2.8298,2.8273,2.8247,2.8122,2.7745,2.7419,2.7329,2.7052,2.6776,2.6524,2.66,2.6625,2.6499,2.6499,2.6499,2.6499,2.6499,2.6499,2.6499,2.6499,2.6499,2.6499,2.6499,2.6499,2.6499,2.6499,2.6499,2.6499,2.6499,2.6499,2.6499,2.6499,2.6499,2.6499,2.6499,2.6499,2.6499,2.6499,2.6499,2.6611,2.8298,2.9002,2.916,3.0837,3.1511,3.1511,3.1511,3.1511,3.1511,3.1511,3.1511,3.1511,3.1511,3.1511,3.1391,3.0853,3.0283,2.9681,2.8996,2.8308,2.7794,2.7645,2.7585,2.7585,2.7585,2.7585,2.7585,2.7585,2.7585,2.7764,2.8278,2.8487,2.8757,2.9295,2.8936,2.8457,2.8094,2.8813,2.9175,2.8667,2.9594,3.0428,3.076,3.1304,3.1716,3.1813,3.161,3.1427,3.1427,3.1292,3.119,3.119,3.119,3.119,3.119,3.119,3.119,3.119,3.119,3.119,3.119,3.119,3.119,1.9035,0.0,0.0,2.6602,0.0,2.8524,2.8524,2.7896,2.7318,2.7318,2.7519,2.762,2.7369,2.7128,2.6927,2.6927,2.6675,2.6499,2.6499,2.6499,2.6499,2.6499,2.6499,2.6499,2.6499,2.6499,2.6499,2.6499,2.6499,2.6499,2.6499,2.6499,2.6499,2.6499,2.6499,2.6499,2.6499,2.6499,2.6499,2.6499,2.6499,2.6499,2.6499,2.6499,2.6499,2.6499,2.6499,2.6499,2.6611,2.8298,2.9002,2.916,3.0837,3.1511,3.1511,3.1511,3.1511,3.1511,3.1511,3.1511,3.1511,3.1511,3.1511,3.1421,3.1062,3.0342,2.9592,2.9535,2.8816,2.8154,2.8483,2.8573,2.8573,2.8573,2.8334,2.8004,2.7675,2.7854,2.8158,2.8517,2.8607,2.8697,2.9056,2.8547,2.8004,2.7645,2.8184,2.8633,2.8607,2.9175,2.9713,3.0041,3.0574,3.0905,3.0881,3.1059,3.119,3.119,3.119,3.119,3.119,3.119,3.119,3.119,3.119,3.119,3.119,3.1549,3.1752,3.1752,3.207,3.207,1.8765,0.0,2.4341,2.7779,2.8387,0.0,2.8097,2.7278,2.6499,2.6499,2.6851,2.7027,2.6575,2.6499,2.6499,2.6499,2.6499,2.6499,2.6499,2.6499,2.6499,2.6499,2.6499,2.6499,2.6499,2.6499,2.6499,2.6499,2.6499,2.6499,2.6499,2.6499,2.6499,2.6499,2.6499,2.6499,2.6499,2.6499,2.6499,2.6499,2.6499,2.6499,2.6499,2.6499,2.6499,2.6499,2.6499,2.6499,2.6611,2.8136,2.878,2.8939,3.045,3.1161,3.1278,3.1278,3.1365,3.1511,3.1511,3.1511,3.1511,3.1511,3.1511,3.1511,3.1511,3.0702,2.9834,3.0372,2.9654,2.8906,2.9472,2.9621,2.9621,2.9621,2.9235,2.8757,2.8094,2.8368,2.8816,2.8906,2.8936,2.8936,2.8936,2.8304,2.7764,2.7764,2.7764,2.7974,2.8517,2.8786,2.9026,2.9316,2.9995,3.0348,3.0184,3.0716,3.1092,3.119,3.119,3.119,3.119,3.119,3.119,3.119,3.119,3.1258,3.1413,3.1989,3.2361,3.2496,3.3119,3.3085,1.8579,0.0,2.5517,0.0,2.7877,2.8097,0.0,0.0,2.6499,0.0,2.6549,2.6575,2.6499,2.6499,2.6499,2.6499,2.6499,2.6499,2.6499,2.6499,2.6499,2.6499,2.6499,2.6499,2.6499,2.6499,2.6499,2.6499,2.6499,2.6499,2.6499,2.6499,2.6499,2.6499,2.6499,2.6499,2.6499,2.6499,2.6499,2.6499,2.6499,2.6499,2.6499,2.6499,2.6499,2.6499,2.6499,2.6499,2.6568,2.7471,2.7868,2.7966,2.8939,2.9782,3.045,3.045,3.0896,3.1511,3.1511,3.1511,3.1511,3.1511,3.1511,3.1511,3.1511,3.0972,3.0402,3.0492,2.9983,2.9502,2.9592,2.9621,2.9621,2.9621,2.9924,3.0073,2.9472,2.9412,2.9594,3.0133,3.0253,3.0253,3.0253,2.9265,2.8457,2.8457,2.8457,2.8487,2.8577,2.9564,2.9861,2.8828,2.9787,3.0221,2.9602,3.0064,3.0621,3.1171,3.119,3.119,3.119,3.119,3.119,3.119,3.119,3.1495,3.2158,3.2259,3.2632,3.3254,3.3355,3.3355,1.9695,2.1966,2.4286,0.0,2.7541,2.7422,2.7987,2.7494,2.6876,2.6549,2.6499,2.6499,2.6499,2.6499,2.6499,2.6499,2.6499,2.6499,2.6499,2.6499,2.6499,2.6499,2.6499,2.6499,2.6499,2.6499,2.6499,2.6499,2.6499,2.6499,2.6499,2.6499,2.6499,2.6499,2.6499,2.6499,2.6499,2.6499,2.6499,2.6499,2.6499,2.6499,2.6499,2.6499,2.6499,2.6499,2.6499,2.6499,2.6568,2.7397,2.7703,2.7802,2.8652,2.9535,3.0299,3.0299,3.0807,3.1511,3.1511,3.1511,3.1511,3.1511,3.1511,3.1511,3.1511,3.1032,3.0582,3.0943,3.0612,3.0193,3.0582,3.0672,3.0672,3.0672,3.0881,3.0972,3.0731,3.0372,3.0073,3.0013,3.0253,3.0402,3.0043,2.9535,2.9146,2.9146,2.9146,2.9265,2.9624,2.9864,2.9894,2.9684,3.0177,3.0504,3.0575,3.114,3.1745,3.2401,3.2036,3.1819,3.1819,3.1427,3.119,3.119,3.119,3.1562,3.2293,3.2733,3.3288,3.4032,3.4416,3.4404,1.9823,2.1177,2.2626,2.6248,2.6875,2.69,0.0,0.0,2.7369,0.0,2.6801,2.67,2.67,2.6575,2.6499,2.6499,2.6499,2.6499,2.6499,2.6499,2.6499,2.6499,2.6499,2.6499,2.6499,2.6499,2.6499,2.6499,2.6499,2.6499,2.6499,2.6499,2.6499,2.6499,2.6499,2.6499,2.6499,2.6499,2.6499,2.6499,2.6499,2.6499,2.6499,2.6499,2.6499,2.6499,2.6499,2.6499,2.6568,2.7162,2.7397,2.7438,2.8103,2.9034,2.9966,2.9966,3.0628,3.1511,3.1511,3.1511,3.1511,3.1511,3.1511,3.1511,3.1511,3.1152,3.0881,3.1361,3.1122,3.0881,3.1361,3.1511,3.1511,3.1511,3.1511,3.1511,3.1511,3.1092,3.0642,3.0163,3.0462,3.0612,3.0163,2.9924,2.9831,2.9831,2.9831,2.9983,3.0432,3.0253,3.0193,3.0462,3.0506,3.0686,3.1195,3.1796,3.2428,3.3113,3.2799,3.2598,3.2598,3.1867,3.1481,3.1481,3.1292,3.1664,3.2598,3.3119,3.3897,3.4776,3.5329,3.5318,1.7684,1.9274,2.1099,2.3951,2.5657,0.0,0.0,0.0,2.8047,2.8021,2.7595,2.7278,2.7278,2.6851,2.6499,2.6499,2.6499,2.6499,2.6499,2.6499,2.6499,2.6499,2.6499,2.6499,2.6499,2.6499,2.6499,2.6499,2.6499,2.6499,2.6499,2.6499,2.6499,2.6499,2.6499,2.6499,2.6499,2.6499,2.6499,2.6499,2.6499,2.6499,2.6499,2.6499,2.6499,2.6499,2.6499,2.6499,2.6499,2.6568,2.6568,2.6568,2.6611,2.7637,2.9066,2.9066,3.0117,3.1511,3.1511,3.1511,3.1511,3.1511,3.1511,3.1511,3.1511,3.1481,3.1451,3.1481,3.1481,3.1451,3.1481,3.1511,3.1511,3.1511,3.1511,3.1511,3.1511,3.1481,3.1451,3.1421,3.1421,3.1451,3.1421,3.0853,3.0462,3.0462,3.0462,3.0462,3.0492,3.1032,3.1152,3.0582,3.049,3.0522,3.0536,3.1146,3.1796,3.2406,3.3002,3.3355,3.3355,3.2611,3.2226,3.2226,3.1582,3.1901,3.3355,3.3389,3.4146,3.5532,3.5566,3.5566,1.7363,1.8412,0.0,2.2084,2.3944,2.5578,2.6784,2.7879,2.8524,2.8172,2.7946,2.7821,2.7821,2.7102,2.6499,2.6499,2.6499,2.6499,2.6499,2.6499,2.6499,2.6499,2.6499,2.6499,2.6499,2.6499,2.6499,2.6499,2.6499,2.6499,2.6499,2.6499,2.6499,2.6499,2.6499,2.6499,2.6499,2.6499,2.6499,2.6499,2.6499,2.6499,2.6474,2.6097,2.6147,2.6474,2.6097,2.6147,2.6499,2.6499,2.6816,2.7229,2.6679,2.7868,2.9752,2.9223,3.0056,3.1511,3.1511,3.1511,3.1511,3.1511,3.1511,3.1511,3.1511,3.1511,3.1511,3.1511,3.1511,3.1511,3.1511,3.1511,3.1511,3.1511,3.1511,3.1511,3.1511,3.1511,3.1511,3.1511,3.1511,3.1511,3.1511,3.1301,3.1122,3.1122,3.1122,3.1122,3.1122,3.1361,3.1421,3.1152,3.1122,3.1343,3.1809,3.2449,3.3128,3.3787,3.4008,3.41,3.41,3.3389,3.278,3.2327,3.2056,3.2408,3.3423,3.3423,3.4146,3.56,3.56,3.56,1.6887,1.7559,0.0,0.0,0.0,2.4315,2.6456,2.7817,2.8562,2.8423,2.8373,2.8373,2.8373,2.762,2.6977,2.6801,2.6776,2.67,2.6524,2.6499,2.6499,2.6499,2.6499,2.6499,2.6499,2.6499,2.6499,2.6499,2.6499,2.6499,2.6499,2.6499,2.6499,2.6499,2.6499,2.6499,2.6499,2.6499,2.6499,2.6499,2.6499,2.6499,2.6474,2.6097,2.6122,2.6474,2.6097,2.6147,2.6499,2.6499,2.6816,2.7229,2.6714,2.7901,2.9782,2.9223,3.0056,3.1511,3.1511,3.1511,3.1511,3.1511,3.1511,3.1511,3.1511,3.1511,3.1511,3.1511,3.1511,3.1511,3.1511,3.1511,3.1511,3.1511,3.1511,3.1511,3.1511,3.1511,3.1511,3.1511,3.1511,3.1511,3.1511,3.1511,3.1511,3.1511,3.1511,3.1511,3.1511,3.1511,3.1511,3.1511,3.1511,3.1682,3.2188,3.2868,3.3572,3.4194,3.4446,3.4645,3.4878,3.4167,3.3525,3.3038,3.2564,3.2666,3.3423,3.3423,3.4032,3.525,3.5464,3.56,0.0,0.0,0.0,0.0,0.0,0.0,2.7706,0.0,2.8197,2.8737,2.8863,2.8888,2.8913,2.8524,2.7971,2.7419,2.7293,2.7128,2.66,2.6499,2.6499,2.6499,2.6499,2.6499,2.6499,2.6499,2.6499,2.6499,2.6499,2.6499,2.6499,2.6499,2.6499,2.6499,2.6499,2.6499,2.6499,2.6499,2.6499,2.6499,2.6499,2.6499,2.6499,2.6474,2.6474,2.6499,2.6474,2.6474,2.6499,2.6499,2.6499,2.6533,2.6533,2.7571,2.9034,2.9034,3.0086,3.1511,3.1511,3.1511,3.1511,3.1511,3.1511,3.1511,3.1511,3.1511,3.1511,3.1511,3.1511,3.1511,3.1511,3.1511,3.1511,3.1511,3.1511,3.1511,3.1511,3.1511,3.1511,3.1511,3.1511,3.1511,3.1511,3.1511,3.1511,3.1511,3.1511,3.1511,3.1511,3.1511,3.1511,3.1511,3.1511,3.1511,3.1511,3.216,3.2895,3.3547,3.4194,3.4878,3.5554,3.489,3.4506,3.4506,3.3106,3.2699,3.3389,3.3389,3.3761,3.4472,3.5194,3.5566,1.5684,0.0,0.0,0.0,0.0,0.0,0.0,0.0,2.6691,2.8047,2.8323,2.8574,2.9402,2.9428,2.9151,2.8574,2.7795,2.7243,2.7102,2.6751,2.6499,2.6499,2.6499,2.6499,2.6499,2.6499,2.6499,0.0,2.6499,2.6499,2.6499,2.6499,2.6499,2.6499,2.6499,2.6499,2.6499,2.6499,2.6499,2.6499,2.6499,2.6499,2.6474,2.6072,2.6097,2.6474,2.6047,2.6097,2.6499,2.6499,2.685,2.7397,2.7397,2.8427,2.9936,2.9936,3.0628,3.1511,3.1511,3.1511,3.1511,3.1511,3.1511,3.1511,3.1511,3.1511,3.1511,3.1511,3.1511,3.1511,3.1511,3.1511,3.1511,3.1511,3.1511,3.1511,3.1511,3.1511,3.1511,3.1511,3.1511,3.1511,3.1511,3.1511,3.1511,3.1511,3.1511,3.1511,3.1511,3.1511,3.1511,3.1511,3.1511,3.1511,3.1511,3.216,3.2652,3.2868,3.3946,3.4688,3.4854,3.5137,3.5047,3.4506,3.4121,3.3478,3.2598,3.2598,3.2983,3.3728,3.4472,3.5115,1.5889,1.6328,1.714,1.7731,0.0,0.0,2.2567,2.3968,2.5376,0.0,2.7946,2.8298,2.8976,2.9101,2.9051,2.8913,2.8197,2.7544,2.7318,2.6851,2.6499,2.6499,2.6499,2.6499,2.6499,2.6499,2.6499,2.6499,2.6499,2.6499,2.6499,2.6499,2.6499,2.6499,2.6499,2.6499,2.6499,2.6499,2.6499,2.6499,2.6499,2.6499,2.6474,2.6147,2.6172,2.6474,2.6147,2.6172,2.6499,2.6499,2.696,2.7703,2.7703,2.878,3.0299,3.0299,3.0807,3.1511,3.1511,3.1511,3.1511,3.1511,3.1511,3.1511,3.1511,3.1511,3.1511,3.1511,3.1511,3.1511,3.1511,3.1511,3.1511,3.1511,3.1511,3.1511,3.1511,3.1511,3.1511,3.1511,3.1511,3.1511,3.1511,3.1511,3.1511,3.1511,3.1511,3.1511,3.1511,3.1511,3.1511,3.1511,3.1511,3.1511,3.1511,3.191,3.2272,3.2574,3.3339,3.4028,3.4592,3.4981,3.5115,3.4957,3.4641,3.3931,3.2767,3.2767,3.2983,3.3423,3.4167,3.4742,1.6398,1.677,1.7803,1.9494,1.8986,0.0,2.3442,2.3929,2.4096,0.0,2.7308,2.777,2.7896,2.7971,2.8147,2.8574,2.8348,2.7921,2.7444,2.6927,2.6575,2.6499,2.6499,2.6499,2.6499,2.6499,2.6499,2.6499,2.6499,2.6499,2.6499,2.6499,2.6499,2.6499,2.6499,2.6499,2.6499,2.6499,2.6499,2.6499,2.6499,2.6499,2.6499,2.6499,2.6499,2.6499,2.6499,2.6499,2.6499,2.6499,2.6918,2.7571,2.7769,2.878,3.0178,3.0359,3.0896,3.1511,3.1511,3.1511,3.1511,3.1511,3.1511,3.1511,3.1511,3.1511,3.1511,3.1511,3.1511,3.1511,3.1511,3.1511,3.1511,3.1511,3.1511,3.1511,3.1511,3.1511,3.1511,3.1511,3.1511,3.1511,3.1511,3.1511,3.1511,3.1511,3.1511,3.1511,3.1511,3.1511,3.1511,3.1511,3.1511,3.1511,3.1511,3.1511,3.1768,3.2437,3.2574,3.313,3.435,3.4544,3.4878,3.5453,3.4856,3.4167,3.3525,3.3355,3.3322,3.3423,3.3998,3.4336,1.6738,1.6992,1.7409,1.7387,1.8153,0.0,1.9338,2.0782,2.2408,0.0,2.4641,2.5737,2.665,2.7178,2.7344,2.7027,2.7595,2.8072,2.7971,2.7469,2.6977,2.6549,2.6499,2.6499,2.6499,2.6499,2.6499,2.6499,2.6499,2.6499,2.6499,2.6499,2.6499,2.6499,2.6499,2.6499,2.6499,2.6499,2.6499,2.6499,2.6499,2.6499,2.6499,2.6499,2.6499,2.6499,2.6499,2.6499,2.6499,2.6499,2.6602,2.6884,2.8201,2.8939,2.9411,3.0777,3.1365,3.1511,3.1511,3.1511,3.1511,3.1511,3.1511,3.1511,3.1511,3.1511,3.1511,3.1511,3.1511,3.1511,3.1511,3.1511,3.1511,3.1511,3.1511,3.1511,3.1511,3.1511,3.1511,3.1511,3.1511,3.1511,3.1511,3.1511,3.1511,3.1511,3.1511,3.1511,3.1511,3.1511,3.1511,3.1511,3.1511,3.1511,3.1511,3.1511,3.1568,3.171,3.2272,3.2707,3.3002,3.4021,3.4664,3.4783,3.46,3.4438,3.4269,3.3106,3.2814,3.3389,3.2936,3.3376,1.7285,1.7363,1.7695,1.7662,1.7942,0.0,0.0,2.0009,2.1083,2.2844,2.349,2.4074,2.5069,2.546,2.5737,2.6021,2.6741,2.7293,2.7293,2.7519,2.7595,2.7318,2.7293,2.7168,2.6927,2.6901,2.6801,2.6524,2.6499,2.6499,2.6499,2.6499,2.6499,2.6499,2.6499,2.6499,2.6499,2.6499,2.6499,2.6499,2.6499,2.6499,2.6499,2.6499,2.6499,2.6499,2.6499,2.6499,2.6499,2.6499,2.6499,2.6679,2.833,2.9286,2.9782,3.1043,3.1511,3.1511,3.1511,3.1511,3.1511,3.1511,3.1511,3.1511,3.1511,3.1511,3.1511,3.1511,3.1511,3.1511,3.1511,3.1511,3.1511,3.1511,3.1511,3.1511,3.1511,3.1511,3.1511,3.1511,3.1511,3.1511,3.1511,3.1511,3.1511,3.1511,3.1511,3.1511,3.1511,3.1511,3.1511,3.1511,3.1511,3.1511,3.1511,3.1511,3.1683,3.2051,3.241,3.2895,3.3572,3.4219,3.4759,3.5098,3.506,3.5047,3.5047,3.3931,3.3389,3.3423,3.3389,3.3783,1.8335,1.8301,1.8652,1.8695,1.8379,1.8384,0.0,0.0,0.0,2.2141,2.2571,2.2775,0.0,0.0,0.0,2.4983,0.0,0.0,0.0,2.7092,0.0,2.7645,2.772,2.7645,2.7318,2.7228,2.6977,2.6524,2.6399,2.6373,2.6474,2.6499,2.6499,2.6499,2.6499,2.6499,2.6499,2.6499,2.6499,2.6499,2.6499,2.6499,2.6499,2.6499,2.6499,2.6499,2.6499,2.6499,2.6499,2.6499,2.6499,2.6679,2.833,2.9442,3.0178,3.1161,3.1511,3.1511,3.1511,3.1511,3.1511,3.1511,3.1511,3.1511,3.1511,3.1511,3.1511,3.1511,3.1511,3.1511,3.1511,3.1511,3.1511,3.1511,3.1511,3.1511,3.1511,3.1511,3.1511,3.1511,3.1511,3.1511,3.1511,3.1511,3.1511,3.1511,3.1511,3.1511,3.1511,3.1511,3.1511,3.1511,3.1511,3.1511,3.1511,3.1511,3.1739,3.2355,3.2382,3.2917,3.4145,3.4471,3.4934,3.56,3.56,3.56,3.56,3.5013,3.4336,3.3626,3.4066,3.437,2.0352,2.0527,2.0566,1.9492,1.9744,1.9821,1.8158,0.0,1.9721,1.9233,0.0,0.0,0.0,0.0,0.0,0.0,0.0,0.0,2.4976,2.5963,2.6499,2.5937,2.6373,2.6851,2.7278,2.6876,2.6575,2.6499,2.6021,2.5946,2.6474,2.6499,2.6499,2.6499,2.6499,2.6499,2.6499,2.6499,2.6499,2.6499,2.6499,2.6499,2.6499,2.6499,2.6499,2.6499,2.6499,2.6499,2.6499,2.6499,2.6499,2.6679,2.833,2.9066,2.9348,3.0925,3.1511,3.1511,3.1511,3.1511,3.1511,3.1511,3.1511,3.1511,3.1511,3.1511,3.1511,3.1511,3.1511,3.1511,3.1511,3.1511,3.1511,3.1511,3.1511,3.1511,3.1511,3.1511,3.1511,3.1511,3.1511,3.1511,3.1511,3.1511,3.1511,3.1511,3.1511,3.1511,3.1511,3.1511,3.1511,3.1511,3.1511,3.1511,3.1511,3.1511,3.1539,3.1626,3.1596,3.1994,3.2788,3.3946,3.4934,3.56,3.56,3.56,3.56,3.5532,3.5115,3.4336,3.3795,3.3863,2.0801,2.0703,2.0644,1.9844,1.9746,1.9531,1.8379,1.8458,1.8826,1.9001,0.0,0.0,0.0,0.0,0.0,0.0,2.3797,0.0,0.0,0.0,2.5661,2.6097,0.0,0.0,2.6826,2.6323,2.6122,2.6474,2.6273,2.6223,2.6474,2.6801,2.6826,2.6499,2.6499,2.6499,2.6499,2.6499,2.6499,2.6499,2.6499,2.6499,2.6499,2.6499,2.6499,2.6499,2.6499,2.6499,2.6499,2.6499,2.6499,2.6611,2.7802,2.8556,2.916,3.0359,3.1102,3.1511,3.1511,3.1511,3.1511,3.1511,3.1511,3.1511,3.1511,3.1511,3.1511,3.1511,3.1511,3.1511,3.1511,3.1511,3.1511,3.1511,3.1511,3.1511,3.1511,3.1511,3.1511,3.1511,3.1511,3.1511,3.1511,3.1511,3.1511,3.1511,3.1511,3.1511,3.1511,3.1511,3.1511,3.1511,3.1511,3.1511,3.1511,3.1511,3.1682,3.2104,3.2864,3.3437,3.3751,3.4664,3.5316,3.56,3.56,3.56,3.56,3.56,3.543,3.5148,3.4822,3.4844,2.1445,0.0,2.1074,2.0293,1.9863,1.9434,1.8598,1.8383,1.8493,1.8981,1.9202,0.0,0.0,0.0,2.1738,2.2788,0.0,2.3753,0.0,2.4104,0.0,0.0,0.0,0.0,0.0,2.5711,2.5611,2.6223,2.6122,2.6248,2.67,2.7102,2.7128,2.6725,2.6725,2.665,2.6499,2.6499,2.6499,2.6499,2.6499,2.6499,2.6499,2.6499,2.6499,2.6499,2.6499,2.6499,2.6499,2.6499,2.6499,2.6568,2.7129,2.8038,2.9097,2.9995,3.0807,3.1511,3.1511,3.1511,3.1511,3.1511,3.1511,3.1511,3.1511,3.1511,3.1511,3.1511,3.1511,3.1511,3.1511,3.1511,3.154,3.172,3.163,3.154,3.172,3.163,3.1511,3.1511,3.1511,3.1511,3.1511,3.1511,3.1511,3.1511,3.1511,3.1511,3.1511,3.1511,3.1511,3.1511,3.1511,3.1511,3.1511,3.1511,3.171,3.2272,3.3417,3.4046,3.4046,3.4887,3.5339,3.5339,3.5532,3.56,3.56,3.56,3.56,3.56,3.56,3.56,0.0,0.0,0.0,2.0997,0.0,0.0,1.8418,1.8652,1.9121,1.8711,1.9961,2.1006,2.0694,2.161,2.2462,2.2518,2.2861,0.0,0.0,0.0,0.0,0.0,0.0,0.0,0.0,2.5159,2.5059,0.0,2.5159,2.5561,2.7168,2.7268,2.7268,2.7243,2.7243,2.7027,2.6499,2.6499,2.6499,2.6499,2.6499,2.6499,2.6499,2.6499,2.6499,2.6499,2.6499,2.6499,2.6499,2.6499,2.6499,2.6499,2.6533,2.7537,2.9097,2.9995,3.0807,3.1511,3.1511,3.1511,3.1511,3.1511,3.1511,3.1511,3.1511,3.1511,3.1511,3.1511,3.1511,3.1511,3.1511,3.1511,3.166,3.2288,3.1959,3.169,3.2318,3.1959,3.1511,3.1511,3.1511,3.1511,3.1511,3.1511,3.1511,3.1511,3.1511,3.1511,3.1511,3.1511,3.1511,3.1511,3.1511,3.1511,3.1511,3.1511,3.1511,3.1539,3.2244,3.2652,3.2652,3.3953,3.464,3.464,3.5293,3.56,3.56,3.56,3.56,3.56,3.56,3.56,0.0,0.0,2.275,2.1367,0.0,0.0,0.0,0.0,0.0,1.8695,1.9515,2.0397,2.0579,2.0946,2.163,2.2807,2.2839,2.2816,0.0,0.0,0.0,0.0,0.0,0.0,0.0,0.0,0.0,2.5586,2.5787,0.0,2.6751,2.7419,2.767,2.7329,2.7293,2.7228,2.7027,2.6675,2.6499,2.6499,2.6499,2.6499,2.6499,2.6499,2.6499,2.6499,2.6499,2.6499,2.6499,2.6499,2.6499,2.6499,2.6499,2.7162,2.8233,2.9129,3.0299,3.1511,3.1511,3.1511,3.1511,3.1511,3.1511,3.1511,3.1511,3.1511,3.16,3.2019,3.2138,3.2258,3.2706,3.2826,3.2886,3.3125,3.3006,3.2886,3.3125,3.2976,3.2826,3.2826,3.2826,3.2706,3.2228,3.2138,3.2019,3.157,3.1511,3.1511,3.1511,3.1511,3.1511,3.1511,3.1511,3.1511,3.1511,3.1511,3.1511,3.1511,3.2188,3.2602,3.2602,3.3469,3.4145,3.4592,3.4807,3.5144,3.56,3.56,3.56,3.56,3.56,3.56,2.3101,2.3101,0.0,2.1758,2.125,0.0,1.9394,0.0,1.9863,0.0,0.0,0.0,0.0,2.1056,2.1481,2.2632,2.2807,2.2855,0.0,2.2794,0.0,0.0,0.0,0.0,0.0,0.0,2.4757,2.5536,2.5619,0.0,0.0,2.762,2.7946,2.7595,2.777,2.777,2.757,2.7052,2.6776,2.6776,2.6575,2.6499,2.6499,2.6499,2.6499,2.6499,2.6499,2.6499,2.6499,2.6499,2.6499,2.6499,2.6499,2.6994,2.7802,2.8684,3.0056,3.1511,3.1511,3.1511,3.1511,3.1511,3.1511,3.154,3.178,3.1839,3.1989,3.2677,3.2856,3.2976,3.3395,3.3484,3.3544,3.3784,3.3664,3.3574,3.3784,3.3664,3.3484,3.3484,3.3484,3.3365,3.2946,3.2677,3.2258,3.16,3.1511,3.1511,3.1511,3.1511,3.1511,3.1511,3.1511,3.1511,3.1511,3.1511,3.1511,3.1511,3.1966,3.2216,3.2216,3.2895,3.3572,3.4219,3.4496,3.4934,3.56,3.56,3.56,3.56,3.56,3.56]}]]